<?xml version="1.0" encoding="UTF-8" standalone="no" ?>
<gpx xmlns="http://www.topografix.com/GPX/1/1" xmlns:xsi="http://www.w3.org/2001/XMLSchema-instance" xsi:schemaLocation="http://www.topografix.com/GPX/1/1 http://www.topografix.com/GPX/1/1/gpx.xsd" version="1.1" creator="VisuGPX - https://www.visugpx.com">
  <metadata>
    <name>fontainebleau rocher canon</name>
    <desc><![CDATA[35 kms ludiques]]></desc>
  </metadata>
  <trk>
    <name><![CDATA[ACTIVE LOG081951]]></name>
    <trkseg>
      <trkpt lat="48.4435" lon="2.71859">
        <ele>81.903</ele>
        <time>2011-09-25T06:19:50Z</time>
      </trkpt>
      <trkpt lat="48.44351" lon="2.71858">
        <ele>81.885</ele>
        <time>2011-09-25T06:20:04Z</time>
      </trkpt>
      <trkpt lat="48.44353" lon="2.71855">
        <ele>82.499</ele>
        <time>2011-09-25T06:20:07Z</time>
      </trkpt>
      <trkpt lat="48.44354" lon="2.71835">
        <ele>80.45</ele>
        <time>2011-09-25T06:20:12Z</time>
      </trkpt>
      <trkpt lat="48.44364" lon="2.71791">
        <ele>81.143</ele>
        <time>2011-09-25T06:20:19Z</time>
      </trkpt>
      <trkpt lat="48.44367" lon="2.71761">
        <ele>80.584</ele>
        <time>2011-09-25T06:20:23Z</time>
      </trkpt>
      <trkpt lat="48.44354" lon="2.71712">
        <ele>81.278</ele>
        <time>2011-09-25T06:20:35Z</time>
      </trkpt>
      <trkpt lat="48.44329" lon="2.7164">
        <ele>84.448</ele>
        <time>2011-09-25T06:20:46Z</time>
      </trkpt>
      <trkpt lat="48.44303" lon="2.71557">
        <ele>85.882</ele>
        <time>2011-09-25T06:21:01Z</time>
      </trkpt>
      <trkpt lat="48.44267" lon="2.71449">
        <ele>83.82</ele>
        <time>2011-09-25T06:21:21Z</time>
      </trkpt>
      <trkpt lat="48.44236" lon="2.7139">
        <ele>85.554</ele>
        <time>2011-09-25T06:21:36Z</time>
      </trkpt>
      <trkpt lat="48.44181" lon="2.71333">
        <ele>84.236</ele>
        <time>2011-09-25T06:21:54Z</time>
      </trkpt>
      <trkpt lat="48.44135" lon="2.71287">
        <ele>83.69</ele>
        <time>2011-09-25T06:22:09Z</time>
      </trkpt>
      <trkpt lat="48.44083" lon="2.71231">
        <ele>84.088</ele>
        <time>2011-09-25T06:22:28Z</time>
      </trkpt>
      <trkpt lat="48.44077" lon="2.71224">
        <ele>84.622</ele>
        <time>2011-09-25T06:22:31Z</time>
      </trkpt>
      <trkpt lat="48.44077" lon="2.71214">
        <ele>85.026</ele>
        <time>2011-09-25T06:22:34Z</time>
      </trkpt>
      <trkpt lat="48.44071" lon="2.71203">
        <ele>85.07</ele>
        <time>2011-09-25T06:22:38Z</time>
      </trkpt>
      <trkpt lat="48.4406" lon="2.71199">
        <ele>85.64</ele>
        <time>2011-09-25T06:22:41Z</time>
      </trkpt>
      <trkpt lat="48.44053" lon="2.71191">
        <ele>87.507</ele>
        <time>2011-09-25T06:22:45Z</time>
      </trkpt>
      <trkpt lat="48.44036" lon="2.71184">
        <ele>90.206</ele>
        <time>2011-09-25T06:22:51Z</time>
      </trkpt>
      <trkpt lat="48.44019" lon="2.7116">
        <ele>94.375</ele>
        <time>2011-09-25T06:22:59Z</time>
      </trkpt>
      <trkpt lat="48.44003" lon="2.71155">
        <ele>94.575</ele>
        <time>2011-09-25T06:23:11Z</time>
      </trkpt>
      <trkpt lat="48.43997" lon="2.71154">
        <ele>94.044</ele>
        <time>2011-09-25T06:23:15Z</time>
      </trkpt>
      <trkpt lat="48.43994" lon="2.7115">
        <ele>94.477</ele>
        <time>2011-09-25T06:23:18Z</time>
      </trkpt>
      <trkpt lat="48.43981" lon="2.71139">
        <ele>95.27</ele>
        <time>2011-09-25T06:23:29Z</time>
      </trkpt>
      <trkpt lat="48.43972" lon="2.71135">
        <ele>96.049</ele>
        <time>2011-09-25T06:23:33Z</time>
      </trkpt>
      <trkpt lat="48.43954" lon="2.7114">
        <ele>98.773</ele>
        <time>2011-09-25T06:23:40Z</time>
      </trkpt>
      <trkpt lat="48.43949" lon="2.71138">
        <ele>99.538</ele>
        <time>2011-09-25T06:23:43Z</time>
      </trkpt>
      <trkpt lat="48.43936" lon="2.71138">
        <ele>102.013</ele>
        <time>2011-09-25T06:23:50Z</time>
      </trkpt>
      <trkpt lat="48.4393" lon="2.71139">
        <ele>102.367</ele>
        <time>2011-09-25T06:23:52Z</time>
      </trkpt>
      <trkpt lat="48.43918" lon="2.71134">
        <ele>104.189</ele>
        <time>2011-09-25T06:23:59Z</time>
      </trkpt>
      <trkpt lat="48.43908" lon="2.71124">
        <ele>106.506</ele>
        <time>2011-09-25T06:24:13Z</time>
      </trkpt>
      <trkpt lat="48.43905" lon="2.71134">
        <ele>107.015</ele>
        <time>2011-09-25T06:24:18Z</time>
      </trkpt>
      <trkpt lat="48.43901" lon="2.71143">
        <ele>107.662</ele>
        <time>2011-09-25T06:24:20Z</time>
      </trkpt>
      <trkpt lat="48.43909" lon="2.71195">
        <ele>106.474</ele>
        <time>2011-09-25T06:24:27Z</time>
      </trkpt>
      <trkpt lat="48.43916" lon="2.71214">
        <ele>105.426</ele>
        <time>2011-09-25T06:24:30Z</time>
      </trkpt>
      <trkpt lat="48.43913" lon="2.71246">
        <ele>103.307</ele>
        <time>2011-09-25T06:24:35Z</time>
      </trkpt>
      <trkpt lat="48.43901" lon="2.71284">
        <ele>99.172</ele>
        <time>2011-09-25T06:24:44Z</time>
      </trkpt>
      <trkpt lat="48.43906" lon="2.7132">
        <ele>99.686</ele>
        <time>2011-09-25T06:24:49Z</time>
      </trkpt>
      <trkpt lat="48.43906" lon="2.71354">
        <ele>103.333</ele>
        <time>2011-09-25T06:25:01Z</time>
      </trkpt>
      <trkpt lat="48.43906" lon="2.71355">
        <ele>103.468</ele>
        <time>2011-09-25T06:25:02Z</time>
      </trkpt>
      <trkpt lat="48.43908" lon="2.7136">
        <ele>102.333</ele>
        <time>2011-09-25T06:25:04Z</time>
      </trkpt>
      <trkpt lat="48.43908" lon="2.71371">
        <ele>102.196</ele>
        <time>2011-09-25T06:25:08Z</time>
      </trkpt>
      <trkpt lat="48.43909" lon="2.71381">
        <ele>101.466</ele>
        <time>2011-09-25T06:25:11Z</time>
      </trkpt>
      <trkpt lat="48.43909" lon="2.71388">
        <ele>101.123</ele>
        <time>2011-09-25T06:25:15Z</time>
      </trkpt>
      <trkpt lat="48.43913" lon="2.71395">
        <ele>101.479</ele>
        <time>2011-09-25T06:25:26Z</time>
      </trkpt>
      <trkpt lat="48.43914" lon="2.71398">
        <ele>101.416</ele>
        <time>2011-09-25T06:25:31Z</time>
      </trkpt>
      <trkpt lat="48.43916" lon="2.71399">
        <ele>101.308</ele>
        <time>2011-09-25T06:25:42Z</time>
      </trkpt>
      <trkpt lat="48.43919" lon="2.71403">
        <ele>101.349</ele>
        <time>2011-09-25T06:26:05Z</time>
      </trkpt>
      <trkpt lat="48.43919" lon="2.71406">
        <ele>101.259</ele>
        <time>2011-09-25T06:26:07Z</time>
      </trkpt>
      <trkpt lat="48.43924" lon="2.71421">
        <ele>99.117</ele>
        <time>2011-09-25T06:26:14Z</time>
      </trkpt>
      <trkpt lat="48.43926" lon="2.71436">
        <ele>95.561</ele>
        <time>2011-09-25T06:26:24Z</time>
      </trkpt>
      <trkpt lat="48.4393" lon="2.71447">
        <ele>95.371</ele>
        <time>2011-09-25T06:26:37Z</time>
      </trkpt>
      <trkpt lat="48.43933" lon="2.71456">
        <ele>93.697</ele>
        <time>2011-09-25T06:26:43Z</time>
      </trkpt>
      <trkpt lat="48.43932" lon="2.7147">
        <ele>92.318</ele>
        <time>2011-09-25T06:26:49Z</time>
      </trkpt>
      <trkpt lat="48.43928" lon="2.71475">
        <ele>91.315</ele>
        <time>2011-09-25T06:26:53Z</time>
      </trkpt>
      <trkpt lat="48.43923" lon="2.71483">
        <ele>90.299</ele>
        <time>2011-09-25T06:26:58Z</time>
      </trkpt>
      <trkpt lat="48.43915" lon="2.71506">
        <ele>88.712</ele>
        <time>2011-09-25T06:27:02Z</time>
      </trkpt>
      <trkpt lat="48.43905" lon="2.71533">
        <ele>87.318</ele>
        <time>2011-09-25T06:27:06Z</time>
      </trkpt>
      <trkpt lat="48.43879" lon="2.71538">
        <ele>87.976</ele>
        <time>2011-09-25T06:27:13Z</time>
      </trkpt>
      <trkpt lat="48.43872" lon="2.71541">
        <ele>87.892</ele>
        <time>2011-09-25T06:27:15Z</time>
      </trkpt>
      <trkpt lat="48.43862" lon="2.71546">
        <ele>88.028</ele>
        <time>2011-09-25T06:27:18Z</time>
      </trkpt>
      <trkpt lat="48.4385" lon="2.7156">
        <ele>89.344</ele>
        <time>2011-09-25T06:27:23Z</time>
      </trkpt>
      <trkpt lat="48.43841" lon="2.71585">
        <ele>88.936</ele>
        <time>2011-09-25T06:27:30Z</time>
      </trkpt>
      <trkpt lat="48.43835" lon="2.71594">
        <ele>87.514</ele>
        <time>2011-09-25T06:27:32Z</time>
      </trkpt>
      <trkpt lat="48.43832" lon="2.71622">
        <ele>87.073</ele>
        <time>2011-09-25T06:27:36Z</time>
      </trkpt>
      <trkpt lat="48.43831" lon="2.71637">
        <ele>85.762</ele>
        <time>2011-09-25T06:27:38Z</time>
      </trkpt>
      <trkpt lat="48.43823" lon="2.71652">
        <ele>85.549</ele>
        <time>2011-09-25T06:27:41Z</time>
      </trkpt>
      <trkpt lat="48.43812" lon="2.71681">
        <ele>83.775</ele>
        <time>2011-09-25T06:27:45Z</time>
      </trkpt>
      <trkpt lat="48.4381" lon="2.71709">
        <ele>82.443</ele>
        <time>2011-09-25T06:27:49Z</time>
      </trkpt>
      <trkpt lat="48.43801" lon="2.71734">
        <ele>80.715</ele>
        <time>2011-09-25T06:27:53Z</time>
      </trkpt>
      <trkpt lat="48.43783" lon="2.71767">
        <ele>79.743</ele>
        <time>2011-09-25T06:27:58Z</time>
      </trkpt>
      <trkpt lat="48.43762" lon="2.71789">
        <ele>82.823</ele>
        <time>2011-09-25T06:28:02Z</time>
      </trkpt>
      <trkpt lat="48.43747" lon="2.71825">
        <ele>82.883</ele>
        <time>2011-09-25T06:28:07Z</time>
      </trkpt>
      <trkpt lat="48.43739" lon="2.71838">
        <ele>83.033</ele>
        <time>2011-09-25T06:28:09Z</time>
      </trkpt>
      <trkpt lat="48.43724" lon="2.7186">
        <ele>82.441</ele>
        <time>2011-09-25T06:28:13Z</time>
      </trkpt>
      <trkpt lat="48.43708" lon="2.71869">
        <ele>83.114</ele>
        <time>2011-09-25T06:28:17Z</time>
      </trkpt>
      <trkpt lat="48.43702" lon="2.71871">
        <ele>83.122</ele>
        <time>2011-09-25T06:28:19Z</time>
      </trkpt>
      <trkpt lat="48.43688" lon="2.71875">
        <ele>83.628</ele>
        <time>2011-09-25T06:28:24Z</time>
      </trkpt>
      <trkpt lat="48.43676" lon="2.71889">
        <ele>83.158</ele>
        <time>2011-09-25T06:28:29Z</time>
      </trkpt>
      <trkpt lat="48.43665" lon="2.71904">
        <ele>83.624</ele>
        <time>2011-09-25T06:28:32Z</time>
      </trkpt>
      <trkpt lat="48.43647" lon="2.71927">
        <ele>84.905</ele>
        <time>2011-09-25T06:28:37Z</time>
      </trkpt>
      <trkpt lat="48.4364" lon="2.71947">
        <ele>85.279</ele>
        <time>2011-09-25T06:28:40Z</time>
      </trkpt>
      <trkpt lat="48.43638" lon="2.71958">
        <ele>85.342</ele>
        <time>2011-09-25T06:28:42Z</time>
      </trkpt>
      <trkpt lat="48.43626" lon="2.71978">
        <ele>84.799</ele>
        <time>2011-09-25T06:28:47Z</time>
      </trkpt>
      <trkpt lat="48.43623" lon="2.71989">
        <ele>84.542</ele>
        <time>2011-09-25T06:28:49Z</time>
      </trkpt>
      <trkpt lat="48.43601" lon="2.72044">
        <ele>83.831</ele>
        <time>2011-09-25T06:28:58Z</time>
      </trkpt>
      <trkpt lat="48.4359" lon="2.72082">
        <ele>84.157</ele>
        <time>2011-09-25T06:29:03Z</time>
      </trkpt>
      <trkpt lat="48.43595" lon="2.72108">
        <ele>84.4</ele>
        <time>2011-09-25T06:29:12Z</time>
      </trkpt>
      <trkpt lat="48.43592" lon="2.7212">
        <ele>84.362</ele>
        <time>2011-09-25T06:29:16Z</time>
      </trkpt>
      <trkpt lat="48.43588" lon="2.72159">
        <ele>85.904</ele>
        <time>2011-09-25T06:29:25Z</time>
      </trkpt>
      <trkpt lat="48.43578" lon="2.72176">
        <ele>84.98</ele>
        <time>2011-09-25T06:29:29Z</time>
      </trkpt>
      <trkpt lat="48.43538" lon="2.7221">
        <ele>87.51</ele>
        <time>2011-09-25T06:29:40Z</time>
      </trkpt>
      <trkpt lat="48.43512" lon="2.72247">
        <ele>90.299</ele>
        <time>2011-09-25T06:29:50Z</time>
      </trkpt>
      <trkpt lat="48.43504" lon="2.72296">
        <ele>91.476</ele>
        <time>2011-09-25T06:30:01Z</time>
      </trkpt>
      <trkpt lat="48.43501" lon="2.72304">
        <ele>91.52</ele>
        <time>2011-09-25T06:30:03Z</time>
      </trkpt>
      <trkpt lat="48.43497" lon="2.72321">
        <ele>91.685</ele>
        <time>2011-09-25T06:30:06Z</time>
      </trkpt>
      <trkpt lat="48.43495" lon="2.72348">
        <ele>91.507</ele>
        <time>2011-09-25T06:30:11Z</time>
      </trkpt>
      <trkpt lat="48.43494" lon="2.72357">
        <ele>93.976</ele>
        <time>2011-09-25T06:30:13Z</time>
      </trkpt>
      <trkpt lat="48.43492" lon="2.72367">
        <ele>95.202</ele>
        <time>2011-09-25T06:30:16Z</time>
      </trkpt>
      <trkpt lat="48.43486" lon="2.7239">
        <ele>95.121</ele>
        <time>2011-09-25T06:30:24Z</time>
      </trkpt>
      <trkpt lat="48.43486" lon="2.72408">
        <ele>96.341</ele>
        <time>2011-09-25T06:30:33Z</time>
      </trkpt>
      <trkpt lat="48.43484" lon="2.72422">
        <ele>98.255</ele>
        <time>2011-09-25T06:30:38Z</time>
      </trkpt>
      <trkpt lat="48.43472" lon="2.72462">
        <ele>102.153</ele>
        <time>2011-09-25T06:30:49Z</time>
      </trkpt>
      <trkpt lat="48.43462" lon="2.7248">
        <ele>103.272</ele>
        <time>2011-09-25T06:30:56Z</time>
      </trkpt>
      <trkpt lat="48.43448" lon="2.72492">
        <ele>108.232</ele>
        <time>2011-09-25T06:31:04Z</time>
      </trkpt>
      <trkpt lat="48.43446" lon="2.72493">
        <ele>108.506</ele>
        <time>2011-09-25T06:31:06Z</time>
      </trkpt>
      <trkpt lat="48.43438" lon="2.72503">
        <ele>112.741</ele>
        <time>2011-09-25T06:31:19Z</time>
      </trkpt>
      <trkpt lat="48.43438" lon="2.72501">
        <ele>113.937</ele>
        <time>2011-09-25T06:31:53Z</time>
      </trkpt>
      <trkpt lat="48.43434" lon="2.72516">
        <ele>114.352</ele>
        <time>2011-09-25T06:32:01Z</time>
      </trkpt>
      <trkpt lat="48.43432" lon="2.72524">
        <ele>116.054</ele>
        <time>2011-09-25T06:32:07Z</time>
      </trkpt>
      <trkpt lat="48.4343" lon="2.72531">
        <ele>116.814</ele>
        <time>2011-09-25T06:32:12Z</time>
      </trkpt>
      <trkpt lat="48.43427" lon="2.72541">
        <ele>118.283</ele>
        <time>2011-09-25T06:32:30Z</time>
      </trkpt>
      <trkpt lat="48.43434" lon="2.72575">
        <ele>116.561</ele>
        <time>2011-09-25T06:34:41Z</time>
      </trkpt>
      <trkpt lat="48.4344" lon="2.72598">
        <ele>115.604</ele>
        <time>2011-09-25T06:34:47Z</time>
      </trkpt>
      <trkpt lat="48.43432" lon="2.72602">
        <ele>118.921</ele>
        <time>2011-09-25T06:34:53Z</time>
      </trkpt>
      <trkpt lat="48.43425" lon="2.72603">
        <ele>119.904</ele>
        <time>2011-09-25T06:35:05Z</time>
      </trkpt>
      <trkpt lat="48.43417" lon="2.72607">
        <ele>123.665</ele>
        <time>2011-09-25T06:35:17Z</time>
      </trkpt>
      <trkpt lat="48.43412" lon="2.72598">
        <ele>131.107</ele>
        <time>2011-09-25T06:35:32Z</time>
      </trkpt>
      <trkpt lat="48.43404" lon="2.72601">
        <ele>133.28</ele>
        <time>2011-09-25T06:35:44Z</time>
      </trkpt>
      <trkpt lat="48.43401" lon="2.72598">
        <ele>133.069</ele>
        <time>2011-09-25T06:36:07Z</time>
      </trkpt>
      <trkpt lat="48.434" lon="2.72597">
        <ele>133.335</ele>
        <time>2011-09-25T06:36:50Z</time>
      </trkpt>
      <trkpt lat="48.43378" lon="2.72598">
        <ele>131.569</ele>
        <time>2011-09-25T06:37:05Z</time>
      </trkpt>
      <trkpt lat="48.43375" lon="2.72601">
        <ele>130.34</ele>
        <time>2011-09-25T06:37:09Z</time>
      </trkpt>
      <trkpt lat="48.43365" lon="2.72611">
        <ele>126.587</ele>
        <time>2011-09-25T06:37:16Z</time>
      </trkpt>
      <trkpt lat="48.43355" lon="2.72617">
        <ele>123.858</ele>
        <time>2011-09-25T06:37:28Z</time>
      </trkpt>
      <trkpt lat="48.43356" lon="2.72618">
        <ele>123.267</ele>
        <time>2011-09-25T06:38:29Z</time>
      </trkpt>
      <trkpt lat="48.43373" lon="2.7266">
        <ele>124.242</ele>
        <time>2011-09-25T06:38:44Z</time>
      </trkpt>
      <trkpt lat="48.43383" lon="2.72664">
        <ele>124.262</ele>
        <time>2011-09-25T06:38:48Z</time>
      </trkpt>
      <trkpt lat="48.43392" lon="2.72656">
        <ele>124.852</ele>
        <time>2011-09-25T06:38:52Z</time>
      </trkpt>
      <trkpt lat="48.43403" lon="2.72606">
        <ele>127.319</ele>
        <time>2011-09-25T06:39:07Z</time>
      </trkpt>
      <trkpt lat="48.43403" lon="2.72598">
        <ele>128.253</ele>
        <time>2011-09-25T06:39:20Z</time>
      </trkpt>
      <trkpt lat="48.43402" lon="2.72597">
        <ele>128.023</ele>
        <time>2011-09-25T06:39:52Z</time>
      </trkpt>
      <trkpt lat="48.43396" lon="2.72595">
        <ele>129.472</ele>
        <time>2011-09-25T06:40:10Z</time>
      </trkpt>
      <trkpt lat="48.43396" lon="2.72595">
        <ele>129.758</ele>
        <time>2011-09-25T06:41:06Z</time>
      </trkpt>
      <trkpt lat="48.43395" lon="2.72565">
        <ele>131.234</ele>
        <time>2011-09-25T06:41:18Z</time>
      </trkpt>
      <trkpt lat="48.43395" lon="2.72563">
        <ele>131.357</ele>
        <time>2011-09-25T06:41:19Z</time>
      </trkpt>
      <trkpt lat="48.43396" lon="2.72519">
        <ele>131.141</ele>
        <time>2011-09-25T06:41:29Z</time>
      </trkpt>
      <trkpt lat="48.43399" lon="2.72492">
        <ele>130.645</ele>
        <time>2011-09-25T06:41:34Z</time>
      </trkpt>
      <trkpt lat="48.4341" lon="2.72461">
        <ele>128.767</ele>
        <time>2011-09-25T06:41:39Z</time>
      </trkpt>
      <trkpt lat="48.43416" lon="2.72443">
        <ele>126.345</ele>
        <time>2011-09-25T06:41:42Z</time>
      </trkpt>
      <trkpt lat="48.43418" lon="2.72393">
        <ele>123.153</ele>
        <time>2011-09-25T06:41:49Z</time>
      </trkpt>
      <trkpt lat="48.43403" lon="2.72354">
        <ele>125.488</ele>
        <time>2011-09-25T06:41:59Z</time>
      </trkpt>
      <trkpt lat="48.43401" lon="2.72348">
        <ele>126.363</ele>
        <time>2011-09-25T06:42:01Z</time>
      </trkpt>
      <trkpt lat="48.434" lon="2.72343">
        <ele>126.81</ele>
        <time>2011-09-25T06:42:03Z</time>
      </trkpt>
      <trkpt lat="48.43399" lon="2.72337">
        <ele>126.583</ele>
        <time>2011-09-25T06:42:05Z</time>
      </trkpt>
      <trkpt lat="48.43398" lon="2.72326">
        <ele>128.414</ele>
        <time>2011-09-25T06:42:18Z</time>
      </trkpt>
      <trkpt lat="48.43399" lon="2.72325">
        <ele>128.152</ele>
        <time>2011-09-25T06:44:38Z</time>
      </trkpt>
      <trkpt lat="48.43413" lon="2.72287">
        <ele>126.368</ele>
        <time>2011-09-25T06:44:50Z</time>
      </trkpt>
      <trkpt lat="48.43414" lon="2.72284">
        <ele>126.279</ele>
        <time>2011-09-25T06:44:51Z</time>
      </trkpt>
      <trkpt lat="48.4342" lon="2.72258">
        <ele>125.924</ele>
        <time>2011-09-25T06:44:56Z</time>
      </trkpt>
      <trkpt lat="48.43424" lon="2.72241">
        <ele>125.013</ele>
        <time>2011-09-25T06:45:00Z</time>
      </trkpt>
      <trkpt lat="48.43428" lon="2.7223">
        <ele>123.865</ele>
        <time>2011-09-25T06:45:02Z</time>
      </trkpt>
      <trkpt lat="48.43433" lon="2.72195">
        <ele>120.685</ele>
        <time>2011-09-25T06:45:13Z</time>
      </trkpt>
      <trkpt lat="48.43433" lon="2.72189">
        <ele>121.331</ele>
        <time>2011-09-25T06:46:07Z</time>
      </trkpt>
      <trkpt lat="48.43446" lon="2.72158">
        <ele>118.321</ele>
        <time>2011-09-25T06:46:15Z</time>
      </trkpt>
      <trkpt lat="48.43452" lon="2.72119">
        <ele>118.16</ele>
        <time>2011-09-25T06:46:22Z</time>
      </trkpt>
      <trkpt lat="48.43462" lon="2.72088">
        <ele>118.271</ele>
        <time>2011-09-25T06:46:27Z</time>
      </trkpt>
      <trkpt lat="48.43466" lon="2.72079">
        <ele>118.61</ele>
        <time>2011-09-25T06:46:29Z</time>
      </trkpt>
      <trkpt lat="48.43473" lon="2.72062">
        <ele>117.914</ele>
        <time>2011-09-25T06:46:32Z</time>
      </trkpt>
      <trkpt lat="48.4347" lon="2.72002">
        <ele>116.545</ele>
        <time>2011-09-25T06:46:42Z</time>
      </trkpt>
      <trkpt lat="48.43469" lon="2.71991">
        <ele>116.781</ele>
        <time>2011-09-25T06:46:44Z</time>
      </trkpt>
      <trkpt lat="48.43479" lon="2.71946">
        <ele>117.297</ele>
        <time>2011-09-25T06:46:51Z</time>
      </trkpt>
      <trkpt lat="48.43475" lon="2.71896">
        <ele>116.812</ele>
        <time>2011-09-25T06:46:59Z</time>
      </trkpt>
      <trkpt lat="48.43478" lon="2.71868">
        <ele>117.064</ele>
        <time>2011-09-25T06:47:08Z</time>
      </trkpt>
      <trkpt lat="48.43478" lon="2.71868">
        <ele>117.423</ele>
        <time>2011-09-25T06:47:09Z</time>
      </trkpt>
      <trkpt lat="48.43481" lon="2.7185">
        <ele>116.611</ele>
        <time>2011-09-25T06:47:15Z</time>
      </trkpt>
      <trkpt lat="48.43492" lon="2.71818">
        <ele>116.264</ele>
        <time>2011-09-25T06:47:26Z</time>
      </trkpt>
      <trkpt lat="48.43495" lon="2.71811">
        <ele>116.113</ele>
        <time>2011-09-25T06:47:28Z</time>
      </trkpt>
      <trkpt lat="48.43497" lon="2.71785">
        <ele>114.136</ele>
        <time>2011-09-25T06:47:35Z</time>
      </trkpt>
      <trkpt lat="48.43494" lon="2.71778">
        <ele>114.828</ele>
        <time>2011-09-25T06:47:38Z</time>
      </trkpt>
      <trkpt lat="48.43495" lon="2.71764">
        <ele>117.76</ele>
        <time>2011-09-25T06:47:45Z</time>
      </trkpt>
      <trkpt lat="48.43493" lon="2.71739">
        <ele>117.787</ele>
        <time>2011-09-25T06:47:54Z</time>
      </trkpt>
      <trkpt lat="48.43497" lon="2.71735">
        <ele>119.157</ele>
        <time>2011-09-25T06:47:57Z</time>
      </trkpt>
      <trkpt lat="48.43502" lon="2.71726">
        <ele>120.672</ele>
        <time>2011-09-25T06:48:01Z</time>
      </trkpt>
      <trkpt lat="48.43514" lon="2.71704">
        <ele>121.993</ele>
        <time>2011-09-25T06:48:09Z</time>
      </trkpt>
      <trkpt lat="48.43513" lon="2.71696">
        <ele>121.342</ele>
        <time>2011-09-25T06:48:11Z</time>
      </trkpt>
      <trkpt lat="48.43518" lon="2.71681">
        <ele>120.996</ele>
        <time>2011-09-25T06:48:18Z</time>
      </trkpt>
      <trkpt lat="48.43517" lon="2.71676">
        <ele>120.214</ele>
        <time>2011-09-25T06:48:20Z</time>
      </trkpt>
      <trkpt lat="48.43516" lon="2.71657">
        <ele>118.243</ele>
        <time>2011-09-25T06:48:25Z</time>
      </trkpt>
      <trkpt lat="48.43528" lon="2.7162">
        <ele>117.988</ele>
        <time>2011-09-25T06:48:33Z</time>
      </trkpt>
      <trkpt lat="48.4353" lon="2.71615">
        <ele>118.679</ele>
        <time>2011-09-25T06:48:35Z</time>
      </trkpt>
      <trkpt lat="48.43534" lon="2.71598">
        <ele>119.076</ele>
        <time>2011-09-25T06:48:40Z</time>
      </trkpt>
      <trkpt lat="48.43534" lon="2.71574">
        <ele>120.803</ele>
        <time>2011-09-25T06:48:50Z</time>
      </trkpt>
      <trkpt lat="48.43537" lon="2.71561">
        <ele>120.127</ele>
        <time>2011-09-25T06:48:53Z</time>
      </trkpt>
      <trkpt lat="48.4354" lon="2.71547">
        <ele>118.252</ele>
        <time>2011-09-25T06:48:58Z</time>
      </trkpt>
      <trkpt lat="48.43538" lon="2.71526">
        <ele>115.954</ele>
        <time>2011-09-25T06:49:04Z</time>
      </trkpt>
      <trkpt lat="48.43531" lon="2.71505">
        <ele>116.909</ele>
        <time>2011-09-25T06:49:15Z</time>
      </trkpt>
      <trkpt lat="48.43527" lon="2.71496">
        <ele>116.255</ele>
        <time>2011-09-25T06:49:18Z</time>
      </trkpt>
      <trkpt lat="48.43506" lon="2.71476">
        <ele>114.597</ele>
        <time>2011-09-25T06:49:25Z</time>
      </trkpt>
      <trkpt lat="48.43472" lon="2.71443">
        <ele>113.887</ele>
        <time>2011-09-25T06:49:35Z</time>
      </trkpt>
      <trkpt lat="48.43443" lon="2.71405">
        <ele>110.064</ele>
        <time>2011-09-25T06:49:43Z</time>
      </trkpt>
      <trkpt lat="48.43433" lon="2.71397">
        <ele>112.468</ele>
        <time>2011-09-25T06:49:47Z</time>
      </trkpt>
      <trkpt lat="48.43433" lon="2.71386">
        <ele>112.391</ele>
        <time>2011-09-25T06:49:51Z</time>
      </trkpt>
      <trkpt lat="48.4343" lon="2.71354">
        <ele>113.356</ele>
        <time>2011-09-25T06:49:57Z</time>
      </trkpt>
      <trkpt lat="48.43436" lon="2.71327">
        <ele>116.136</ele>
        <time>2011-09-25T06:50:02Z</time>
      </trkpt>
      <trkpt lat="48.43437" lon="2.71275">
        <ele>116.919</ele>
        <time>2011-09-25T06:50:11Z</time>
      </trkpt>
      <trkpt lat="48.43441" lon="2.71222">
        <ele>117.451</ele>
        <time>2011-09-25T06:50:19Z</time>
      </trkpt>
      <trkpt lat="48.43442" lon="2.71161">
        <ele>120.886</ele>
        <time>2011-09-25T06:50:27Z</time>
      </trkpt>
      <trkpt lat="48.4345" lon="2.71116">
        <ele>120.635</ele>
        <time>2011-09-25T06:50:33Z</time>
      </trkpt>
      <trkpt lat="48.43454" lon="2.71078">
        <ele>123.004</ele>
        <time>2011-09-25T06:50:39Z</time>
      </trkpt>
      <trkpt lat="48.43476" lon="2.71041">
        <ele>123.087</ele>
        <time>2011-09-25T06:50:48Z</time>
      </trkpt>
      <trkpt lat="48.43478" lon="2.71036">
        <ele>124.256</ele>
        <time>2011-09-25T06:50:58Z</time>
      </trkpt>
      <trkpt lat="48.43482" lon="2.71037">
        <ele>123.772</ele>
        <time>2011-09-25T06:51:01Z</time>
      </trkpt>
      <trkpt lat="48.43492" lon="2.71052">
        <ele>121.764</ele>
        <time>2011-09-25T06:51:06Z</time>
      </trkpt>
      <trkpt lat="48.43521" lon="2.71076">
        <ele>119.574</ele>
        <time>2011-09-25T06:51:18Z</time>
      </trkpt>
      <trkpt lat="48.43547" lon="2.71073">
        <ele>121.885</ele>
        <time>2011-09-25T06:51:27Z</time>
      </trkpt>
      <trkpt lat="48.43577" lon="2.71054">
        <ele>129.573</ele>
        <time>2011-09-25T06:51:38Z</time>
      </trkpt>
      <trkpt lat="48.43608" lon="2.71005">
        <ele>132.209</ele>
        <time>2011-09-25T06:51:50Z</time>
      </trkpt>
      <trkpt lat="48.43615" lon="2.70992">
        <ele>133.52</ele>
        <time>2011-09-25T06:51:54Z</time>
      </trkpt>
      <trkpt lat="48.43632" lon="2.70955">
        <ele>139.514</ele>
        <time>2011-09-25T06:52:05Z</time>
      </trkpt>
      <trkpt lat="48.43663" lon="2.70909">
        <ele>139.485</ele>
        <time>2011-09-25T06:52:16Z</time>
      </trkpt>
      <trkpt lat="48.43681" lon="2.70875">
        <ele>138.186</ele>
        <time>2011-09-25T06:52:26Z</time>
      </trkpt>
      <trkpt lat="48.43687" lon="2.70864">
        <ele>138.948</ele>
        <time>2011-09-25T06:52:30Z</time>
      </trkpt>
      <trkpt lat="48.43672" lon="2.70859">
        <ele>139.992</ele>
        <time>2011-09-25T06:52:40Z</time>
      </trkpt>
      <trkpt lat="48.43656" lon="2.70864">
        <ele>141.449</ele>
        <time>2011-09-25T06:52:45Z</time>
      </trkpt>
      <trkpt lat="48.43643" lon="2.70867">
        <ele>141.26</ele>
        <time>2011-09-25T06:52:50Z</time>
      </trkpt>
      <trkpt lat="48.43634" lon="2.70874">
        <ele>141.891</ele>
        <time>2011-09-25T06:52:54Z</time>
      </trkpt>
      <trkpt lat="48.43628" lon="2.70871">
        <ele>140.51</ele>
        <time>2011-09-25T06:52:59Z</time>
      </trkpt>
      <trkpt lat="48.43614" lon="2.70855">
        <ele>139.429</ele>
        <time>2011-09-25T06:53:10Z</time>
      </trkpt>
      <trkpt lat="48.43611" lon="2.70858">
        <ele>139.735</ele>
        <time>2011-09-25T06:53:22Z</time>
      </trkpt>
      <trkpt lat="48.43605" lon="2.70869">
        <ele>137.957</ele>
        <time>2011-09-25T06:53:27Z</time>
      </trkpt>
      <trkpt lat="48.436" lon="2.70881">
        <ele>135.8</ele>
        <time>2011-09-25T06:53:31Z</time>
      </trkpt>
      <trkpt lat="48.43595" lon="2.70889">
        <ele>135.228</ele>
        <time>2011-09-25T06:53:34Z</time>
      </trkpt>
      <trkpt lat="48.43596" lon="2.70903">
        <ele>135.803</ele>
        <time>2011-09-25T06:53:38Z</time>
      </trkpt>
      <trkpt lat="48.43594" lon="2.70916">
        <ele>135.066</ele>
        <time>2011-09-25T06:53:42Z</time>
      </trkpt>
      <trkpt lat="48.43583" lon="2.7094">
        <ele>134.503</ele>
        <time>2011-09-25T06:53:51Z</time>
      </trkpt>
      <trkpt lat="48.4358" lon="2.70952">
        <ele>135.163</ele>
        <time>2011-09-25T06:53:56Z</time>
      </trkpt>
      <trkpt lat="48.43578" lon="2.70963">
        <ele>135.796</ele>
        <time>2011-09-25T06:54:01Z</time>
      </trkpt>
      <trkpt lat="48.4358" lon="2.70979">
        <ele>136.147</ele>
        <time>2011-09-25T06:54:07Z</time>
      </trkpt>
      <trkpt lat="48.43582" lon="2.70984">
        <ele>135.425</ele>
        <time>2011-09-25T06:54:11Z</time>
      </trkpt>
      <trkpt lat="48.43582" lon="2.70997">
        <ele>133.289</ele>
        <time>2011-09-25T06:54:19Z</time>
      </trkpt>
      <trkpt lat="48.43578" lon="2.71012">
        <ele>131.238</ele>
        <time>2011-09-25T06:54:27Z</time>
      </trkpt>
      <trkpt lat="48.43577" lon="2.71013">
        <ele>131.073</ele>
        <time>2011-09-25T06:55:17Z</time>
      </trkpt>
      <trkpt lat="48.4358" lon="2.71002">
        <ele>130.53</ele>
        <time>2011-09-25T06:55:30Z</time>
      </trkpt>
      <trkpt lat="48.43584" lon="2.70996">
        <ele>131.12</ele>
        <time>2011-09-25T06:55:50Z</time>
      </trkpt>
      <trkpt lat="48.4358" lon="2.70988">
        <ele>133.984</ele>
        <time>2011-09-25T06:56:33Z</time>
      </trkpt>
      <trkpt lat="48.4358" lon="2.70988">
        <ele>134.831</ele>
        <time>2011-09-25T06:56:52Z</time>
      </trkpt>
      <trkpt lat="48.43582" lon="2.70991">
        <ele>134.218</ele>
        <time>2011-09-25T06:56:57Z</time>
      </trkpt>
      <trkpt lat="48.43585" lon="2.70991">
        <ele>134.02</ele>
        <time>2011-09-25T06:57:00Z</time>
      </trkpt>
      <trkpt lat="48.43586" lon="2.70996">
        <ele>133.215</ele>
        <time>2011-09-25T06:57:03Z</time>
      </trkpt>
      <trkpt lat="48.43579" lon="2.71016">
        <ele>129.673</ele>
        <time>2011-09-25T06:57:12Z</time>
      </trkpt>
      <trkpt lat="48.43564" lon="2.71018">
        <ele>126.151</ele>
        <time>2011-09-25T06:57:20Z</time>
      </trkpt>
      <trkpt lat="48.43558" lon="2.71023">
        <ele>124.557</ele>
        <time>2011-09-25T06:57:23Z</time>
      </trkpt>
      <trkpt lat="48.43552" lon="2.71025">
        <ele>121.044</ele>
        <time>2011-09-25T06:57:26Z</time>
      </trkpt>
      <trkpt lat="48.43545" lon="2.71021">
        <ele>118.481</ele>
        <time>2011-09-25T06:57:30Z</time>
      </trkpt>
      <trkpt lat="48.43538" lon="2.71009">
        <ele>117.37</ele>
        <time>2011-09-25T06:57:33Z</time>
      </trkpt>
      <trkpt lat="48.43523" lon="2.71011">
        <ele>114.147</ele>
        <time>2011-09-25T06:57:38Z</time>
      </trkpt>
      <trkpt lat="48.43515" lon="2.71022">
        <ele>112.769</ele>
        <time>2011-09-25T06:57:40Z</time>
      </trkpt>
      <trkpt lat="48.43505" lon="2.71031">
        <ele>111.48</ele>
        <time>2011-09-25T06:57:42Z</time>
      </trkpt>
      <trkpt lat="48.43486" lon="2.7104">
        <ele>110.173</ele>
        <time>2011-09-25T06:57:46Z</time>
      </trkpt>
      <trkpt lat="48.43479" lon="2.71033">
        <ele>109.454</ele>
        <time>2011-09-25T06:57:50Z</time>
      </trkpt>
      <trkpt lat="48.4348" lon="2.71007">
        <ele>111.604</ele>
        <time>2011-09-25T06:58:00Z</time>
      </trkpt>
      <trkpt lat="48.43476" lon="2.70956">
        <ele>113.297</ele>
        <time>2011-09-25T06:58:11Z</time>
      </trkpt>
      <trkpt lat="48.43471" lon="2.70913">
        <ele>112.979</ele>
        <time>2011-09-25T06:58:21Z</time>
      </trkpt>
      <trkpt lat="48.43459" lon="2.70864">
        <ele>116.608</ele>
        <time>2011-09-25T06:58:31Z</time>
      </trkpt>
      <trkpt lat="48.43454" lon="2.70811">
        <ele>123.857</ele>
        <time>2011-09-25T06:58:42Z</time>
      </trkpt>
      <trkpt lat="48.43451" lon="2.70757">
        <ele>122.958</ele>
        <time>2011-09-25T06:58:52Z</time>
      </trkpt>
      <trkpt lat="48.4344" lon="2.70722">
        <ele>126.613</ele>
        <time>2011-09-25T06:59:03Z</time>
      </trkpt>
      <trkpt lat="48.43431" lon="2.70697">
        <ele>131.439</ele>
        <time>2011-09-25T06:59:10Z</time>
      </trkpt>
      <trkpt lat="48.43413" lon="2.70645">
        <ele>139.454</ele>
        <time>2011-09-25T06:59:23Z</time>
      </trkpt>
      <trkpt lat="48.43387" lon="2.70596">
        <ele>142.568</ele>
        <time>2011-09-25T06:59:37Z</time>
      </trkpt>
      <trkpt lat="48.43353" lon="2.70602">
        <ele>142.395</ele>
        <time>2011-09-25T06:59:48Z</time>
      </trkpt>
      <trkpt lat="48.43321" lon="2.70616">
        <ele>140.513</ele>
        <time>2011-09-25T06:59:57Z</time>
      </trkpt>
      <trkpt lat="48.43307" lon="2.70609">
        <ele>139.823</ele>
        <time>2011-09-25T07:00:02Z</time>
      </trkpt>
      <trkpt lat="48.43295" lon="2.70609">
        <ele>139.761</ele>
        <time>2011-09-25T07:00:06Z</time>
      </trkpt>
      <trkpt lat="48.43271" lon="2.70612">
        <ele>138.437</ele>
        <time>2011-09-25T07:00:12Z</time>
      </trkpt>
      <trkpt lat="48.43242" lon="2.70615">
        <ele>136.993</ele>
        <time>2011-09-25T07:00:23Z</time>
      </trkpt>
      <trkpt lat="48.4324" lon="2.7062">
        <ele>136.73</ele>
        <time>2011-09-25T07:01:29Z</time>
      </trkpt>
      <trkpt lat="48.43223" lon="2.70643">
        <ele>136.857</ele>
        <time>2011-09-25T07:01:35Z</time>
      </trkpt>
      <trkpt lat="48.43207" lon="2.70647">
        <ele>136.392</ele>
        <time>2011-09-25T07:01:39Z</time>
      </trkpt>
      <trkpt lat="48.4318" lon="2.70657">
        <ele>136.563</ele>
        <time>2011-09-25T07:01:44Z</time>
      </trkpt>
      <trkpt lat="48.43147" lon="2.70686">
        <ele>134.44</ele>
        <time>2011-09-25T07:01:52Z</time>
      </trkpt>
      <trkpt lat="48.43126" lon="2.70697">
        <ele>134.999</ele>
        <time>2011-09-25T07:01:56Z</time>
      </trkpt>
      <trkpt lat="48.43113" lon="2.70694">
        <ele>135.292</ele>
        <time>2011-09-25T07:01:59Z</time>
      </trkpt>
      <trkpt lat="48.43094" lon="2.70688">
        <ele>134.296</ele>
        <time>2011-09-25T07:02:03Z</time>
      </trkpt>
      <trkpt lat="48.43073" lon="2.70676">
        <ele>136.02</ele>
        <time>2011-09-25T07:02:07Z</time>
      </trkpt>
      <trkpt lat="48.43055" lon="2.70669">
        <ele>136.001</ele>
        <time>2011-09-25T07:02:10Z</time>
      </trkpt>
      <trkpt lat="48.43023" lon="2.70691">
        <ele>134.492</ele>
        <time>2011-09-25T07:02:16Z</time>
      </trkpt>
      <trkpt lat="48.42977" lon="2.70734">
        <ele>136.733</ele>
        <time>2011-09-25T07:02:24Z</time>
      </trkpt>
      <trkpt lat="48.42947" lon="2.7075">
        <ele>139.423</ele>
        <time>2011-09-25T07:02:29Z</time>
      </trkpt>
      <trkpt lat="48.42927" lon="2.70758">
        <ele>140.433</ele>
        <time>2011-09-25T07:02:33Z</time>
      </trkpt>
      <trkpt lat="48.429" lon="2.70753">
        <ele>141.808</ele>
        <time>2011-09-25T07:02:38Z</time>
      </trkpt>
      <trkpt lat="48.42868" lon="2.7076">
        <ele>141.022</ele>
        <time>2011-09-25T07:02:43Z</time>
      </trkpt>
      <trkpt lat="48.42836" lon="2.70763">
        <ele>141.865</ele>
        <time>2011-09-25T07:02:49Z</time>
      </trkpt>
      <trkpt lat="48.42795" lon="2.70767">
        <ele>142.179</ele>
        <time>2011-09-25T07:02:57Z</time>
      </trkpt>
      <trkpt lat="48.42786" lon="2.70768">
        <ele>141.947</ele>
        <time>2011-09-25T07:02:59Z</time>
      </trkpt>
      <trkpt lat="48.42761" lon="2.70762">
        <ele>141.566</ele>
        <time>2011-09-25T07:03:05Z</time>
      </trkpt>
      <trkpt lat="48.42728" lon="2.70754">
        <ele>141.526</ele>
        <time>2011-09-25T07:03:13Z</time>
      </trkpt>
      <trkpt lat="48.42673" lon="2.70775">
        <ele>139.914</ele>
        <time>2011-09-25T07:03:24Z</time>
      </trkpt>
      <trkpt lat="48.4263" lon="2.70787">
        <ele>139.444</ele>
        <time>2011-09-25T07:03:32Z</time>
      </trkpt>
      <trkpt lat="48.42593" lon="2.70799">
        <ele>139.711</ele>
        <time>2011-09-25T07:03:39Z</time>
      </trkpt>
      <trkpt lat="48.4258" lon="2.70813">
        <ele>140.863</ele>
        <time>2011-09-25T07:03:43Z</time>
      </trkpt>
      <trkpt lat="48.42552" lon="2.70873">
        <ele>138.065</ele>
        <time>2011-09-25T07:03:52Z</time>
      </trkpt>
      <trkpt lat="48.42542" lon="2.70882">
        <ele>138.793</ele>
        <time>2011-09-25T07:03:54Z</time>
      </trkpt>
      <trkpt lat="48.4252" lon="2.70885">
        <ele>138.977</ele>
        <time>2011-09-25T07:03:59Z</time>
      </trkpt>
      <trkpt lat="48.42442" lon="2.70824">
        <ele>140.139</ele>
        <time>2011-09-25T07:04:22Z</time>
      </trkpt>
      <trkpt lat="48.42425" lon="2.70813">
        <ele>139.63</ele>
        <time>2011-09-25T07:04:27Z</time>
      </trkpt>
      <trkpt lat="48.42421" lon="2.70823">
        <ele>138.033</ele>
        <time>2011-09-25T07:04:31Z</time>
      </trkpt>
      <trkpt lat="48.42416" lon="2.70856">
        <ele>136.789</ele>
        <time>2011-09-25T07:04:40Z</time>
      </trkpt>
      <trkpt lat="48.42414" lon="2.70858">
        <ele>136.797</ele>
        <time>2011-09-25T07:04:41Z</time>
      </trkpt>
      <trkpt lat="48.4241" lon="2.70861">
        <ele>136.978</ele>
        <time>2011-09-25T07:04:43Z</time>
      </trkpt>
      <trkpt lat="48.42408" lon="2.7086">
        <ele>136.599</ele>
        <time>2011-09-25T07:04:45Z</time>
      </trkpt>
      <trkpt lat="48.42371" lon="2.70889">
        <ele>140.59</ele>
        <time>2011-09-25T07:04:55Z</time>
      </trkpt>
      <trkpt lat="48.42358" lon="2.70898">
        <ele>140.445</ele>
        <time>2011-09-25T07:04:57Z</time>
      </trkpt>
      <trkpt lat="48.42327" lon="2.70907">
        <ele>140.345</ele>
        <time>2011-09-25T07:05:03Z</time>
      </trkpt>
      <trkpt lat="48.4231" lon="2.70901">
        <ele>139.663</ele>
        <time>2011-09-25T07:05:07Z</time>
      </trkpt>
      <trkpt lat="48.42273" lon="2.70861">
        <ele>140.729</ele>
        <time>2011-09-25T07:05:16Z</time>
      </trkpt>
      <trkpt lat="48.4225" lon="2.70852">
        <ele>140.942</ele>
        <time>2011-09-25T07:05:22Z</time>
      </trkpt>
      <trkpt lat="48.42226" lon="2.7082">
        <ele>141.388</ele>
        <time>2011-09-25T07:05:29Z</time>
      </trkpt>
      <trkpt lat="48.42221" lon="2.70784">
        <ele>141.033</ele>
        <time>2011-09-25T07:05:36Z</time>
      </trkpt>
      <trkpt lat="48.42216" lon="2.70767">
        <ele>139.917</ele>
        <time>2011-09-25T07:05:39Z</time>
      </trkpt>
      <trkpt lat="48.42211" lon="2.70734">
        <ele>138.742</ele>
        <time>2011-09-25T07:05:43Z</time>
      </trkpt>
      <trkpt lat="48.42208" lon="2.70705">
        <ele>139.125</ele>
        <time>2011-09-25T07:05:47Z</time>
      </trkpt>
      <trkpt lat="48.42187" lon="2.70688">
        <ele>137.613</ele>
        <time>2011-09-25T07:05:53Z</time>
      </trkpt>
      <trkpt lat="48.42171" lon="2.70678">
        <ele>138.4</ele>
        <time>2011-09-25T07:05:57Z</time>
      </trkpt>
      <trkpt lat="48.42168" lon="2.70647">
        <ele>138.937</ele>
        <time>2011-09-25T07:06:03Z</time>
      </trkpt>
      <trkpt lat="48.42158" lon="2.70595">
        <ele>137.154</ele>
        <time>2011-09-25T07:06:14Z</time>
      </trkpt>
      <trkpt lat="48.42157" lon="2.70581">
        <ele>136.762</ele>
        <time>2011-09-25T07:06:17Z</time>
      </trkpt>
      <trkpt lat="48.42174" lon="2.70541">
        <ele>137.938</ele>
        <time>2011-09-25T07:06:26Z</time>
      </trkpt>
      <trkpt lat="48.42181" lon="2.70515">
        <ele>139.139</ele>
        <time>2011-09-25T07:06:34Z</time>
      </trkpt>
      <trkpt lat="48.42217" lon="2.70503">
        <ele>139.726</ele>
        <time>2011-09-25T07:06:45Z</time>
      </trkpt>
      <trkpt lat="48.42224" lon="2.70501">
        <ele>139.184</ele>
        <time>2011-09-25T07:06:47Z</time>
      </trkpt>
      <trkpt lat="48.42267" lon="2.70489">
        <ele>142.708</ele>
        <time>2011-09-25T07:06:57Z</time>
      </trkpt>
      <trkpt lat="48.42272" lon="2.70488">
        <ele>142.241</ele>
        <time>2011-09-25T07:06:58Z</time>
      </trkpt>
      <trkpt lat="48.42288" lon="2.70484">
        <ele>140.686</ele>
        <time>2011-09-25T07:07:01Z</time>
      </trkpt>
      <trkpt lat="48.42335" lon="2.70475">
        <ele>137.168</ele>
        <time>2011-09-25T07:07:09Z</time>
      </trkpt>
      <trkpt lat="48.42357" lon="2.70448">
        <ele>138.112</ele>
        <time>2011-09-25T07:07:14Z</time>
      </trkpt>
      <trkpt lat="48.42374" lon="2.70344">
        <ele>138.913</ele>
        <time>2011-09-25T07:07:28Z</time>
      </trkpt>
      <trkpt lat="48.42374" lon="2.70338">
        <ele>137.798</ele>
        <time>2011-09-25T07:07:29Z</time>
      </trkpt>
      <trkpt lat="48.42364" lon="2.70339">
        <ele>136.794</ele>
        <time>2011-09-25T07:07:34Z</time>
      </trkpt>
      <trkpt lat="48.4234" lon="2.70357">
        <ele>132.101</ele>
        <time>2011-09-25T07:07:40Z</time>
      </trkpt>
      <trkpt lat="48.4233" lon="2.70374">
        <ele>129.439</ele>
        <time>2011-09-25T07:07:44Z</time>
      </trkpt>
      <trkpt lat="48.42296" lon="2.70389">
        <ele>129.412</ele>
        <time>2011-09-25T07:07:53Z</time>
      </trkpt>
      <trkpt lat="48.42295" lon="2.70385">
        <ele>132.225</ele>
        <time>2011-09-25T07:07:56Z</time>
      </trkpt>
      <trkpt lat="48.42295" lon="2.70381">
        <ele>131.295</ele>
        <time>2011-09-25T07:07:58Z</time>
      </trkpt>
      <trkpt lat="48.42288" lon="2.70375">
        <ele>131.579</ele>
        <time>2011-09-25T07:08:09Z</time>
      </trkpt>
      <trkpt lat="48.42287" lon="2.70374">
        <ele>131.825</ele>
        <time>2011-09-25T07:08:10Z</time>
      </trkpt>
      <trkpt lat="48.42286" lon="2.7037">
        <ele>132.601</ele>
        <time>2011-09-25T07:08:12Z</time>
      </trkpt>
      <trkpt lat="48.42279" lon="2.70365">
        <ele>133.079</ele>
        <time>2011-09-25T07:08:15Z</time>
      </trkpt>
      <trkpt lat="48.4228" lon="2.70338">
        <ele>134.696</ele>
        <time>2011-09-25T07:08:21Z</time>
      </trkpt>
      <trkpt lat="48.42278" lon="2.70319">
        <ele>135.349</ele>
        <time>2011-09-25T07:08:25Z</time>
      </trkpt>
      <trkpt lat="48.42275" lon="2.70307">
        <ele>135.706</ele>
        <time>2011-09-25T07:08:28Z</time>
      </trkpt>
      <trkpt lat="48.42272" lon="2.7029">
        <ele>136.426</ele>
        <time>2011-09-25T07:08:32Z</time>
      </trkpt>
      <trkpt lat="48.42244" lon="2.70254">
        <ele>135.66</ele>
        <time>2011-09-25T07:08:43Z</time>
      </trkpt>
      <trkpt lat="48.42242" lon="2.70248">
        <ele>134.69</ele>
        <time>2011-09-25T07:08:44Z</time>
      </trkpt>
      <trkpt lat="48.42237" lon="2.70229">
        <ele>135.735</ele>
        <time>2011-09-25T07:08:49Z</time>
      </trkpt>
      <trkpt lat="48.42231" lon="2.70226">
        <ele>135.936</ele>
        <time>2011-09-25T07:09:00Z</time>
      </trkpt>
      <trkpt lat="48.42228" lon="2.70222">
        <ele>135.261</ele>
        <time>2011-09-25T07:09:28Z</time>
      </trkpt>
      <trkpt lat="48.42229" lon="2.70221">
        <ele>135.235</ele>
        <time>2011-09-25T07:09:29Z</time>
      </trkpt>
      <trkpt lat="48.42227" lon="2.70213">
        <ele>134.967</ele>
        <time>2011-09-25T07:09:34Z</time>
      </trkpt>
      <trkpt lat="48.42221" lon="2.70209">
        <ele>134.278</ele>
        <time>2011-09-25T07:09:38Z</time>
      </trkpt>
      <trkpt lat="48.42218" lon="2.70204">
        <ele>131.6</ele>
        <time>2011-09-25T07:09:41Z</time>
      </trkpt>
      <trkpt lat="48.42213" lon="2.70199">
        <ele>130.793</ele>
        <time>2011-09-25T07:09:54Z</time>
      </trkpt>
      <trkpt lat="48.42213" lon="2.70199">
        <ele>130.915</ele>
        <time>2011-09-25T07:10:53Z</time>
      </trkpt>
      <trkpt lat="48.42216" lon="2.70189">
        <ele>130.51</ele>
        <time>2011-09-25T07:10:58Z</time>
      </trkpt>
      <trkpt lat="48.42219" lon="2.70181">
        <ele>129.462</ele>
        <time>2011-09-25T07:11:00Z</time>
      </trkpt>
      <trkpt lat="48.42221" lon="2.70165">
        <ele>128.186</ele>
        <time>2011-09-25T07:11:03Z</time>
      </trkpt>
      <trkpt lat="48.42218" lon="2.70143">
        <ele>126.945</ele>
        <time>2011-09-25T07:11:06Z</time>
      </trkpt>
      <trkpt lat="48.42209" lon="2.70119">
        <ele>124.982</ele>
        <time>2011-09-25T07:11:10Z</time>
      </trkpt>
      <trkpt lat="48.42185" lon="2.7009">
        <ele>123.046</ele>
        <time>2011-09-25T07:11:16Z</time>
      </trkpt>
      <trkpt lat="48.4217" lon="2.70069">
        <ele>117.624</ele>
        <time>2011-09-25T07:11:21Z</time>
      </trkpt>
      <trkpt lat="48.42173" lon="2.70061">
        <ele>117.046</ele>
        <time>2011-09-25T07:11:24Z</time>
      </trkpt>
      <trkpt lat="48.42167" lon="2.70039">
        <ele>112.779</ele>
        <time>2011-09-25T07:11:29Z</time>
      </trkpt>
      <trkpt lat="48.42137" lon="2.70003">
        <ele>109.626</ele>
        <time>2011-09-25T07:11:37Z</time>
      </trkpt>
      <trkpt lat="48.42132" lon="2.70001">
        <ele>108.892</ele>
        <time>2011-09-25T07:11:38Z</time>
      </trkpt>
      <trkpt lat="48.42106" lon="2.70013">
        <ele>106.207</ele>
        <time>2011-09-25T07:11:47Z</time>
      </trkpt>
      <trkpt lat="48.42106" lon="2.70015">
        <ele>105.032</ele>
        <time>2011-09-25T07:12:13Z</time>
      </trkpt>
      <trkpt lat="48.42115" lon="2.70019">
        <ele>105.17</ele>
        <time>2011-09-25T07:12:18Z</time>
      </trkpt>
      <trkpt lat="48.42144" lon="2.70046">
        <ele>104.51</ele>
        <time>2011-09-25T07:12:32Z</time>
      </trkpt>
      <trkpt lat="48.4215" lon="2.70053">
        <ele>105.959</ele>
        <time>2011-09-25T07:12:36Z</time>
      </trkpt>
      <trkpt lat="48.4215" lon="2.70069">
        <ele>108.436</ele>
        <time>2011-09-25T07:12:41Z</time>
      </trkpt>
      <trkpt lat="48.4215" lon="2.70088">
        <ele>109.875</ele>
        <time>2011-09-25T07:12:47Z</time>
      </trkpt>
      <trkpt lat="48.4215" lon="2.7012">
        <ele>109.726</ele>
        <time>2011-09-25T07:12:57Z</time>
      </trkpt>
      <trkpt lat="48.42149" lon="2.70127">
        <ele>109.935</ele>
        <time>2011-09-25T07:12:59Z</time>
      </trkpt>
      <trkpt lat="48.42144" lon="2.70151">
        <ele>112.068</ele>
        <time>2011-09-25T07:13:06Z</time>
      </trkpt>
      <trkpt lat="48.42146" lon="2.7017">
        <ele>114.82</ele>
        <time>2011-09-25T07:13:13Z</time>
      </trkpt>
      <trkpt lat="48.42154" lon="2.7017">
        <ele>118.657</ele>
        <time>2011-09-25T07:13:18Z</time>
      </trkpt>
      <trkpt lat="48.42156" lon="2.70186">
        <ele>121.592</ele>
        <time>2011-09-25T07:13:25Z</time>
      </trkpt>
      <trkpt lat="48.42158" lon="2.7019">
        <ele>121.782</ele>
        <time>2011-09-25T07:13:27Z</time>
      </trkpt>
      <trkpt lat="48.4216" lon="2.70187">
        <ele>121.506</ele>
        <time>2011-09-25T07:13:29Z</time>
      </trkpt>
      <trkpt lat="48.42163" lon="2.70189">
        <ele>122.362</ele>
        <time>2011-09-25T07:13:32Z</time>
      </trkpt>
      <trkpt lat="48.42166" lon="2.70206">
        <ele>123.41</ele>
        <time>2011-09-25T07:13:45Z</time>
      </trkpt>
      <trkpt lat="48.42169" lon="2.70208">
        <ele>123.39</ele>
        <time>2011-09-25T07:13:50Z</time>
      </trkpt>
      <trkpt lat="48.42181" lon="2.70211">
        <ele>129.684</ele>
        <time>2011-09-25T07:14:05Z</time>
      </trkpt>
      <trkpt lat="48.42182" lon="2.70216">
        <ele>130.747</ele>
        <time>2011-09-25T07:14:16Z</time>
      </trkpt>
      <trkpt lat="48.42185" lon="2.70235">
        <ele>131.369</ele>
        <time>2011-09-25T07:14:29Z</time>
      </trkpt>
      <trkpt lat="48.42191" lon="2.70232">
        <ele>129.854</ele>
        <time>2011-09-25T07:14:40Z</time>
      </trkpt>
      <trkpt lat="48.4219" lon="2.7025">
        <ele>133.188</ele>
        <time>2011-09-25T07:14:54Z</time>
      </trkpt>
      <trkpt lat="48.42188" lon="2.70259">
        <ele>134.227</ele>
        <time>2011-09-25T07:15:05Z</time>
      </trkpt>
      <trkpt lat="48.42189" lon="2.70265">
        <ele>133.977</ele>
        <time>2011-09-25T07:15:08Z</time>
      </trkpt>
      <trkpt lat="48.42193" lon="2.70273">
        <ele>133.177</ele>
        <time>2011-09-25T07:15:11Z</time>
      </trkpt>
      <trkpt lat="48.42202" lon="2.70277">
        <ele>132.383</ele>
        <time>2011-09-25T07:15:17Z</time>
      </trkpt>
      <trkpt lat="48.42219" lon="2.70304">
        <ele>132.732</ele>
        <time>2011-09-25T07:15:29Z</time>
      </trkpt>
      <trkpt lat="48.42224" lon="2.70343">
        <ele>132.508</ele>
        <time>2011-09-25T07:15:42Z</time>
      </trkpt>
      <trkpt lat="48.42228" lon="2.7035">
        <ele>132.012</ele>
        <time>2011-09-25T07:15:45Z</time>
      </trkpt>
      <trkpt lat="48.42228" lon="2.70356">
        <ele>131.54</ele>
        <time>2011-09-25T07:15:47Z</time>
      </trkpt>
      <trkpt lat="48.42226" lon="2.70368">
        <ele>131.342</ele>
        <time>2011-09-25T07:15:51Z</time>
      </trkpt>
      <trkpt lat="48.42221" lon="2.70399">
        <ele>135.699</ele>
        <time>2011-09-25T07:16:01Z</time>
      </trkpt>
      <trkpt lat="48.4223" lon="2.70414">
        <ele>134.028</ele>
        <time>2011-09-25T07:16:10Z</time>
      </trkpt>
      <trkpt lat="48.42228" lon="2.70415">
        <ele>134.686</ele>
        <time>2011-09-25T07:16:13Z</time>
      </trkpt>
      <trkpt lat="48.42221" lon="2.70415">
        <ele>133.982</ele>
        <time>2011-09-25T07:16:16Z</time>
      </trkpt>
      <trkpt lat="48.42213" lon="2.70424">
        <ele>134.058</ele>
        <time>2011-09-25T07:16:21Z</time>
      </trkpt>
      <trkpt lat="48.42209" lon="2.70434">
        <ele>134.277</ele>
        <time>2011-09-25T07:16:25Z</time>
      </trkpt>
      <trkpt lat="48.422" lon="2.70447">
        <ele>133.934</ele>
        <time>2011-09-25T07:16:30Z</time>
      </trkpt>
      <trkpt lat="48.422" lon="2.70479">
        <ele>132.231</ele>
        <time>2011-09-25T07:16:39Z</time>
      </trkpt>
      <trkpt lat="48.42204" lon="2.70489">
        <ele>131.044</ele>
        <time>2011-09-25T07:16:42Z</time>
      </trkpt>
      <trkpt lat="48.4221" lon="2.70496">
        <ele>131.14</ele>
        <time>2011-09-25T07:16:45Z</time>
      </trkpt>
      <trkpt lat="48.42228" lon="2.70494">
        <ele>131.159</ele>
        <time>2011-09-25T07:16:51Z</time>
      </trkpt>
      <trkpt lat="48.4226" lon="2.70492">
        <ele>130.607</ele>
        <time>2011-09-25T07:17:02Z</time>
      </trkpt>
      <trkpt lat="48.42274" lon="2.70487">
        <ele>127.649</ele>
        <time>2011-09-25T07:17:05Z</time>
      </trkpt>
      <trkpt lat="48.42307" lon="2.70484">
        <ele>123.042</ele>
        <time>2011-09-25T07:17:11Z</time>
      </trkpt>
      <trkpt lat="48.42317" lon="2.70485">
        <ele>121.922</ele>
        <time>2011-09-25T07:17:13Z</time>
      </trkpt>
      <trkpt lat="48.42346" lon="2.70454">
        <ele>121.353</ele>
        <time>2011-09-25T07:17:19Z</time>
      </trkpt>
      <trkpt lat="48.42352" lon="2.70438">
        <ele>123.857</ele>
        <time>2011-09-25T07:17:21Z</time>
      </trkpt>
      <trkpt lat="48.42368" lon="2.70367">
        <ele>126.709</ele>
        <time>2011-09-25T07:17:33Z</time>
      </trkpt>
      <trkpt lat="48.42373" lon="2.70336">
        <ele>126.149</ele>
        <time>2011-09-25T07:17:39Z</time>
      </trkpt>
      <trkpt lat="48.4237" lon="2.70334">
        <ele>126.103</ele>
        <time>2011-09-25T07:17:43Z</time>
      </trkpt>
      <trkpt lat="48.42362" lon="2.70341">
        <ele>125.105</ele>
        <time>2011-09-25T07:17:46Z</time>
      </trkpt>
      <trkpt lat="48.42355" lon="2.70348">
        <ele>125.958</ele>
        <time>2011-09-25T07:17:49Z</time>
      </trkpt>
      <trkpt lat="48.4235" lon="2.70351">
        <ele>126.208</ele>
        <time>2011-09-25T07:17:51Z</time>
      </trkpt>
      <trkpt lat="48.42331" lon="2.70351">
        <ele>125.684</ele>
        <time>2011-09-25T07:18:00Z</time>
      </trkpt>
      <trkpt lat="48.42327" lon="2.70345">
        <ele>125.342</ele>
        <time>2011-09-25T07:18:02Z</time>
      </trkpt>
      <trkpt lat="48.42326" lon="2.70333">
        <ele>127.117</ele>
        <time>2011-09-25T07:18:06Z</time>
      </trkpt>
      <trkpt lat="48.42322" lon="2.7031">
        <ele>126.993</ele>
        <time>2011-09-25T07:18:12Z</time>
      </trkpt>
      <trkpt lat="48.42317" lon="2.70302">
        <ele>126.579</ele>
        <time>2011-09-25T07:18:23Z</time>
      </trkpt>
      <trkpt lat="48.42318" lon="2.70277">
        <ele>127.145</ele>
        <time>2011-09-25T07:18:31Z</time>
      </trkpt>
      <trkpt lat="48.42322" lon="2.70271">
        <ele>130.273</ele>
        <time>2011-09-25T07:18:40Z</time>
      </trkpt>
      <trkpt lat="48.42325" lon="2.70232">
        <ele>134.365</ele>
        <time>2011-09-25T07:18:52Z</time>
      </trkpt>
      <trkpt lat="48.42328" lon="2.70224">
        <ele>135.557</ele>
        <time>2011-09-25T07:18:55Z</time>
      </trkpt>
      <trkpt lat="48.42324" lon="2.70208">
        <ele>137.355</ele>
        <time>2011-09-25T07:19:01Z</time>
      </trkpt>
      <trkpt lat="48.42313" lon="2.70187">
        <ele>134.728</ele>
        <time>2011-09-25T07:19:10Z</time>
      </trkpt>
      <trkpt lat="48.42318" lon="2.70177">
        <ele>133.926</ele>
        <time>2011-09-25T07:19:19Z</time>
      </trkpt>
      <trkpt lat="48.42322" lon="2.70174">
        <ele>133.665</ele>
        <time>2011-09-25T07:19:26Z</time>
      </trkpt>
      <trkpt lat="48.42324" lon="2.70174">
        <ele>133.784</ele>
        <time>2011-09-25T07:19:28Z</time>
      </trkpt>
      <trkpt lat="48.42331" lon="2.70166">
        <ele>133.551</ele>
        <time>2011-09-25T07:19:31Z</time>
      </trkpt>
      <trkpt lat="48.42338" lon="2.70144">
        <ele>133.965</ele>
        <time>2011-09-25T07:19:36Z</time>
      </trkpt>
      <trkpt lat="48.42337" lon="2.7012">
        <ele>133.547</ele>
        <time>2011-09-25T07:19:41Z</time>
      </trkpt>
      <trkpt lat="48.42336" lon="2.70116">
        <ele>134.006</ele>
        <time>2011-09-25T07:19:44Z</time>
      </trkpt>
      <trkpt lat="48.42336" lon="2.7011">
        <ele>132.998</ele>
        <time>2011-09-25T07:19:47Z</time>
      </trkpt>
      <trkpt lat="48.42346" lon="2.70072">
        <ele>130.895</ele>
        <time>2011-09-25T07:19:56Z</time>
      </trkpt>
      <trkpt lat="48.42342" lon="2.70057">
        <ele>130.676</ele>
        <time>2011-09-25T07:20:00Z</time>
      </trkpt>
      <trkpt lat="48.42331" lon="2.70056">
        <ele>130.872</ele>
        <time>2011-09-25T07:20:04Z</time>
      </trkpt>
      <trkpt lat="48.42325" lon="2.70056">
        <ele>131.172</ele>
        <time>2011-09-25T07:20:08Z</time>
      </trkpt>
      <trkpt lat="48.42318" lon="2.70057">
        <ele>130.974</ele>
        <time>2011-09-25T07:20:19Z</time>
      </trkpt>
      <trkpt lat="48.42317" lon="2.70056">
        <ele>130.5</ele>
        <time>2011-09-25T07:20:54Z</time>
      </trkpt>
      <trkpt lat="48.42304" lon="2.70067">
        <ele>130.436</ele>
        <time>2011-09-25T07:21:04Z</time>
      </trkpt>
      <trkpt lat="48.42301" lon="2.70069">
        <ele>129.459</ele>
        <time>2011-09-25T07:21:06Z</time>
      </trkpt>
      <trkpt lat="48.42295" lon="2.70069">
        <ele>128.823</ele>
        <time>2011-09-25T07:21:19Z</time>
      </trkpt>
      <trkpt lat="48.4229" lon="2.70062">
        <ele>129.592</ele>
        <time>2011-09-25T07:21:27Z</time>
      </trkpt>
      <trkpt lat="48.42292" lon="2.70041">
        <ele>130.712</ele>
        <time>2011-09-25T07:21:39Z</time>
      </trkpt>
      <trkpt lat="48.42294" lon="2.70038">
        <ele>130.405</ele>
        <time>2011-09-25T07:21:43Z</time>
      </trkpt>
      <trkpt lat="48.42298" lon="2.70026">
        <ele>133.972</ele>
        <time>2011-09-25T07:21:55Z</time>
      </trkpt>
      <trkpt lat="48.42305" lon="2.70019">
        <ele>136.886</ele>
        <time>2011-09-25T07:22:13Z</time>
      </trkpt>
      <trkpt lat="48.42306" lon="2.70018">
        <ele>136.779</ele>
        <time>2011-09-25T07:22:41Z</time>
      </trkpt>
      <trkpt lat="48.42319" lon="2.70003">
        <ele>137.092</ele>
        <time>2011-09-25T07:22:53Z</time>
      </trkpt>
      <trkpt lat="48.42325" lon="2.69995">
        <ele>138.562</ele>
        <time>2011-09-25T07:23:00Z</time>
      </trkpt>
      <trkpt lat="48.42332" lon="2.69988">
        <ele>137.046</ele>
        <time>2011-09-25T07:23:06Z</time>
      </trkpt>
      <trkpt lat="48.42332" lon="2.69968">
        <ele>135.588</ele>
        <time>2011-09-25T07:23:12Z</time>
      </trkpt>
      <trkpt lat="48.42327" lon="2.69964">
        <ele>135.988</ele>
        <time>2011-09-25T07:23:14Z</time>
      </trkpt>
      <trkpt lat="48.42317" lon="2.69962">
        <ele>135.898</ele>
        <time>2011-09-25T07:23:17Z</time>
      </trkpt>
      <trkpt lat="48.4231" lon="2.69954">
        <ele>136.548</ele>
        <time>2011-09-25T07:23:21Z</time>
      </trkpt>
      <trkpt lat="48.42292" lon="2.6995">
        <ele>135.525</ele>
        <time>2011-09-25T07:23:27Z</time>
      </trkpt>
      <trkpt lat="48.42279" lon="2.69945">
        <ele>134.613</ele>
        <time>2011-09-25T07:23:32Z</time>
      </trkpt>
      <trkpt lat="48.42264" lon="2.69926">
        <ele>133.398</ele>
        <time>2011-09-25T07:23:43Z</time>
      </trkpt>
      <trkpt lat="48.42263" lon="2.69925">
        <ele>132.509</ele>
        <time>2011-09-25T07:23:44Z</time>
      </trkpt>
      <trkpt lat="48.42272" lon="2.69919">
        <ele>129.611</ele>
        <time>2011-09-25T07:24:01Z</time>
      </trkpt>
      <trkpt lat="48.42274" lon="2.69915">
        <ele>131.433</ele>
        <time>2011-09-25T07:24:05Z</time>
      </trkpt>
      <trkpt lat="48.42283" lon="2.69912">
        <ele>130.243</ele>
        <time>2011-09-25T07:24:10Z</time>
      </trkpt>
      <trkpt lat="48.42284" lon="2.69905">
        <ele>130.43</ele>
        <time>2011-09-25T07:24:14Z</time>
      </trkpt>
      <trkpt lat="48.42288" lon="2.69894">
        <ele>131.724</ele>
        <time>2011-09-25T07:24:26Z</time>
      </trkpt>
      <trkpt lat="48.42283" lon="2.69893">
        <ele>132.525</ele>
        <time>2011-09-25T07:24:37Z</time>
      </trkpt>
      <trkpt lat="48.42278" lon="2.69875">
        <ele>131.728</ele>
        <time>2011-09-25T07:24:50Z</time>
      </trkpt>
      <trkpt lat="48.42277" lon="2.69868">
        <ele>132.689</ele>
        <time>2011-09-25T07:24:54Z</time>
      </trkpt>
      <trkpt lat="48.42277" lon="2.69859">
        <ele>134.463</ele>
        <time>2011-09-25T07:25:09Z</time>
      </trkpt>
      <trkpt lat="48.42284" lon="2.69857">
        <ele>136.467</ele>
        <time>2011-09-25T07:25:24Z</time>
      </trkpt>
      <trkpt lat="48.42287" lon="2.69855">
        <ele>137.782</ele>
        <time>2011-09-25T07:25:40Z</time>
      </trkpt>
      <trkpt lat="48.42288" lon="2.69843">
        <ele>137.228</ele>
        <time>2011-09-25T07:25:49Z</time>
      </trkpt>
      <trkpt lat="48.42287" lon="2.69844">
        <ele>137.272</ele>
        <time>2011-09-25T07:25:51Z</time>
      </trkpt>
      <trkpt lat="48.42275" lon="2.69837">
        <ele>136.229</ele>
        <time>2011-09-25T07:25:59Z</time>
      </trkpt>
      <trkpt lat="48.4227" lon="2.6983">
        <ele>134.473</ele>
        <time>2011-09-25T07:26:10Z</time>
      </trkpt>
      <trkpt lat="48.42269" lon="2.69829">
        <ele>135.202</ele>
        <time>2011-09-25T07:27:12Z</time>
      </trkpt>
      <trkpt lat="48.42269" lon="2.69829">
        <ele>135.289</ele>
        <time>2011-09-25T07:28:11Z</time>
      </trkpt>
      <trkpt lat="48.42272" lon="2.69822">
        <ele>135.269</ele>
        <time>2011-09-25T07:28:13Z</time>
      </trkpt>
      <trkpt lat="48.42267" lon="2.69804">
        <ele>134.036</ele>
        <time>2011-09-25T07:28:17Z</time>
      </trkpt>
      <trkpt lat="48.42261" lon="2.69797">
        <ele>132.584</ele>
        <time>2011-09-25T07:28:20Z</time>
      </trkpt>
      <trkpt lat="48.42239" lon="2.69808">
        <ele>126.881</ele>
        <time>2011-09-25T07:28:29Z</time>
      </trkpt>
      <trkpt lat="48.42238" lon="2.69809">
        <ele>126.529</ele>
        <time>2011-09-25T07:28:30Z</time>
      </trkpt>
      <trkpt lat="48.42213" lon="2.69804">
        <ele>120.061</ele>
        <time>2011-09-25T07:28:39Z</time>
      </trkpt>
      <trkpt lat="48.42205" lon="2.69804">
        <ele>118.407</ele>
        <time>2011-09-25T07:28:51Z</time>
      </trkpt>
      <trkpt lat="48.4219" lon="2.6979">
        <ele>116.903</ele>
        <time>2011-09-25T07:28:59Z</time>
      </trkpt>
      <trkpt lat="48.42173" lon="2.69789">
        <ele>111.925</ele>
        <time>2011-09-25T07:29:07Z</time>
      </trkpt>
      <trkpt lat="48.42138" lon="2.69814">
        <ele>103.22</ele>
        <time>2011-09-25T07:29:16Z</time>
      </trkpt>
      <trkpt lat="48.42126" lon="2.69827">
        <ele>100.331</ele>
        <time>2011-09-25T07:29:20Z</time>
      </trkpt>
      <trkpt lat="48.42097" lon="2.69845">
        <ele>97.739</ele>
        <time>2011-09-25T07:29:29Z</time>
      </trkpt>
      <trkpt lat="48.42097" lon="2.69844">
        <ele>96.914</ele>
        <time>2011-09-25T07:30:50Z</time>
      </trkpt>
      <trkpt lat="48.42097" lon="2.69833">
        <ele>97.33</ele>
        <time>2011-09-25T07:30:55Z</time>
      </trkpt>
      <trkpt lat="48.42106" lon="2.69783">
        <ele>96.473</ele>
        <time>2011-09-25T07:31:08Z</time>
      </trkpt>
      <trkpt lat="48.42111" lon="2.69733">
        <ele>94.211</ele>
        <time>2011-09-25T07:31:19Z</time>
      </trkpt>
      <trkpt lat="48.42119" lon="2.69692">
        <ele>95.434</ele>
        <time>2011-09-25T07:31:28Z</time>
      </trkpt>
      <trkpt lat="48.42123" lon="2.69672">
        <ele>93.392</ele>
        <time>2011-09-25T07:31:32Z</time>
      </trkpt>
      <trkpt lat="48.42141" lon="2.69603">
        <ele>89.752</ele>
        <time>2011-09-25T07:31:43Z</time>
      </trkpt>
      <trkpt lat="48.42139" lon="2.69525">
        <ele>91.267</ele>
        <time>2011-09-25T07:31:57Z</time>
      </trkpt>
      <trkpt lat="48.42119" lon="2.69469">
        <ele>93.482</ele>
        <time>2011-09-25T07:32:07Z</time>
      </trkpt>
      <trkpt lat="48.42097" lon="2.69415">
        <ele>89.076</ele>
        <time>2011-09-25T07:32:17Z</time>
      </trkpt>
      <trkpt lat="48.42072" lon="2.6936">
        <ele>89.722</ele>
        <time>2011-09-25T07:32:27Z</time>
      </trkpt>
      <trkpt lat="48.42043" lon="2.69253">
        <ele>94.248</ele>
        <time>2011-09-25T07:32:44Z</time>
      </trkpt>
      <trkpt lat="48.42044" lon="2.6919">
        <ele>90.793</ele>
        <time>2011-09-25T07:32:54Z</time>
      </trkpt>
      <trkpt lat="48.42095" lon="2.69109">
        <ele>94.305</ele>
        <time>2011-09-25T07:33:14Z</time>
      </trkpt>
      <trkpt lat="48.42113" lon="2.69069">
        <ele>96.26</ele>
        <time>2011-09-25T07:33:23Z</time>
      </trkpt>
      <trkpt lat="48.42116" lon="2.6906">
        <ele>96.532</ele>
        <time>2011-09-25T07:33:25Z</time>
      </trkpt>
      <trkpt lat="48.42135" lon="2.69013">
        <ele>97.78</ele>
        <time>2011-09-25T07:33:36Z</time>
      </trkpt>
      <trkpt lat="48.42146" lon="2.68988">
        <ele>98.715</ele>
        <time>2011-09-25T07:33:43Z</time>
      </trkpt>
      <trkpt lat="48.42162" lon="2.6899">
        <ele>96.45</ele>
        <time>2011-09-25T07:33:49Z</time>
      </trkpt>
      <trkpt lat="48.42166" lon="2.68999">
        <ele>95.573</ele>
        <time>2011-09-25T07:33:51Z</time>
      </trkpt>
      <trkpt lat="48.42174" lon="2.69019">
        <ele>94.392</ele>
        <time>2011-09-25T07:33:55Z</time>
      </trkpt>
      <trkpt lat="48.42196" lon="2.69068">
        <ele>95.346</ele>
        <time>2011-09-25T07:34:06Z</time>
      </trkpt>
      <trkpt lat="48.42222" lon="2.69111">
        <ele>98.78</ele>
        <time>2011-09-25T07:34:20Z</time>
      </trkpt>
      <trkpt lat="48.42228" lon="2.69148">
        <ele>102.921</ele>
        <time>2011-09-25T07:34:30Z</time>
      </trkpt>
      <trkpt lat="48.42229" lon="2.69176">
        <ele>105.093</ele>
        <time>2011-09-25T07:34:38Z</time>
      </trkpt>
      <trkpt lat="48.4223" lon="2.69179">
        <ele>105.297</ele>
        <time>2011-09-25T07:34:39Z</time>
      </trkpt>
      <trkpt lat="48.42226" lon="2.69198">
        <ele>106.503</ele>
        <time>2011-09-25T07:34:46Z</time>
      </trkpt>
      <trkpt lat="48.42226" lon="2.69212">
        <ele>108.894</ele>
        <time>2011-09-25T07:34:52Z</time>
      </trkpt>
      <trkpt lat="48.4223" lon="2.69222">
        <ele>110.064</ele>
        <time>2011-09-25T07:35:01Z</time>
      </trkpt>
      <trkpt lat="48.42243" lon="2.6924">
        <ele>110.432</ele>
        <time>2011-09-25T07:35:10Z</time>
      </trkpt>
      <trkpt lat="48.42253" lon="2.69252">
        <ele>111.865</ele>
        <time>2011-09-25T07:35:21Z</time>
      </trkpt>
      <trkpt lat="48.42256" lon="2.69251">
        <ele>112.451</ele>
        <time>2011-09-25T07:35:24Z</time>
      </trkpt>
      <trkpt lat="48.42268" lon="2.69252">
        <ele>115.842</ele>
        <time>2011-09-25T07:35:34Z</time>
      </trkpt>
      <trkpt lat="48.42275" lon="2.69262">
        <ele>119.52</ele>
        <time>2011-09-25T07:35:44Z</time>
      </trkpt>
      <trkpt lat="48.42275" lon="2.69267">
        <ele>120.363</ele>
        <time>2011-09-25T07:35:47Z</time>
      </trkpt>
      <trkpt lat="48.42279" lon="2.69274">
        <ele>120.971</ele>
        <time>2011-09-25T07:35:56Z</time>
      </trkpt>
      <trkpt lat="48.42284" lon="2.69285">
        <ele>123.224</ele>
        <time>2011-09-25T07:36:13Z</time>
      </trkpt>
      <trkpt lat="48.42286" lon="2.69294">
        <ele>125.678</ele>
        <time>2011-09-25T07:36:22Z</time>
      </trkpt>
      <trkpt lat="48.42287" lon="2.69298">
        <ele>128.169</ele>
        <time>2011-09-25T07:36:26Z</time>
      </trkpt>
      <trkpt lat="48.42294" lon="2.69299">
        <ele>127.318</ele>
        <time>2011-09-25T07:36:34Z</time>
      </trkpt>
      <trkpt lat="48.42299" lon="2.69303">
        <ele>127.026</ele>
        <time>2011-09-25T07:36:38Z</time>
      </trkpt>
      <trkpt lat="48.42308" lon="2.69308">
        <ele>127.322</ele>
        <time>2011-09-25T07:36:44Z</time>
      </trkpt>
      <trkpt lat="48.4231" lon="2.69309">
        <ele>127.606</ele>
        <time>2011-09-25T07:36:46Z</time>
      </trkpt>
      <trkpt lat="48.42326" lon="2.69319">
        <ele>130.643</ele>
        <time>2011-09-25T07:36:59Z</time>
      </trkpt>
      <trkpt lat="48.42337" lon="2.69327">
        <ele>131.389</ele>
        <time>2011-09-25T07:37:05Z</time>
      </trkpt>
      <trkpt lat="48.42346" lon="2.69333">
        <ele>131.841</ele>
        <time>2011-09-25T07:37:10Z</time>
      </trkpt>
      <trkpt lat="48.42353" lon="2.69339">
        <ele>132.518</ele>
        <time>2011-09-25T07:37:14Z</time>
      </trkpt>
      <trkpt lat="48.42359" lon="2.69344">
        <ele>133.164</ele>
        <time>2011-09-25T07:37:18Z</time>
      </trkpt>
      <trkpt lat="48.42385" lon="2.69365">
        <ele>133.894</ele>
        <time>2011-09-25T07:37:31Z</time>
      </trkpt>
      <trkpt lat="48.42407" lon="2.69387">
        <ele>130.984</ele>
        <time>2011-09-25T07:37:41Z</time>
      </trkpt>
      <trkpt lat="48.42448" lon="2.69407">
        <ele>129.666</ele>
        <time>2011-09-25T07:37:52Z</time>
      </trkpt>
      <trkpt lat="48.42477" lon="2.69419">
        <ele>129.184</ele>
        <time>2011-09-25T07:38:02Z</time>
      </trkpt>
      <trkpt lat="48.42506" lon="2.69408">
        <ele>133.006</ele>
        <time>2011-09-25T07:38:11Z</time>
      </trkpt>
      <trkpt lat="48.42527" lon="2.69398">
        <ele>136.149</ele>
        <time>2011-09-25T07:38:16Z</time>
      </trkpt>
      <trkpt lat="48.4253" lon="2.69352">
        <ele>134.751</ele>
        <time>2011-09-25T07:38:24Z</time>
      </trkpt>
      <trkpt lat="48.42535" lon="2.69271">
        <ele>134.527</ele>
        <time>2011-09-25T07:38:36Z</time>
      </trkpt>
      <trkpt lat="48.42537" lon="2.69235">
        <ele>135.462</ele>
        <time>2011-09-25T07:38:41Z</time>
      </trkpt>
      <trkpt lat="48.42542" lon="2.69129">
        <ele>136.546</ele>
        <time>2011-09-25T07:38:58Z</time>
      </trkpt>
      <trkpt lat="48.42546" lon="2.69092">
        <ele>138.103</ele>
        <time>2011-09-25T07:39:04Z</time>
      </trkpt>
      <trkpt lat="48.42551" lon="2.68998">
        <ele>139.087</ele>
        <time>2011-09-25T07:39:21Z</time>
      </trkpt>
      <trkpt lat="48.42554" lon="2.68899">
        <ele>138.547</ele>
        <time>2011-09-25T07:39:38Z</time>
      </trkpt>
      <trkpt lat="48.42555" lon="2.68867">
        <ele>138.758</ele>
        <time>2011-09-25T07:39:45Z</time>
      </trkpt>
      <trkpt lat="48.42555" lon="2.68865">
        <ele>139.238</ele>
        <time>2011-09-25T07:39:57Z</time>
      </trkpt>
      <trkpt lat="48.42558" lon="2.68856">
        <ele>139.851</ele>
        <time>2011-09-25T07:40:01Z</time>
      </trkpt>
      <trkpt lat="48.42559" lon="2.68842">
        <ele>139.616</ele>
        <time>2011-09-25T07:40:04Z</time>
      </trkpt>
      <trkpt lat="48.42561" lon="2.68823">
        <ele>139.634</ele>
        <time>2011-09-25T07:40:08Z</time>
      </trkpt>
      <trkpt lat="48.42561" lon="2.68735">
        <ele>136.644</ele>
        <time>2011-09-25T07:40:25Z</time>
      </trkpt>
      <trkpt lat="48.4257" lon="2.6865">
        <ele>137.63</ele>
        <time>2011-09-25T07:40:41Z</time>
      </trkpt>
      <trkpt lat="48.42567" lon="2.68571">
        <ele>136.74</ele>
        <time>2011-09-25T07:40:57Z</time>
      </trkpt>
      <trkpt lat="48.42567" lon="2.68562">
        <ele>138.84</ele>
        <time>2011-09-25T07:41:08Z</time>
      </trkpt>
      <trkpt lat="48.42563" lon="2.68585">
        <ele>137.818</ele>
        <time>2011-09-25T07:41:14Z</time>
      </trkpt>
      <trkpt lat="48.42562" lon="2.68672">
        <ele>136.932</ele>
        <time>2011-09-25T07:41:28Z</time>
      </trkpt>
      <trkpt lat="48.42562" lon="2.68691">
        <ele>136.71</ele>
        <time>2011-09-25T07:41:31Z</time>
      </trkpt>
      <trkpt lat="48.42559" lon="2.68774">
        <ele>137.273</ele>
        <time>2011-09-25T07:41:46Z</time>
      </trkpt>
      <trkpt lat="48.42555" lon="2.68829">
        <ele>136.662</ele>
        <time>2011-09-25T07:41:56Z</time>
      </trkpt>
      <trkpt lat="48.42555" lon="2.68864">
        <ele>136.746</ele>
        <time>2011-09-25T07:42:02Z</time>
      </trkpt>
      <trkpt lat="48.42545" lon="2.68878">
        <ele>136.501</ele>
        <time>2011-09-25T07:42:09Z</time>
      </trkpt>
      <trkpt lat="48.42511" lon="2.68877">
        <ele>137.34</ele>
        <time>2011-09-25T07:42:18Z</time>
      </trkpt>
      <trkpt lat="48.42493" lon="2.68885">
        <ele>137.621</ele>
        <time>2011-09-25T07:42:26Z</time>
      </trkpt>
      <trkpt lat="48.42494" lon="2.68884">
        <ele>137.538</ele>
        <time>2011-09-25T07:42:42Z</time>
      </trkpt>
      <trkpt lat="48.42482" lon="2.68878">
        <ele>138.07</ele>
        <time>2011-09-25T07:42:55Z</time>
      </trkpt>
      <trkpt lat="48.42465" lon="2.68888">
        <ele>136.907</ele>
        <time>2011-09-25T07:43:04Z</time>
      </trkpt>
      <trkpt lat="48.42456" lon="2.6889">
        <ele>136.095</ele>
        <time>2011-09-25T07:43:07Z</time>
      </trkpt>
      <trkpt lat="48.42434" lon="2.6888">
        <ele>138.337</ele>
        <time>2011-09-25T07:43:15Z</time>
      </trkpt>
      <trkpt lat="48.4242" lon="2.68891">
        <ele>137.062</ele>
        <time>2011-09-25T07:43:22Z</time>
      </trkpt>
      <trkpt lat="48.42417" lon="2.68893">
        <ele>135.836</ele>
        <time>2011-09-25T07:43:26Z</time>
      </trkpt>
      <trkpt lat="48.42409" lon="2.68883">
        <ele>136.285</ele>
        <time>2011-09-25T07:43:34Z</time>
      </trkpt>
      <trkpt lat="48.42407" lon="2.68884">
        <ele>136.286</ele>
        <time>2011-09-25T07:43:37Z</time>
      </trkpt>
      <trkpt lat="48.42402" lon="2.689">
        <ele>136.673</ele>
        <time>2011-09-25T07:43:43Z</time>
      </trkpt>
      <trkpt lat="48.424" lon="2.68904">
        <ele>137.03</ele>
        <time>2011-09-25T07:43:45Z</time>
      </trkpt>
      <trkpt lat="48.42399" lon="2.68915">
        <ele>138.025</ele>
        <time>2011-09-25T07:43:50Z</time>
      </trkpt>
      <trkpt lat="48.42398" lon="2.68931">
        <ele>137.646</ele>
        <time>2011-09-25T07:44:00Z</time>
      </trkpt>
      <trkpt lat="48.42392" lon="2.68932">
        <ele>137.725</ele>
        <time>2011-09-25T07:44:04Z</time>
      </trkpt>
      <trkpt lat="48.42384" lon="2.68931">
        <ele>137.109</ele>
        <time>2011-09-25T07:44:09Z</time>
      </trkpt>
      <trkpt lat="48.42371" lon="2.68955">
        <ele>132.312</ele>
        <time>2011-09-25T07:44:17Z</time>
      </trkpt>
      <trkpt lat="48.42362" lon="2.68979">
        <ele>129.88</ele>
        <time>2011-09-25T07:44:22Z</time>
      </trkpt>
      <trkpt lat="48.42358" lon="2.6899">
        <ele>128.441</ele>
        <time>2011-09-25T07:44:25Z</time>
      </trkpt>
      <trkpt lat="48.42353" lon="2.69006">
        <ele>127.507</ele>
        <time>2011-09-25T07:44:31Z</time>
      </trkpt>
      <trkpt lat="48.42347" lon="2.69025">
        <ele>127.071</ele>
        <time>2011-09-25T07:44:36Z</time>
      </trkpt>
      <trkpt lat="48.42347" lon="2.69036">
        <ele>127.135</ele>
        <time>2011-09-25T07:44:38Z</time>
      </trkpt>
      <trkpt lat="48.42339" lon="2.69067">
        <ele>127.708</ele>
        <time>2011-09-25T07:44:49Z</time>
      </trkpt>
      <trkpt lat="48.42323" lon="2.69111">
        <ele>122.79</ele>
        <time>2011-09-25T07:44:58Z</time>
      </trkpt>
      <trkpt lat="48.42314" lon="2.69133">
        <ele>119.628</ele>
        <time>2011-09-25T07:45:05Z</time>
      </trkpt>
      <trkpt lat="48.42313" lon="2.69133">
        <ele>118.791</ele>
        <time>2011-09-25T07:45:37Z</time>
      </trkpt>
      <trkpt lat="48.42299" lon="2.69129">
        <ele>117.566</ele>
        <time>2011-09-25T07:45:42Z</time>
      </trkpt>
      <trkpt lat="48.4227" lon="2.69102">
        <ele>115.978</ele>
        <time>2011-09-25T07:45:48Z</time>
      </trkpt>
      <trkpt lat="48.42214" lon="2.6908">
        <ele>113.642</ele>
        <time>2011-09-25T07:45:59Z</time>
      </trkpt>
      <trkpt lat="48.42207" lon="2.69076">
        <ele>111.313</ele>
        <time>2011-09-25T07:46:02Z</time>
      </trkpt>
      <trkpt lat="48.42206" lon="2.69073">
        <ele>110.763</ele>
        <time>2011-09-25T07:46:14Z</time>
      </trkpt>
      <trkpt lat="48.42207" lon="2.69073">
        <ele>110.787</ele>
        <time>2011-09-25T07:46:18Z</time>
      </trkpt>
      <trkpt lat="48.42212" lon="2.69076">
        <ele>110.998</ele>
        <time>2011-09-25T07:46:22Z</time>
      </trkpt>
      <trkpt lat="48.42235" lon="2.69092">
        <ele>110.9</ele>
        <time>2011-09-25T07:46:34Z</time>
      </trkpt>
      <trkpt lat="48.42265" lon="2.6911">
        <ele>110.972</ele>
        <time>2011-09-25T07:46:42Z</time>
      </trkpt>
      <trkpt lat="48.42277" lon="2.69119">
        <ele>111.617</ele>
        <time>2011-09-25T07:46:45Z</time>
      </trkpt>
      <trkpt lat="48.423" lon="2.69134">
        <ele>110.377</ele>
        <time>2011-09-25T07:46:53Z</time>
      </trkpt>
      <trkpt lat="48.42311" lon="2.69136">
        <ele>111.526</ele>
        <time>2011-09-25T07:46:57Z</time>
      </trkpt>
      <trkpt lat="48.42316" lon="2.69146">
        <ele>113.431</ele>
        <time>2011-09-25T07:47:04Z</time>
      </trkpt>
      <trkpt lat="48.42324" lon="2.69152">
        <ele>113.818</ele>
        <time>2011-09-25T07:47:08Z</time>
      </trkpt>
      <trkpt lat="48.42332" lon="2.69162">
        <ele>115.582</ele>
        <time>2011-09-25T07:47:14Z</time>
      </trkpt>
      <trkpt lat="48.42337" lon="2.69166">
        <ele>117.369</ele>
        <time>2011-09-25T07:47:27Z</time>
      </trkpt>
      <trkpt lat="48.42338" lon="2.69169">
        <ele>116.479</ele>
        <time>2011-09-25T07:47:34Z</time>
      </trkpt>
      <trkpt lat="48.42339" lon="2.69175">
        <ele>118.191</ele>
        <time>2011-09-25T07:47:49Z</time>
      </trkpt>
      <trkpt lat="48.42339" lon="2.69175">
        <ele>118.284</ele>
        <time>2011-09-25T07:47:50Z</time>
      </trkpt>
      <trkpt lat="48.42335" lon="2.69183">
        <ele>117.936</ele>
        <time>2011-09-25T07:47:59Z</time>
      </trkpt>
      <trkpt lat="48.42334" lon="2.69186">
        <ele>117.978</ele>
        <time>2011-09-25T07:48:01Z</time>
      </trkpt>
      <trkpt lat="48.42332" lon="2.69217">
        <ele>118.342</ele>
        <time>2011-09-25T07:48:10Z</time>
      </trkpt>
      <trkpt lat="48.42327" lon="2.69221">
        <ele>119.106</ele>
        <time>2011-09-25T07:48:16Z</time>
      </trkpt>
      <trkpt lat="48.42319" lon="2.69223">
        <ele>122.665</ele>
        <time>2011-09-25T07:48:29Z</time>
      </trkpt>
      <trkpt lat="48.42318" lon="2.69224">
        <ele>123.669</ele>
        <time>2011-09-25T07:48:42Z</time>
      </trkpt>
      <trkpt lat="48.42318" lon="2.69224">
        <ele>123.792</ele>
        <time>2011-09-25T07:48:45Z</time>
      </trkpt>
      <trkpt lat="48.42312" lon="2.6923">
        <ele>124.35</ele>
        <time>2011-09-25T07:48:50Z</time>
      </trkpt>
      <trkpt lat="48.42312" lon="2.69244">
        <ele>123.637</ele>
        <time>2011-09-25T07:48:55Z</time>
      </trkpt>
      <trkpt lat="48.42314" lon="2.69247">
        <ele>123.869</ele>
        <time>2011-09-25T07:49:00Z</time>
      </trkpt>
      <trkpt lat="48.42307" lon="2.69239">
        <ele>123.618</ele>
        <time>2011-09-25T07:49:05Z</time>
      </trkpt>
      <trkpt lat="48.42307" lon="2.69233">
        <ele>123.815</ele>
        <time>2011-09-25T07:49:15Z</time>
      </trkpt>
      <trkpt lat="48.42293" lon="2.69231">
        <ele>126.506</ele>
        <time>2011-09-25T07:49:30Z</time>
      </trkpt>
      <trkpt lat="48.42292" lon="2.69233">
        <ele>126.779</ele>
        <time>2011-09-25T07:49:36Z</time>
      </trkpt>
      <trkpt lat="48.42289" lon="2.69236">
        <ele>127.926</ele>
        <time>2011-09-25T07:49:39Z</time>
      </trkpt>
      <trkpt lat="48.42289" lon="2.69248">
        <ele>130.352</ele>
        <time>2011-09-25T07:49:49Z</time>
      </trkpt>
      <trkpt lat="48.42296" lon="2.69258">
        <ele>130.05</ele>
        <time>2011-09-25T07:49:53Z</time>
      </trkpt>
      <trkpt lat="48.42304" lon="2.69273">
        <ele>131.291</ele>
        <time>2011-09-25T07:49:58Z</time>
      </trkpt>
      <trkpt lat="48.42306" lon="2.69294">
        <ele>132.589</ele>
        <time>2011-09-25T07:50:03Z</time>
      </trkpt>
      <trkpt lat="48.4231" lon="2.69303">
        <ele>132.034</ele>
        <time>2011-09-25T07:50:22Z</time>
      </trkpt>
      <trkpt lat="48.4231" lon="2.69303">
        <ele>132.013</ele>
        <time>2011-09-25T07:51:13Z</time>
      </trkpt>
      <trkpt lat="48.42305" lon="2.6931">
        <ele>133.659</ele>
        <time>2011-09-25T07:51:19Z</time>
      </trkpt>
      <trkpt lat="48.42291" lon="2.69338">
        <ele>134.522</ele>
        <time>2011-09-25T07:51:28Z</time>
      </trkpt>
      <trkpt lat="48.42282" lon="2.69362">
        <ele>133.148</ele>
        <time>2011-09-25T07:51:33Z</time>
      </trkpt>
      <trkpt lat="48.423" lon="2.69392">
        <ele>129.371</ele>
        <time>2011-09-25T07:51:42Z</time>
      </trkpt>
      <trkpt lat="48.42297" lon="2.69429">
        <ele>127.708</ele>
        <time>2011-09-25T07:51:52Z</time>
      </trkpt>
      <trkpt lat="48.42298" lon="2.69434">
        <ele>128.878</ele>
        <time>2011-09-25T07:51:54Z</time>
      </trkpt>
      <trkpt lat="48.423" lon="2.69437">
        <ele>129.066</ele>
        <time>2011-09-25T07:51:56Z</time>
      </trkpt>
      <trkpt lat="48.42299" lon="2.69448">
        <ele>130.07</ele>
        <time>2011-09-25T07:52:00Z</time>
      </trkpt>
      <trkpt lat="48.42296" lon="2.69456">
        <ele>129.867</ele>
        <time>2011-09-25T07:52:02Z</time>
      </trkpt>
      <trkpt lat="48.423" lon="2.69459">
        <ele>129.695</ele>
        <time>2011-09-25T07:52:06Z</time>
      </trkpt>
      <trkpt lat="48.42306" lon="2.69458">
        <ele>129.196</ele>
        <time>2011-09-25T07:52:08Z</time>
      </trkpt>
      <trkpt lat="48.42315" lon="2.69492">
        <ele>124.66</ele>
        <time>2011-09-25T07:52:15Z</time>
      </trkpt>
      <trkpt lat="48.42339" lon="2.69498">
        <ele>124.218</ele>
        <time>2011-09-25T07:52:24Z</time>
      </trkpt>
      <trkpt lat="48.42366" lon="2.69473">
        <ele>126.24</ele>
        <time>2011-09-25T07:52:32Z</time>
      </trkpt>
      <trkpt lat="48.42379" lon="2.69478">
        <ele>128.078</ele>
        <time>2011-09-25T07:52:38Z</time>
      </trkpt>
      <trkpt lat="48.42389" lon="2.69487">
        <ele>128.324</ele>
        <time>2011-09-25T07:52:43Z</time>
      </trkpt>
      <trkpt lat="48.4239" lon="2.69508">
        <ele>130.319</ele>
        <time>2011-09-25T07:52:50Z</time>
      </trkpt>
      <trkpt lat="48.42392" lon="2.69524">
        <ele>130.723</ele>
        <time>2011-09-25T07:52:54Z</time>
      </trkpt>
      <trkpt lat="48.42405" lon="2.69545">
        <ele>131.223</ele>
        <time>2011-09-25T07:53:00Z</time>
      </trkpt>
      <trkpt lat="48.42401" lon="2.69565">
        <ele>131.994</ele>
        <time>2011-09-25T07:53:04Z</time>
      </trkpt>
      <trkpt lat="48.42386" lon="2.69598">
        <ele>132.992</ele>
        <time>2011-09-25T07:53:15Z</time>
      </trkpt>
      <trkpt lat="48.42379" lon="2.69605">
        <ele>130.407</ele>
        <time>2011-09-25T07:53:24Z</time>
      </trkpt>
      <trkpt lat="48.42375" lon="2.69608">
        <ele>129.861</ele>
        <time>2011-09-25T07:53:38Z</time>
      </trkpt>
      <trkpt lat="48.42374" lon="2.69617">
        <ele>129.225</ele>
        <time>2011-09-25T07:53:47Z</time>
      </trkpt>
      <trkpt lat="48.4237" lon="2.69628">
        <ele>128.907</ele>
        <time>2011-09-25T07:53:52Z</time>
      </trkpt>
      <trkpt lat="48.4236" lon="2.69641">
        <ele>127.127</ele>
        <time>2011-09-25T07:53:57Z</time>
      </trkpt>
      <trkpt lat="48.42353" lon="2.69663">
        <ele>127.38</ele>
        <time>2011-09-25T07:54:05Z</time>
      </trkpt>
      <trkpt lat="48.42352" lon="2.69683">
        <ele>127.352</ele>
        <time>2011-09-25T07:54:11Z</time>
      </trkpt>
      <trkpt lat="48.42367" lon="2.69713">
        <ele>126.627</ele>
        <time>2011-09-25T07:54:20Z</time>
      </trkpt>
      <trkpt lat="48.42367" lon="2.6972">
        <ele>125.772</ele>
        <time>2011-09-25T07:54:23Z</time>
      </trkpt>
      <trkpt lat="48.42366" lon="2.69727">
        <ele>124.751</ele>
        <time>2011-09-25T07:54:26Z</time>
      </trkpt>
      <trkpt lat="48.42364" lon="2.69734">
        <ele>122.993</ele>
        <time>2011-09-25T07:54:29Z</time>
      </trkpt>
      <trkpt lat="48.42356" lon="2.69733">
        <ele>119.664</ele>
        <time>2011-09-25T07:54:35Z</time>
      </trkpt>
      <trkpt lat="48.42351" lon="2.69726">
        <ele>118.487</ele>
        <time>2011-09-25T07:54:37Z</time>
      </trkpt>
      <trkpt lat="48.42341" lon="2.69725">
        <ele>116.175</ele>
        <time>2011-09-25T07:54:42Z</time>
      </trkpt>
      <trkpt lat="48.42337" lon="2.69726">
        <ele>115.304</ele>
        <time>2011-09-25T07:54:44Z</time>
      </trkpt>
      <trkpt lat="48.42333" lon="2.69723">
        <ele>114.629</ele>
        <time>2011-09-25T07:54:47Z</time>
      </trkpt>
      <trkpt lat="48.42323" lon="2.69721">
        <ele>112.672</ele>
        <time>2011-09-25T07:54:51Z</time>
      </trkpt>
      <trkpt lat="48.4232" lon="2.69728">
        <ele>111.75</ele>
        <time>2011-09-25T07:54:54Z</time>
      </trkpt>
      <trkpt lat="48.42321" lon="2.69741">
        <ele>110.271</ele>
        <time>2011-09-25T07:54:58Z</time>
      </trkpt>
      <trkpt lat="48.42323" lon="2.69749">
        <ele>110.158</ele>
        <time>2011-09-25T07:55:00Z</time>
      </trkpt>
      <trkpt lat="48.42322" lon="2.6976">
        <ele>109.823</ele>
        <time>2011-09-25T07:55:03Z</time>
      </trkpt>
      <trkpt lat="48.42317" lon="2.69793">
        <ele>109.487</ele>
        <time>2011-09-25T07:55:13Z</time>
      </trkpt>
      <trkpt lat="48.42324" lon="2.69811">
        <ele>112.591</ele>
        <time>2011-09-25T07:55:26Z</time>
      </trkpt>
      <trkpt lat="48.42328" lon="2.69814">
        <ele>117.855</ele>
        <time>2011-09-25T07:55:40Z</time>
      </trkpt>
      <trkpt lat="48.42324" lon="2.69819">
        <ele>120.634</ele>
        <time>2011-09-25T07:55:50Z</time>
      </trkpt>
      <trkpt lat="48.42321" lon="2.69816">
        <ele>121.322</ele>
        <time>2011-09-25T07:55:59Z</time>
      </trkpt>
      <trkpt lat="48.42318" lon="2.69822">
        <ele>121.643</ele>
        <time>2011-09-25T07:56:09Z</time>
      </trkpt>
      <trkpt lat="48.42317" lon="2.6983">
        <ele>122.185</ele>
        <time>2011-09-25T07:56:21Z</time>
      </trkpt>
      <trkpt lat="48.42313" lon="2.69834">
        <ele>125.305</ele>
        <time>2011-09-25T07:56:33Z</time>
      </trkpt>
      <trkpt lat="48.42306" lon="2.69835">
        <ele>126.503</ele>
        <time>2011-09-25T07:56:46Z</time>
      </trkpt>
      <trkpt lat="48.42305" lon="2.69835">
        <ele>126.591</ele>
        <time>2011-09-25T07:56:48Z</time>
      </trkpt>
      <trkpt lat="48.42305" lon="2.69832">
        <ele>126.443</ele>
        <time>2011-09-25T07:56:50Z</time>
      </trkpt>
      <trkpt lat="48.42302" lon="2.6983">
        <ele>125.835</ele>
        <time>2011-09-25T07:56:54Z</time>
      </trkpt>
      <trkpt lat="48.42291" lon="2.6982">
        <ele>126.935</ele>
        <time>2011-09-25T07:57:02Z</time>
      </trkpt>
      <trkpt lat="48.42278" lon="2.69815">
        <ele>127.156</ele>
        <time>2011-09-25T07:57:13Z</time>
      </trkpt>
      <trkpt lat="48.42275" lon="2.69816">
        <ele>126.531</ele>
        <time>2011-09-25T07:57:15Z</time>
      </trkpt>
      <trkpt lat="48.42271" lon="2.6983">
        <ele>126.757</ele>
        <time>2011-09-25T07:57:24Z</time>
      </trkpt>
      <trkpt lat="48.42276" lon="2.69834">
        <ele>127.427</ele>
        <time>2011-09-25T07:57:29Z</time>
      </trkpt>
      <trkpt lat="48.4228" lon="2.69837">
        <ele>128.383</ele>
        <time>2011-09-25T07:57:37Z</time>
      </trkpt>
      <trkpt lat="48.42297" lon="2.69868">
        <ele>130.483</ele>
        <time>2011-09-25T07:57:51Z</time>
      </trkpt>
      <trkpt lat="48.42302" lon="2.6988">
        <ele>130.39</ele>
        <time>2011-09-25T07:57:55Z</time>
      </trkpt>
      <trkpt lat="48.42323" lon="2.69908">
        <ele>130.056</ele>
        <time>2011-09-25T07:58:07Z</time>
      </trkpt>
      <trkpt lat="48.42328" lon="2.69918">
        <ele>129.237</ele>
        <time>2011-09-25T07:58:10Z</time>
      </trkpt>
      <trkpt lat="48.42339" lon="2.69937">
        <ele>126.923</ele>
        <time>2011-09-25T07:58:16Z</time>
      </trkpt>
      <trkpt lat="48.42332" lon="2.6997">
        <ele>131.255</ele>
        <time>2011-09-25T07:58:25Z</time>
      </trkpt>
      <trkpt lat="48.42331" lon="2.69988">
        <ele>132.617</ele>
        <time>2011-09-25T07:58:29Z</time>
      </trkpt>
      <trkpt lat="48.42334" lon="2.70003">
        <ele>132.47</ele>
        <time>2011-09-25T07:58:33Z</time>
      </trkpt>
      <trkpt lat="48.42337" lon="2.70013">
        <ele>131.773</ele>
        <time>2011-09-25T07:58:35Z</time>
      </trkpt>
      <trkpt lat="48.4234" lon="2.70044">
        <ele>130.252</ele>
        <time>2011-09-25T07:58:40Z</time>
      </trkpt>
      <trkpt lat="48.4234" lon="2.70058">
        <ele>129.893</ele>
        <time>2011-09-25T07:58:43Z</time>
      </trkpt>
      <trkpt lat="48.42336" lon="2.70094">
        <ele>131.072</ele>
        <time>2011-09-25T07:58:50Z</time>
      </trkpt>
      <trkpt lat="48.42337" lon="2.70108">
        <ele>133.403</ele>
        <time>2011-09-25T07:58:58Z</time>
      </trkpt>
      <trkpt lat="48.42335" lon="2.70145">
        <ele>134.305</ele>
        <time>2011-09-25T07:59:08Z</time>
      </trkpt>
      <trkpt lat="48.42327" lon="2.70152">
        <ele>133.077</ele>
        <time>2011-09-25T07:59:12Z</time>
      </trkpt>
      <trkpt lat="48.4232" lon="2.70164">
        <ele>131.861</ele>
        <time>2011-09-25T07:59:20Z</time>
      </trkpt>
      <trkpt lat="48.42318" lon="2.70171">
        <ele>131.088</ele>
        <time>2011-09-25T07:59:23Z</time>
      </trkpt>
      <trkpt lat="48.42313" lon="2.70176">
        <ele>130.543</ele>
        <time>2011-09-25T07:59:26Z</time>
      </trkpt>
      <trkpt lat="48.4231" lon="2.70188">
        <ele>130.012</ele>
        <time>2011-09-25T07:59:30Z</time>
      </trkpt>
      <trkpt lat="48.42316" lon="2.70195">
        <ele>130.332</ele>
        <time>2011-09-25T07:59:34Z</time>
      </trkpt>
      <trkpt lat="48.42318" lon="2.70199">
        <ele>132.137</ele>
        <time>2011-09-25T07:59:37Z</time>
      </trkpt>
      <trkpt lat="48.42321" lon="2.70214">
        <ele>133.259</ele>
        <time>2011-09-25T07:59:42Z</time>
      </trkpt>
      <trkpt lat="48.42315" lon="2.70261">
        <ele>131.274</ele>
        <time>2011-09-25T07:59:51Z</time>
      </trkpt>
      <trkpt lat="48.42312" lon="2.70273">
        <ele>130.345</ele>
        <time>2011-09-25T07:59:55Z</time>
      </trkpt>
      <trkpt lat="48.42309" lon="2.70303">
        <ele>130.691</ele>
        <time>2011-09-25T08:00:05Z</time>
      </trkpt>
      <trkpt lat="48.4231" lon="2.70308">
        <ele>130.303</ele>
        <time>2011-09-25T08:00:12Z</time>
      </trkpt>
      <trkpt lat="48.42311" lon="2.7031">
        <ele>130.571</ele>
        <time>2011-09-25T08:00:14Z</time>
      </trkpt>
      <trkpt lat="48.42314" lon="2.70311">
        <ele>130.731</ele>
        <time>2011-09-25T08:00:16Z</time>
      </trkpt>
      <trkpt lat="48.42316" lon="2.70313">
        <ele>130.76</ele>
        <time>2011-09-25T08:00:18Z</time>
      </trkpt>
      <trkpt lat="48.42316" lon="2.7032">
        <ele>130.917</ele>
        <time>2011-09-25T08:00:22Z</time>
      </trkpt>
      <trkpt lat="48.42313" lon="2.70337">
        <ele>129.91</ele>
        <time>2011-09-25T08:00:27Z</time>
      </trkpt>
      <trkpt lat="48.42327" lon="2.70353">
        <ele>128.333</ele>
        <time>2011-09-25T08:00:31Z</time>
      </trkpt>
      <trkpt lat="48.42335" lon="2.7036">
        <ele>127.866</ele>
        <time>2011-09-25T08:00:34Z</time>
      </trkpt>
      <trkpt lat="48.42341" lon="2.70355">
        <ele>127.13</ele>
        <time>2011-09-25T08:00:37Z</time>
      </trkpt>
      <trkpt lat="48.42351" lon="2.70351">
        <ele>127.177</ele>
        <time>2011-09-25T08:00:42Z</time>
      </trkpt>
      <trkpt lat="48.42373" lon="2.70338">
        <ele>130.172</ele>
        <time>2011-09-25T08:00:51Z</time>
      </trkpt>
      <trkpt lat="48.42371" lon="2.70363">
        <ele>132.953</ele>
        <time>2011-09-25T08:00:59Z</time>
      </trkpt>
      <trkpt lat="48.42358" lon="2.70428">
        <ele>140.196</ele>
        <time>2011-09-25T08:01:15Z</time>
      </trkpt>
      <trkpt lat="48.42353" lon="2.7048">
        <ele>136.632</ele>
        <time>2011-09-25T08:01:27Z</time>
      </trkpt>
      <trkpt lat="48.42373" lon="2.70533">
        <ele>135.057</ele>
        <time>2011-09-25T08:01:36Z</time>
      </trkpt>
      <trkpt lat="48.42381" lon="2.70548">
        <ele>134.939</ele>
        <time>2011-09-25T08:01:39Z</time>
      </trkpt>
      <trkpt lat="48.4239" lon="2.70573">
        <ele>133.686</ele>
        <time>2011-09-25T08:01:44Z</time>
      </trkpt>
      <trkpt lat="48.42386" lon="2.70612">
        <ele>132.718</ele>
        <time>2011-09-25T08:01:52Z</time>
      </trkpt>
      <trkpt lat="48.42385" lon="2.70624">
        <ele>133.054</ele>
        <time>2011-09-25T08:01:55Z</time>
      </trkpt>
      <trkpt lat="48.42383" lon="2.70643">
        <ele>133.483</ele>
        <time>2011-09-25T08:01:59Z</time>
      </trkpt>
      <trkpt lat="48.42376" lon="2.70673">
        <ele>135.133</ele>
        <time>2011-09-25T08:02:07Z</time>
      </trkpt>
      <trkpt lat="48.42376" lon="2.70702">
        <ele>135.405</ele>
        <time>2011-09-25T08:02:13Z</time>
      </trkpt>
      <trkpt lat="48.42376" lon="2.70744">
        <ele>135.168</ele>
        <time>2011-09-25T08:02:20Z</time>
      </trkpt>
      <trkpt lat="48.42383" lon="2.70762">
        <ele>135.764</ele>
        <time>2011-09-25T08:02:25Z</time>
      </trkpt>
      <trkpt lat="48.42411" lon="2.70804">
        <ele>136.021</ele>
        <time>2011-09-25T08:02:39Z</time>
      </trkpt>
      <trkpt lat="48.42472" lon="2.7087">
        <ele>134.18</ele>
        <time>2011-09-25T08:03:01Z</time>
      </trkpt>
      <trkpt lat="48.42515" lon="2.709">
        <ele>134.378</ele>
        <time>2011-09-25T08:03:15Z</time>
      </trkpt>
      <trkpt lat="48.42524" lon="2.70906">
        <ele>133.91</ele>
        <time>2011-09-25T08:03:18Z</time>
      </trkpt>
      <trkpt lat="48.42546" lon="2.70884">
        <ele>134.374</ele>
        <time>2011-09-25T08:03:28Z</time>
      </trkpt>
      <trkpt lat="48.42565" lon="2.7085">
        <ele>136.989</ele>
        <time>2011-09-25T08:03:37Z</time>
      </trkpt>
      <trkpt lat="48.42572" lon="2.70836">
        <ele>138.352</ele>
        <time>2011-09-25T08:03:41Z</time>
      </trkpt>
      <trkpt lat="48.42584" lon="2.70823">
        <ele>139.882</ele>
        <time>2011-09-25T08:03:47Z</time>
      </trkpt>
      <trkpt lat="48.4259" lon="2.70821">
        <ele>140.543</ele>
        <time>2011-09-25T08:03:49Z</time>
      </trkpt>
      <trkpt lat="48.42625" lon="2.70806">
        <ele>140.244</ele>
        <time>2011-09-25T08:03:57Z</time>
      </trkpt>
      <trkpt lat="48.42633" lon="2.70801">
        <ele>140.653</ele>
        <time>2011-09-25T08:03:59Z</time>
      </trkpt>
      <trkpt lat="48.42691" lon="2.70766">
        <ele>140.672</ele>
        <time>2011-09-25T08:04:09Z</time>
      </trkpt>
      <trkpt lat="48.42697" lon="2.70764">
        <ele>140.616</ele>
        <time>2011-09-25T08:04:10Z</time>
      </trkpt>
      <trkpt lat="48.4272" lon="2.70768">
        <ele>138.154</ele>
        <time>2011-09-25T08:04:13Z</time>
      </trkpt>
      <trkpt lat="48.42748" lon="2.70771">
        <ele>137.125</ele>
        <time>2011-09-25T08:04:18Z</time>
      </trkpt>
      <trkpt lat="48.42763" lon="2.70772">
        <ele>135.168</ele>
        <time>2011-09-25T08:04:20Z</time>
      </trkpt>
      <trkpt lat="48.42804" lon="2.70768">
        <ele>132.554</ele>
        <time>2011-09-25T08:04:25Z</time>
      </trkpt>
      <trkpt lat="48.42854" lon="2.70766">
        <ele>132.3</ele>
        <time>2011-09-25T08:04:32Z</time>
      </trkpt>
      <trkpt lat="48.42868" lon="2.70763">
        <ele>132.845</ele>
        <time>2011-09-25T08:04:34Z</time>
      </trkpt>
      <trkpt lat="48.42895" lon="2.70765">
        <ele>134.966</ele>
        <time>2011-09-25T08:04:38Z</time>
      </trkpt>
      <trkpt lat="48.42941" lon="2.70757">
        <ele>133.164</ele>
        <time>2011-09-25T08:04:45Z</time>
      </trkpt>
      <trkpt lat="48.42995" lon="2.70718">
        <ele>133.204</ele>
        <time>2011-09-25T08:04:52Z</time>
      </trkpt>
      <trkpt lat="48.43023" lon="2.70685">
        <ele>133.536</ele>
        <time>2011-09-25T08:04:57Z</time>
      </trkpt>
      <trkpt lat="48.43055" lon="2.70688">
        <ele>134.962</ele>
        <time>2011-09-25T08:05:03Z</time>
      </trkpt>
      <trkpt lat="48.43069" lon="2.70694">
        <ele>133.238</ele>
        <time>2011-09-25T08:05:05Z</time>
      </trkpt>
      <trkpt lat="48.4308" lon="2.70695">
        <ele>132.623</ele>
        <time>2011-09-25T08:05:07Z</time>
      </trkpt>
      <trkpt lat="48.43099" lon="2.70705">
        <ele>133.912</ele>
        <time>2011-09-25T08:05:10Z</time>
      </trkpt>
      <trkpt lat="48.43118" lon="2.70706">
        <ele>132.301</ele>
        <time>2011-09-25T08:05:13Z</time>
      </trkpt>
      <trkpt lat="48.4315" lon="2.70673">
        <ele>131.111</ele>
        <time>2011-09-25T08:05:19Z</time>
      </trkpt>
      <trkpt lat="48.43187" lon="2.70662">
        <ele>130.425</ele>
        <time>2011-09-25T08:05:25Z</time>
      </trkpt>
      <trkpt lat="48.43207" lon="2.70655">
        <ele>130.891</ele>
        <time>2011-09-25T08:05:28Z</time>
      </trkpt>
      <trkpt lat="48.4324" lon="2.70612">
        <ele>131.5</ele>
        <time>2011-09-25T08:05:36Z</time>
      </trkpt>
      <trkpt lat="48.43243" lon="2.70585">
        <ele>131.363</ele>
        <time>2011-09-25T08:05:41Z</time>
      </trkpt>
      <trkpt lat="48.43247" lon="2.7056">
        <ele>132.002</ele>
        <time>2011-09-25T08:05:45Z</time>
      </trkpt>
      <trkpt lat="48.43241" lon="2.70514">
        <ele>135.408</ele>
        <time>2011-09-25T08:05:53Z</time>
      </trkpt>
      <trkpt lat="48.43224" lon="2.70485">
        <ele>137.618</ele>
        <time>2011-09-25T08:05:58Z</time>
      </trkpt>
      <trkpt lat="48.43215" lon="2.70461">
        <ele>140.377</ele>
        <time>2011-09-25T08:06:03Z</time>
      </trkpt>
      <trkpt lat="48.43181" lon="2.70412">
        <ele>144.311</ele>
        <time>2011-09-25T08:06:12Z</time>
      </trkpt>
      <trkpt lat="48.43176" lon="2.70408">
        <ele>144.354</ele>
        <time>2011-09-25T08:06:14Z</time>
      </trkpt>
      <trkpt lat="48.43174" lon="2.7041">
        <ele>144.724</ele>
        <time>2011-09-25T08:06:18Z</time>
      </trkpt>
      <trkpt lat="48.43199" lon="2.70397">
        <ele>144.4</ele>
        <time>2011-09-25T08:06:27Z</time>
      </trkpt>
      <trkpt lat="48.4322" lon="2.70392">
        <ele>142.779</ele>
        <time>2011-09-25T08:06:30Z</time>
      </trkpt>
      <trkpt lat="48.43246" lon="2.7039">
        <ele>142.294</ele>
        <time>2011-09-25T08:06:34Z</time>
      </trkpt>
      <trkpt lat="48.43267" lon="2.70389">
        <ele>141.496</ele>
        <time>2011-09-25T08:06:37Z</time>
      </trkpt>
      <trkpt lat="48.43279" lon="2.70388">
        <ele>140.227</ele>
        <time>2011-09-25T08:06:39Z</time>
      </trkpt>
      <trkpt lat="48.43303" lon="2.70395">
        <ele>139.637</ele>
        <time>2011-09-25T08:06:42Z</time>
      </trkpt>
      <trkpt lat="48.43359" lon="2.70401">
        <ele>137.062</ele>
        <time>2011-09-25T08:06:52Z</time>
      </trkpt>
      <trkpt lat="48.43416" lon="2.70414">
        <ele>134.426</ele>
        <time>2011-09-25T08:06:59Z</time>
      </trkpt>
      <trkpt lat="48.43449" lon="2.70429">
        <ele>132.389</ele>
        <time>2011-09-25T08:07:06Z</time>
      </trkpt>
      <trkpt lat="48.43476" lon="2.70453">
        <ele>126.383</ele>
        <time>2011-09-25T08:07:11Z</time>
      </trkpt>
      <trkpt lat="48.43481" lon="2.70476">
        <ele>123.664</ele>
        <time>2011-09-25T08:07:14Z</time>
      </trkpt>
      <trkpt lat="48.43481" lon="2.705">
        <ele>122.273</ele>
        <time>2011-09-25T08:07:17Z</time>
      </trkpt>
      <trkpt lat="48.43494" lon="2.70535">
        <ele>120.312</ele>
        <time>2011-09-25T08:07:21Z</time>
      </trkpt>
      <trkpt lat="48.43525" lon="2.7055">
        <ele>126.858</ele>
        <time>2011-09-25T08:07:27Z</time>
      </trkpt>
      <trkpt lat="48.43553" lon="2.70529">
        <ele>129.263</ele>
        <time>2011-09-25T08:07:35Z</time>
      </trkpt>
      <trkpt lat="48.43577" lon="2.70502">
        <ele>128.561</ele>
        <time>2011-09-25T08:07:42Z</time>
      </trkpt>
      <trkpt lat="48.43584" lon="2.70476">
        <ele>128.032</ele>
        <time>2011-09-25T08:07:48Z</time>
      </trkpt>
      <trkpt lat="48.43586" lon="2.70465">
        <ele>130.391</ele>
        <time>2011-09-25T08:07:55Z</time>
      </trkpt>
      <trkpt lat="48.43582" lon="2.70456">
        <ele>128.768</ele>
        <time>2011-09-25T08:07:58Z</time>
      </trkpt>
      <trkpt lat="48.43583" lon="2.70451">
        <ele>127.626</ele>
        <time>2011-09-25T08:08:00Z</time>
      </trkpt>
      <trkpt lat="48.43585" lon="2.70439">
        <ele>125.073</ele>
        <time>2011-09-25T08:08:07Z</time>
      </trkpt>
      <trkpt lat="48.43585" lon="2.70432">
        <ele>124.308</ele>
        <time>2011-09-25T08:08:09Z</time>
      </trkpt>
      <trkpt lat="48.43586" lon="2.70427">
        <ele>123.776</ele>
        <time>2011-09-25T08:08:11Z</time>
      </trkpt>
      <trkpt lat="48.43592" lon="2.70408">
        <ele>121.735</ele>
        <time>2011-09-25T08:08:15Z</time>
      </trkpt>
      <trkpt lat="48.43601" lon="2.70382">
        <ele>120.48</ele>
        <time>2011-09-25T08:08:25Z</time>
      </trkpt>
      <trkpt lat="48.43603" lon="2.70369">
        <ele>121.151</ele>
        <time>2011-09-25T08:08:34Z</time>
      </trkpt>
      <trkpt lat="48.43608" lon="2.70357">
        <ele>120.757</ele>
        <time>2011-09-25T08:08:41Z</time>
      </trkpt>
      <trkpt lat="48.43617" lon="2.70307">
        <ele>118.358</ele>
        <time>2011-09-25T08:08:50Z</time>
      </trkpt>
      <trkpt lat="48.43624" lon="2.70285">
        <ele>116.836</ele>
        <time>2011-09-25T08:08:56Z</time>
      </trkpt>
      <trkpt lat="48.43624" lon="2.70257">
        <ele>113.772</ele>
        <time>2011-09-25T08:09:03Z</time>
      </trkpt>
      <trkpt lat="48.43626" lon="2.70249">
        <ele>114.364</ele>
        <time>2011-09-25T08:09:06Z</time>
      </trkpt>
      <trkpt lat="48.43626" lon="2.70237">
        <ele>115.926</ele>
        <time>2011-09-25T08:09:10Z</time>
      </trkpt>
      <trkpt lat="48.43629" lon="2.70224">
        <ele>113.826</ele>
        <time>2011-09-25T08:09:15Z</time>
      </trkpt>
      <trkpt lat="48.43634" lon="2.70215">
        <ele>113.795</ele>
        <time>2011-09-25T08:09:25Z</time>
      </trkpt>
      <trkpt lat="48.43638" lon="2.70211">
        <ele>113.894</ele>
        <time>2011-09-25T08:09:33Z</time>
      </trkpt>
      <trkpt lat="48.43646" lon="2.70204">
        <ele>113.144</ele>
        <time>2011-09-25T08:09:40Z</time>
      </trkpt>
      <trkpt lat="48.43647" lon="2.70198">
        <ele>112.308</ele>
        <time>2011-09-25T08:09:54Z</time>
      </trkpt>
      <trkpt lat="48.43651" lon="2.70196">
        <ele>111.07</ele>
        <time>2011-09-25T08:10:01Z</time>
      </trkpt>
      <trkpt lat="48.43652" lon="2.70193">
        <ele>110.244</ele>
        <time>2011-09-25T08:10:04Z</time>
      </trkpt>
      <trkpt lat="48.43652" lon="2.7018">
        <ele>107.697</ele>
        <time>2011-09-25T08:10:07Z</time>
      </trkpt>
      <trkpt lat="48.43657" lon="2.70168">
        <ele>103.802</ele>
        <time>2011-09-25T08:10:18Z</time>
      </trkpt>
      <trkpt lat="48.43658" lon="2.70164">
        <ele>102.97</ele>
        <time>2011-09-25T08:10:42Z</time>
      </trkpt>
      <trkpt lat="48.43658" lon="2.70164">
        <ele>103.049</ele>
        <time>2011-09-25T08:11:27Z</time>
      </trkpt>
      <trkpt lat="48.43663" lon="2.70163">
        <ele>102.908</ele>
        <time>2011-09-25T08:11:32Z</time>
      </trkpt>
      <trkpt lat="48.4367" lon="2.7017">
        <ele>100.861</ele>
        <time>2011-09-25T08:11:43Z</time>
      </trkpt>
      <trkpt lat="48.43672" lon="2.70177">
        <ele>103.755</ele>
        <time>2011-09-25T08:11:50Z</time>
      </trkpt>
      <trkpt lat="48.43682" lon="2.70178">
        <ele>104.661</ele>
        <time>2011-09-25T08:11:56Z</time>
      </trkpt>
      <trkpt lat="48.43685" lon="2.70183">
        <ele>106.238</ele>
        <time>2011-09-25T08:11:59Z</time>
      </trkpt>
      <trkpt lat="48.43694" lon="2.70189">
        <ele>109.269</ele>
        <time>2011-09-25T08:12:06Z</time>
      </trkpt>
      <trkpt lat="48.43703" lon="2.70198">
        <ele>111.69</ele>
        <time>2011-09-25T08:12:22Z</time>
      </trkpt>
      <trkpt lat="48.43703" lon="2.70201">
        <ele>110.793</ele>
        <time>2011-09-25T08:12:36Z</time>
      </trkpt>
      <trkpt lat="48.43704" lon="2.70204">
        <ele>112.281</ele>
        <time>2011-09-25T08:12:55Z</time>
      </trkpt>
      <trkpt lat="48.43707" lon="2.70208">
        <ele>112.245</ele>
        <time>2011-09-25T08:13:09Z</time>
      </trkpt>
      <trkpt lat="48.43708" lon="2.70212">
        <ele>113.215</ele>
        <time>2011-09-25T08:13:12Z</time>
      </trkpt>
      <trkpt lat="48.43712" lon="2.70216">
        <ele>114.069</ele>
        <time>2011-09-25T08:13:15Z</time>
      </trkpt>
      <trkpt lat="48.43714" lon="2.70222">
        <ele>115.937</ele>
        <time>2011-09-25T08:13:18Z</time>
      </trkpt>
      <trkpt lat="48.43725" lon="2.70233">
        <ele>117.326</ele>
        <time>2011-09-25T08:13:30Z</time>
      </trkpt>
      <trkpt lat="48.43727" lon="2.70239">
        <ele>117.542</ele>
        <time>2011-09-25T08:13:33Z</time>
      </trkpt>
      <trkpt lat="48.4373" lon="2.70239">
        <ele>119.609</ele>
        <time>2011-09-25T08:13:36Z</time>
      </trkpt>
      <trkpt lat="48.43741" lon="2.70229">
        <ele>124.39</ele>
        <time>2011-09-25T08:13:47Z</time>
      </trkpt>
      <trkpt lat="48.43748" lon="2.70228">
        <ele>124.531</ele>
        <time>2011-09-25T08:13:52Z</time>
      </trkpt>
      <trkpt lat="48.4375" lon="2.70223">
        <ele>124.561</ele>
        <time>2011-09-25T08:13:54Z</time>
      </trkpt>
      <trkpt lat="48.4376" lon="2.70214">
        <ele>124.498</ele>
        <time>2011-09-25T08:14:06Z</time>
      </trkpt>
      <trkpt lat="48.43762" lon="2.70212">
        <ele>124.791</ele>
        <time>2011-09-25T08:14:27Z</time>
      </trkpt>
      <trkpt lat="48.43762" lon="2.70211">
        <ele>125.109</ele>
        <time>2011-09-25T08:14:29Z</time>
      </trkpt>
      <trkpt lat="48.43761" lon="2.70208">
        <ele>126.549</ele>
        <time>2011-09-25T08:14:32Z</time>
      </trkpt>
      <trkpt lat="48.43753" lon="2.70203">
        <ele>128.239</ele>
        <time>2011-09-25T08:14:37Z</time>
      </trkpt>
      <trkpt lat="48.43748" lon="2.70203">
        <ele>127.327</ele>
        <time>2011-09-25T08:14:41Z</time>
      </trkpt>
      <trkpt lat="48.43743" lon="2.70191">
        <ele>127.136</ele>
        <time>2011-09-25T08:14:44Z</time>
      </trkpt>
      <trkpt lat="48.43744" lon="2.70174">
        <ele>123.546</ele>
        <time>2011-09-25T08:14:51Z</time>
      </trkpt>
      <trkpt lat="48.43747" lon="2.70175">
        <ele>123.893</ele>
        <time>2011-09-25T08:14:53Z</time>
      </trkpt>
      <trkpt lat="48.43751" lon="2.70163">
        <ele>125.34</ele>
        <time>2011-09-25T08:14:59Z</time>
      </trkpt>
      <trkpt lat="48.4375" lon="2.70158">
        <ele>126.039</ele>
        <time>2011-09-25T08:15:17Z</time>
      </trkpt>
      <trkpt lat="48.43752" lon="2.70146">
        <ele>128.506</ele>
        <time>2011-09-25T08:15:29Z</time>
      </trkpt>
      <trkpt lat="48.4376" lon="2.70125">
        <ele>130.507</ele>
        <time>2011-09-25T08:15:40Z</time>
      </trkpt>
      <trkpt lat="48.4376" lon="2.70125">
        <ele>130.498</ele>
        <time>2011-09-25T08:15:42Z</time>
      </trkpt>
      <trkpt lat="48.43762" lon="2.70123">
        <ele>131.071</ele>
        <time>2011-09-25T08:16:06Z</time>
      </trkpt>
      <trkpt lat="48.43762" lon="2.70122">
        <ele>131.097</ele>
        <time>2011-09-25T08:16:10Z</time>
      </trkpt>
      <trkpt lat="48.43766" lon="2.70091">
        <ele>130.692</ele>
        <time>2011-09-25T08:16:19Z</time>
      </trkpt>
      <trkpt lat="48.43767" lon="2.70088">
        <ele>130.908</ele>
        <time>2011-09-25T08:16:20Z</time>
      </trkpt>
      <trkpt lat="48.43775" lon="2.7007">
        <ele>129.926</ele>
        <time>2011-09-25T08:16:26Z</time>
      </trkpt>
      <trkpt lat="48.43782" lon="2.70052">
        <ele>128.446</ele>
        <time>2011-09-25T08:16:33Z</time>
      </trkpt>
      <trkpt lat="48.43786" lon="2.70037">
        <ele>128.221</ele>
        <time>2011-09-25T08:16:39Z</time>
      </trkpt>
      <trkpt lat="48.43789" lon="2.70034">
        <ele>127.24</ele>
        <time>2011-09-25T08:16:41Z</time>
      </trkpt>
      <trkpt lat="48.4379" lon="2.70031">
        <ele>126.995</ele>
        <time>2011-09-25T08:16:46Z</time>
      </trkpt>
      <trkpt lat="48.43788" lon="2.70036">
        <ele>129.358</ele>
        <time>2011-09-25T08:17:04Z</time>
      </trkpt>
      <trkpt lat="48.43788" lon="2.70035">
        <ele>130.413</ele>
        <time>2011-09-25T08:19:15Z</time>
      </trkpt>
      <trkpt lat="48.43798" lon="2.70012">
        <ele>125.593</ele>
        <time>2011-09-25T08:19:24Z</time>
      </trkpt>
      <trkpt lat="48.43802" lon="2.70008">
        <ele>124.617</ele>
        <time>2011-09-25T08:19:27Z</time>
      </trkpt>
      <trkpt lat="48.43802" lon="2.69999">
        <ele>123.231</ele>
        <time>2011-09-25T08:19:31Z</time>
      </trkpt>
      <trkpt lat="48.43815" lon="2.69984">
        <ele>120.242</ele>
        <time>2011-09-25T08:19:37Z</time>
      </trkpt>
      <trkpt lat="48.43815" lon="2.69966">
        <ele>118.665</ele>
        <time>2011-09-25T08:19:44Z</time>
      </trkpt>
      <trkpt lat="48.43825" lon="2.69952">
        <ele>119.414</ele>
        <time>2011-09-25T08:19:52Z</time>
      </trkpt>
      <trkpt lat="48.4383" lon="2.69931">
        <ele>118.208</ele>
        <time>2011-09-25T08:19:58Z</time>
      </trkpt>
      <trkpt lat="48.43838" lon="2.69931">
        <ele>118.525</ele>
        <time>2011-09-25T08:20:01Z</time>
      </trkpt>
      <trkpt lat="48.43854" lon="2.69915">
        <ele>117.838</ele>
        <time>2011-09-25T08:20:09Z</time>
      </trkpt>
      <trkpt lat="48.43862" lon="2.69886">
        <ele>115.437</ele>
        <time>2011-09-25T08:20:19Z</time>
      </trkpt>
      <trkpt lat="48.43862" lon="2.69883">
        <ele>115.358</ele>
        <time>2011-09-25T08:20:20Z</time>
      </trkpt>
      <trkpt lat="48.43862" lon="2.69867">
        <ele>114.286</ele>
        <time>2011-09-25T08:20:25Z</time>
      </trkpt>
      <trkpt lat="48.43862" lon="2.69847">
        <ele>112.642</ele>
        <time>2011-09-25T08:20:29Z</time>
      </trkpt>
      <trkpt lat="48.43851" lon="2.69837">
        <ele>110.998</ele>
        <time>2011-09-25T08:20:36Z</time>
      </trkpt>
      <trkpt lat="48.4385" lon="2.69834">
        <ele>109.967</ele>
        <time>2011-09-25T08:20:41Z</time>
      </trkpt>
      <trkpt lat="48.43845" lon="2.69821">
        <ele>109.092</ele>
        <time>2011-09-25T08:20:46Z</time>
      </trkpt>
      <trkpt lat="48.43838" lon="2.69806">
        <ele>109.24</ele>
        <time>2011-09-25T08:20:53Z</time>
      </trkpt>
      <trkpt lat="48.43836" lon="2.698">
        <ele>109.972</ele>
        <time>2011-09-25T08:20:55Z</time>
      </trkpt>
      <trkpt lat="48.43841" lon="2.69771">
        <ele>109.614</ele>
        <time>2011-09-25T08:21:03Z</time>
      </trkpt>
      <trkpt lat="48.43851" lon="2.69752">
        <ele>110.655</ele>
        <time>2011-09-25T08:21:08Z</time>
      </trkpt>
      <trkpt lat="48.43855" lon="2.69729">
        <ele>110.669</ele>
        <time>2011-09-25T08:21:14Z</time>
      </trkpt>
      <trkpt lat="48.43857" lon="2.69721">
        <ele>109.991</ele>
        <time>2011-09-25T08:21:16Z</time>
      </trkpt>
      <trkpt lat="48.43854" lon="2.69703">
        <ele>108.698</ele>
        <time>2011-09-25T08:21:23Z</time>
      </trkpt>
      <trkpt lat="48.43853" lon="2.69695">
        <ele>109.767</ele>
        <time>2011-09-25T08:21:28Z</time>
      </trkpt>
      <trkpt lat="48.43858" lon="2.69677">
        <ele>110.101</ele>
        <time>2011-09-25T08:21:35Z</time>
      </trkpt>
      <trkpt lat="48.43862" lon="2.69652">
        <ele>108.593</ele>
        <time>2011-09-25T08:21:41Z</time>
      </trkpt>
      <trkpt lat="48.43875" lon="2.69608">
        <ele>106.356</ele>
        <time>2011-09-25T08:21:50Z</time>
      </trkpt>
      <trkpt lat="48.43885" lon="2.69588">
        <ele>108.4</ele>
        <time>2011-09-25T08:21:56Z</time>
      </trkpt>
      <trkpt lat="48.4389" lon="2.69574">
        <ele>110.576</ele>
        <time>2011-09-25T08:22:07Z</time>
      </trkpt>
      <trkpt lat="48.43893" lon="2.69567">
        <ele>110.689</ele>
        <time>2011-09-25T08:22:11Z</time>
      </trkpt>
      <trkpt lat="48.43902" lon="2.69557">
        <ele>110.575</ele>
        <time>2011-09-25T08:22:14Z</time>
      </trkpt>
      <trkpt lat="48.43898" lon="2.69513">
        <ele>111.162</ele>
        <time>2011-09-25T08:22:24Z</time>
      </trkpt>
      <trkpt lat="48.43898" lon="2.6951">
        <ele>111.514</ele>
        <time>2011-09-25T08:22:54Z</time>
      </trkpt>
      <trkpt lat="48.43898" lon="2.6951">
        <ele>111.532</ele>
        <time>2011-09-25T08:23:14Z</time>
      </trkpt>
      <trkpt lat="48.43895" lon="2.69498">
        <ele>110.862</ele>
        <time>2011-09-25T08:23:19Z</time>
      </trkpt>
      <trkpt lat="48.43886" lon="2.69495">
        <ele>110.144</ele>
        <time>2011-09-25T08:23:23Z</time>
      </trkpt>
      <trkpt lat="48.43894" lon="2.69472">
        <ele>110.97</ele>
        <time>2011-09-25T08:23:33Z</time>
      </trkpt>
      <trkpt lat="48.43896" lon="2.69463">
        <ele>111.201</ele>
        <time>2011-09-25T08:23:35Z</time>
      </trkpt>
      <trkpt lat="48.43895" lon="2.69449">
        <ele>110.396</ele>
        <time>2011-09-25T08:23:38Z</time>
      </trkpt>
      <trkpt lat="48.43892" lon="2.69444">
        <ele>110.34</ele>
        <time>2011-09-25T08:23:42Z</time>
      </trkpt>
      <trkpt lat="48.43895" lon="2.69426">
        <ele>108.787</ele>
        <time>2011-09-25T08:23:46Z</time>
      </trkpt>
      <trkpt lat="48.43902" lon="2.69406">
        <ele>107.086</ele>
        <time>2011-09-25T08:23:50Z</time>
      </trkpt>
      <trkpt lat="48.43905" lon="2.69393">
        <ele>109.168</ele>
        <time>2011-09-25T08:24:00Z</time>
      </trkpt>
      <trkpt lat="48.43904" lon="2.69393">
        <ele>108.551</ele>
        <time>2011-09-25T08:24:02Z</time>
      </trkpt>
      <trkpt lat="48.43902" lon="2.69385">
        <ele>110.054</ele>
        <time>2011-09-25T08:24:11Z</time>
      </trkpt>
      <trkpt lat="48.439" lon="2.69382">
        <ele>109.118</ele>
        <time>2011-09-25T08:24:13Z</time>
      </trkpt>
      <trkpt lat="48.43899" lon="2.69378">
        <ele>108.935</ele>
        <time>2011-09-25T08:24:15Z</time>
      </trkpt>
      <trkpt lat="48.43899" lon="2.6937">
        <ele>108.067</ele>
        <time>2011-09-25T08:24:18Z</time>
      </trkpt>
      <trkpt lat="48.43899" lon="2.69365">
        <ele>107.476</ele>
        <time>2011-09-25T08:24:20Z</time>
      </trkpt>
      <trkpt lat="48.43909" lon="2.69347">
        <ele>108.48</ele>
        <time>2011-09-25T08:24:29Z</time>
      </trkpt>
      <trkpt lat="48.43906" lon="2.6934">
        <ele>108.382</ele>
        <time>2011-09-25T08:24:32Z</time>
      </trkpt>
      <trkpt lat="48.4391" lon="2.69337">
        <ele>108.499</ele>
        <time>2011-09-25T08:24:34Z</time>
      </trkpt>
      <trkpt lat="48.43922" lon="2.69306">
        <ele>106.506</ele>
        <time>2011-09-25T08:24:41Z</time>
      </trkpt>
      <trkpt lat="48.43919" lon="2.69292">
        <ele>105.867</ele>
        <time>2011-09-25T08:24:44Z</time>
      </trkpt>
      <trkpt lat="48.43938" lon="2.69271">
        <ele>103.293</ele>
        <time>2011-09-25T08:24:51Z</time>
      </trkpt>
      <trkpt lat="48.43942" lon="2.69252">
        <ele>100.462</ele>
        <time>2011-09-25T08:24:55Z</time>
      </trkpt>
      <trkpt lat="48.43938" lon="2.69204">
        <ele>91.145</ele>
        <time>2011-09-25T08:25:04Z</time>
      </trkpt>
      <trkpt lat="48.43944" lon="2.69164">
        <ele>85.922</ele>
        <time>2011-09-25T08:25:11Z</time>
      </trkpt>
      <trkpt lat="48.43953" lon="2.69154">
        <ele>83.459</ele>
        <time>2011-09-25T08:25:15Z</time>
      </trkpt>
      <trkpt lat="48.43981" lon="2.69113">
        <ele>80.552</ele>
        <time>2011-09-25T08:25:25Z</time>
      </trkpt>
      <trkpt lat="48.43976" lon="2.69072">
        <ele>80.879</ele>
        <time>2011-09-25T08:25:31Z</time>
      </trkpt>
      <trkpt lat="48.43962" lon="2.69025">
        <ele>82.859</ele>
        <time>2011-09-25T08:25:42Z</time>
      </trkpt>
      <trkpt lat="48.43949" lon="2.69016">
        <ele>82.053</ele>
        <time>2011-09-25T08:25:50Z</time>
      </trkpt>
      <trkpt lat="48.43945" lon="2.69">
        <ele>82.308</ele>
        <time>2011-09-25T08:25:54Z</time>
      </trkpt>
      <trkpt lat="48.43941" lon="2.68967">
        <ele>83.718</ele>
        <time>2011-09-25T08:26:08Z</time>
      </trkpt>
      <trkpt lat="48.43941" lon="2.68966">
        <ele>84.794</ele>
        <time>2011-09-25T08:31:16Z</time>
      </trkpt>
      <trkpt lat="48.43942" lon="2.68959">
        <ele>85.023</ele>
        <time>2011-09-25T08:31:20Z</time>
      </trkpt>
      <trkpt lat="48.43941" lon="2.68914">
        <ele>84.016</ele>
        <time>2011-09-25T08:31:31Z</time>
      </trkpt>
      <trkpt lat="48.43937" lon="2.68871">
        <ele>78.711</ele>
        <time>2011-09-25T08:31:42Z</time>
      </trkpt>
      <trkpt lat="48.43944" lon="2.68855">
        <ele>75.987</ele>
        <time>2011-09-25T08:31:46Z</time>
      </trkpt>
      <trkpt lat="48.43953" lon="2.68844">
        <ele>76.59</ele>
        <time>2011-09-25T08:31:49Z</time>
      </trkpt>
      <trkpt lat="48.43976" lon="2.68786">
        <ele>80.292</ele>
        <time>2011-09-25T08:32:01Z</time>
      </trkpt>
      <trkpt lat="48.4398" lon="2.68726">
        <ele>81.75</ele>
        <time>2011-09-25T08:32:13Z</time>
      </trkpt>
      <trkpt lat="48.43978" lon="2.68707">
        <ele>82.327</ele>
        <time>2011-09-25T08:32:17Z</time>
      </trkpt>
      <trkpt lat="48.43977" lon="2.68694">
        <ele>82.607</ele>
        <time>2011-09-25T08:32:19Z</time>
      </trkpt>
      <trkpt lat="48.43973" lon="2.68668">
        <ele>82.94</ele>
        <time>2011-09-25T08:32:23Z</time>
      </trkpt>
      <trkpt lat="48.43964" lon="2.6864">
        <ele>82.408</ele>
        <time>2011-09-25T08:32:28Z</time>
      </trkpt>
      <trkpt lat="48.43961" lon="2.68591">
        <ele>86.996</ele>
        <time>2011-09-25T08:32:39Z</time>
      </trkpt>
      <trkpt lat="48.4396" lon="2.68588">
        <ele>87.015</ele>
        <time>2011-09-25T08:32:40Z</time>
      </trkpt>
      <trkpt lat="48.43961" lon="2.68573">
        <ele>89.056</ele>
        <time>2011-09-25T08:32:45Z</time>
      </trkpt>
      <trkpt lat="48.43964" lon="2.68555">
        <ele>91.974</ele>
        <time>2011-09-25T08:32:52Z</time>
      </trkpt>
      <trkpt lat="48.43974" lon="2.68503">
        <ele>96.222</ele>
        <time>2011-09-25T08:33:03Z</time>
      </trkpt>
      <trkpt lat="48.43982" lon="2.68483">
        <ele>96.145</ele>
        <time>2011-09-25T08:33:08Z</time>
      </trkpt>
      <trkpt lat="48.4398" lon="2.68468">
        <ele>96.299</ele>
        <time>2011-09-25T08:33:12Z</time>
      </trkpt>
      <trkpt lat="48.43978" lon="2.68459">
        <ele>96.5</ele>
        <time>2011-09-25T08:33:16Z</time>
      </trkpt>
      <trkpt lat="48.43975" lon="2.68456">
        <ele>95.845</ele>
        <time>2011-09-25T08:33:18Z</time>
      </trkpt>
      <trkpt lat="48.4396" lon="2.68421">
        <ele>98.194</ele>
        <time>2011-09-25T08:33:29Z</time>
      </trkpt>
      <trkpt lat="48.43958" lon="2.68406">
        <ele>95.566</ele>
        <time>2011-09-25T08:33:39Z</time>
      </trkpt>
      <trkpt lat="48.43958" lon="2.68405">
        <ele>95.555</ele>
        <time>2011-09-25T08:33:42Z</time>
      </trkpt>
      <trkpt lat="48.43962" lon="2.68391">
        <ele>94.088</ele>
        <time>2011-09-25T08:33:46Z</time>
      </trkpt>
      <trkpt lat="48.43971" lon="2.6836">
        <ele>94.263</ele>
        <time>2011-09-25T08:33:52Z</time>
      </trkpt>
      <trkpt lat="48.43979" lon="2.68344">
        <ele>94.537</ele>
        <time>2011-09-25T08:33:55Z</time>
      </trkpt>
      <trkpt lat="48.43997" lon="2.68323">
        <ele>94.734</ele>
        <time>2011-09-25T08:34:01Z</time>
      </trkpt>
      <trkpt lat="48.44004" lon="2.68279">
        <ele>93.848</ele>
        <time>2011-09-25T08:34:11Z</time>
      </trkpt>
      <trkpt lat="48.44007" lon="2.68267">
        <ele>92.8</ele>
        <time>2011-09-25T08:34:14Z</time>
      </trkpt>
      <trkpt lat="48.44009" lon="2.68247">
        <ele>90.384</ele>
        <time>2011-09-25T08:34:18Z</time>
      </trkpt>
      <trkpt lat="48.44017" lon="2.68229">
        <ele>88.278</ele>
        <time>2011-09-25T08:34:22Z</time>
      </trkpt>
      <trkpt lat="48.44025" lon="2.68222">
        <ele>87.687</ele>
        <time>2011-09-25T08:34:25Z</time>
      </trkpt>
      <trkpt lat="48.4403" lon="2.68197">
        <ele>85.21</ele>
        <time>2011-09-25T08:34:32Z</time>
      </trkpt>
      <trkpt lat="48.44046" lon="2.68174">
        <ele>83.815</ele>
        <time>2011-09-25T08:34:39Z</time>
      </trkpt>
      <trkpt lat="48.44054" lon="2.68155">
        <ele>84.646</ele>
        <time>2011-09-25T08:34:44Z</time>
      </trkpt>
      <trkpt lat="48.44078" lon="2.68091">
        <ele>86.141</ele>
        <time>2011-09-25T08:34:58Z</time>
      </trkpt>
      <trkpt lat="48.44092" lon="2.68062">
        <ele>90.861</ele>
        <time>2011-09-25T08:35:06Z</time>
      </trkpt>
      <trkpt lat="48.44101" lon="2.68067">
        <ele>94.4</ele>
        <time>2011-09-25T08:35:10Z</time>
      </trkpt>
      <trkpt lat="48.44109" lon="2.68054">
        <ele>93.673</ele>
        <time>2011-09-25T08:35:14Z</time>
      </trkpt>
      <trkpt lat="48.44109" lon="2.68041">
        <ele>93.118</ele>
        <time>2011-09-25T08:35:17Z</time>
      </trkpt>
      <trkpt lat="48.4411" lon="2.68027">
        <ele>92.755</ele>
        <time>2011-09-25T08:35:20Z</time>
      </trkpt>
      <trkpt lat="48.44107" lon="2.68017">
        <ele>92.552</ele>
        <time>2011-09-25T08:35:23Z</time>
      </trkpt>
      <trkpt lat="48.44106" lon="2.67997">
        <ele>93.952</ele>
        <time>2011-09-25T08:35:28Z</time>
      </trkpt>
      <trkpt lat="48.44104" lon="2.6799">
        <ele>98.435</ele>
        <time>2011-09-25T08:35:30Z</time>
      </trkpt>
      <trkpt lat="48.4411" lon="2.67984">
        <ele>100.958</ele>
        <time>2011-09-25T08:35:35Z</time>
      </trkpt>
      <trkpt lat="48.44123" lon="2.67974">
        <ele>106.271</ele>
        <time>2011-09-25T08:35:44Z</time>
      </trkpt>
      <trkpt lat="48.44124" lon="2.67973">
        <ele>107.049</ele>
        <time>2011-09-25T08:35:58Z</time>
      </trkpt>
      <trkpt lat="48.44123" lon="2.6798">
        <ele>107.033</ele>
        <time>2011-09-25T08:36:14Z</time>
      </trkpt>
      <trkpt lat="48.44107" lon="2.67985">
        <ele>106.362</ele>
        <time>2011-09-25T08:36:21Z</time>
      </trkpt>
      <trkpt lat="48.44101" lon="2.67981">
        <ele>105.523</ele>
        <time>2011-09-25T08:36:27Z</time>
      </trkpt>
      <trkpt lat="48.44104" lon="2.67954">
        <ele>103.494</ele>
        <time>2011-09-25T08:36:34Z</time>
      </trkpt>
      <trkpt lat="48.44104" lon="2.67944">
        <ele>102.197</ele>
        <time>2011-09-25T08:36:38Z</time>
      </trkpt>
      <trkpt lat="48.44101" lon="2.67934">
        <ele>102.004</ele>
        <time>2011-09-25T08:36:40Z</time>
      </trkpt>
      <trkpt lat="48.44108" lon="2.67899">
        <ele>102.922</ele>
        <time>2011-09-25T08:36:48Z</time>
      </trkpt>
      <trkpt lat="48.4411" lon="2.67896">
        <ele>102.832</ele>
        <time>2011-09-25T08:36:49Z</time>
      </trkpt>
      <trkpt lat="48.44116" lon="2.67884">
        <ele>104.571</ele>
        <time>2011-09-25T08:36:53Z</time>
      </trkpt>
      <trkpt lat="48.44118" lon="2.67872">
        <ele>103.833</ele>
        <time>2011-09-25T08:36:57Z</time>
      </trkpt>
      <trkpt lat="48.44118" lon="2.67854">
        <ele>103.199</ele>
        <time>2011-09-25T08:37:00Z</time>
      </trkpt>
      <trkpt lat="48.44132" lon="2.6782">
        <ele>100.079</ele>
        <time>2011-09-25T08:37:09Z</time>
      </trkpt>
      <trkpt lat="48.44136" lon="2.67795">
        <ele>99.031</ele>
        <time>2011-09-25T08:37:17Z</time>
      </trkpt>
      <trkpt lat="48.44135" lon="2.67787">
        <ele>99.302</ele>
        <time>2011-09-25T08:37:20Z</time>
      </trkpt>
      <trkpt lat="48.4413" lon="2.67755">
        <ele>96.318</ele>
        <time>2011-09-25T08:37:28Z</time>
      </trkpt>
      <trkpt lat="48.44119" lon="2.67727">
        <ele>96.429</ele>
        <time>2011-09-25T08:37:33Z</time>
      </trkpt>
      <trkpt lat="48.44118" lon="2.67713">
        <ele>95.637</ele>
        <time>2011-09-25T08:37:38Z</time>
      </trkpt>
      <trkpt lat="48.44137" lon="2.67696">
        <ele>94.91</ele>
        <time>2011-09-25T08:37:46Z</time>
      </trkpt>
      <trkpt lat="48.44149" lon="2.67669">
        <ele>95.596</ele>
        <time>2011-09-25T08:37:53Z</time>
      </trkpt>
      <trkpt lat="48.44169" lon="2.6763">
        <ele>97.524</ele>
        <time>2011-09-25T08:38:03Z</time>
      </trkpt>
      <trkpt lat="48.44188" lon="2.67618">
        <ele>104.135</ele>
        <time>2011-09-25T08:38:12Z</time>
      </trkpt>
      <trkpt lat="48.44197" lon="2.67602">
        <ele>107.822</ele>
        <time>2011-09-25T08:38:17Z</time>
      </trkpt>
      <trkpt lat="48.44204" lon="2.67589">
        <ele>110.568</ele>
        <time>2011-09-25T08:38:21Z</time>
      </trkpt>
      <trkpt lat="48.44214" lon="2.67566">
        <ele>113.5</ele>
        <time>2011-09-25T08:38:28Z</time>
      </trkpt>
      <trkpt lat="48.44216" lon="2.67547">
        <ele>115.746</ele>
        <time>2011-09-25T08:38:34Z</time>
      </trkpt>
      <trkpt lat="48.44216" lon="2.67533">
        <ele>117.443</ele>
        <time>2011-09-25T08:38:38Z</time>
      </trkpt>
      <trkpt lat="48.44215" lon="2.67496">
        <ele>117.859</ele>
        <time>2011-09-25T08:38:47Z</time>
      </trkpt>
      <trkpt lat="48.44219" lon="2.6746">
        <ele>119.866</ele>
        <time>2011-09-25T08:38:57Z</time>
      </trkpt>
      <trkpt lat="48.44223" lon="2.67438">
        <ele>119.915</ele>
        <time>2011-09-25T08:39:01Z</time>
      </trkpt>
      <trkpt lat="48.44254" lon="2.67396">
        <ele>119.469</ele>
        <time>2011-09-25T08:39:14Z</time>
      </trkpt>
      <trkpt lat="48.44277" lon="2.67394">
        <ele>122.161</ele>
        <time>2011-09-25T08:39:22Z</time>
      </trkpt>
      <trkpt lat="48.44287" lon="2.6737">
        <ele>128.805</ele>
        <time>2011-09-25T08:39:33Z</time>
      </trkpt>
      <trkpt lat="48.44296" lon="2.67348">
        <ele>132.92</ele>
        <time>2011-09-25T08:39:45Z</time>
      </trkpt>
      <trkpt lat="48.44302" lon="2.67336">
        <ele>138.693</ele>
        <time>2011-09-25T08:39:54Z</time>
      </trkpt>
      <trkpt lat="48.44302" lon="2.67333">
        <ele>140.183</ele>
        <time>2011-09-25T08:39:56Z</time>
      </trkpt>
      <trkpt lat="48.44306" lon="2.67323">
        <ele>141.807</ele>
        <time>2011-09-25T08:40:01Z</time>
      </trkpt>
      <trkpt lat="48.44311" lon="2.67313">
        <ele>142.623</ele>
        <time>2011-09-25T08:40:13Z</time>
      </trkpt>
      <trkpt lat="48.4431" lon="2.67313">
        <ele>142.407</ele>
        <time>2011-09-25T08:41:27Z</time>
      </trkpt>
      <trkpt lat="48.4431" lon="2.67318">
        <ele>142.589</ele>
        <time>2011-09-25T08:41:30Z</time>
      </trkpt>
      <trkpt lat="48.44309" lon="2.67324">
        <ele>142.556</ele>
        <time>2011-09-25T08:41:32Z</time>
      </trkpt>
      <trkpt lat="48.4431" lon="2.67346">
        <ele>141.442</ele>
        <time>2011-09-25T08:41:37Z</time>
      </trkpt>
      <trkpt lat="48.44329" lon="2.67377">
        <ele>142.95</ele>
        <time>2011-09-25T08:41:47Z</time>
      </trkpt>
      <trkpt lat="48.44327" lon="2.67387">
        <ele>143.577</ele>
        <time>2011-09-25T08:41:51Z</time>
      </trkpt>
      <trkpt lat="48.44325" lon="2.67401">
        <ele>144.895</ele>
        <time>2011-09-25T08:41:55Z</time>
      </trkpt>
      <trkpt lat="48.44324" lon="2.67457">
        <ele>145.397</ele>
        <time>2011-09-25T08:42:04Z</time>
      </trkpt>
      <trkpt lat="48.44317" lon="2.67492">
        <ele>144.684</ele>
        <time>2011-09-25T08:42:10Z</time>
      </trkpt>
      <trkpt lat="48.4431" lon="2.67501">
        <ele>144.091</ele>
        <time>2011-09-25T08:42:13Z</time>
      </trkpt>
      <trkpt lat="48.44296" lon="2.67534">
        <ele>143.565</ele>
        <time>2011-09-25T08:42:19Z</time>
      </trkpt>
      <trkpt lat="48.44288" lon="2.67577">
        <ele>144.565</ele>
        <time>2011-09-25T08:42:26Z</time>
      </trkpt>
      <trkpt lat="48.44287" lon="2.6763">
        <ele>145.543</ele>
        <time>2011-09-25T08:42:36Z</time>
      </trkpt>
      <trkpt lat="48.44281" lon="2.67647">
        <ele>146.287</ele>
        <time>2011-09-25T08:42:39Z</time>
      </trkpt>
      <trkpt lat="48.44279" lon="2.67667">
        <ele>146.739</ele>
        <time>2011-09-25T08:42:42Z</time>
      </trkpt>
      <trkpt lat="48.44287" lon="2.67675">
        <ele>145.877</ele>
        <time>2011-09-25T08:42:45Z</time>
      </trkpt>
      <trkpt lat="48.44284" lon="2.67686">
        <ele>145.487</ele>
        <time>2011-09-25T08:42:48Z</time>
      </trkpt>
      <trkpt lat="48.44284" lon="2.67729">
        <ele>145.311</ele>
        <time>2011-09-25T08:42:55Z</time>
      </trkpt>
      <trkpt lat="48.44285" lon="2.67755">
        <ele>143.729</ele>
        <time>2011-09-25T08:43:00Z</time>
      </trkpt>
      <trkpt lat="48.44284" lon="2.67784">
        <ele>140.856</ele>
        <time>2011-09-25T08:43:07Z</time>
      </trkpt>
      <trkpt lat="48.44284" lon="2.67789">
        <ele>140.627</ele>
        <time>2011-09-25T08:43:08Z</time>
      </trkpt>
      <trkpt lat="48.44278" lon="2.67811">
        <ele>139.555</ele>
        <time>2011-09-25T08:43:12Z</time>
      </trkpt>
      <trkpt lat="48.44278" lon="2.67835">
        <ele>136.158</ele>
        <time>2011-09-25T08:43:17Z</time>
      </trkpt>
      <trkpt lat="48.44271" lon="2.67847">
        <ele>136.204</ele>
        <time>2011-09-25T08:43:20Z</time>
      </trkpt>
      <trkpt lat="48.44269" lon="2.67878">
        <ele>134.982</ele>
        <time>2011-09-25T08:43:26Z</time>
      </trkpt>
      <trkpt lat="48.44262" lon="2.67905">
        <ele>137.242</ele>
        <time>2011-09-25T08:43:33Z</time>
      </trkpt>
      <trkpt lat="48.4426" lon="2.6791">
        <ele>137.233</ele>
        <time>2011-09-25T08:43:35Z</time>
      </trkpt>
      <trkpt lat="48.44258" lon="2.6794">
        <ele>135.689</ele>
        <time>2011-09-25T08:43:41Z</time>
      </trkpt>
      <trkpt lat="48.44253" lon="2.67989">
        <ele>135.529</ele>
        <time>2011-09-25T08:43:52Z</time>
      </trkpt>
      <trkpt lat="48.44253" lon="2.67994">
        <ele>135.592</ele>
        <time>2011-09-25T08:43:53Z</time>
      </trkpt>
      <trkpt lat="48.44264" lon="2.68012">
        <ele>136.938</ele>
        <time>2011-09-25T08:44:01Z</time>
      </trkpt>
      <trkpt lat="48.44268" lon="2.6801">
        <ele>136.494</ele>
        <time>2011-09-25T08:44:16Z</time>
      </trkpt>
      <trkpt lat="48.44268" lon="2.6801">
        <ele>136.439</ele>
        <time>2011-09-25T08:44:53Z</time>
      </trkpt>
      <trkpt lat="48.44264" lon="2.68015">
        <ele>136.233</ele>
        <time>2011-09-25T08:44:56Z</time>
      </trkpt>
      <trkpt lat="48.44257" lon="2.68026">
        <ele>136.988</ele>
        <time>2011-09-25T08:45:01Z</time>
      </trkpt>
      <trkpt lat="48.44242" lon="2.6803">
        <ele>136.594</ele>
        <time>2011-09-25T08:45:11Z</time>
      </trkpt>
      <trkpt lat="48.44228" lon="2.6805">
        <ele>137.474</ele>
        <time>2011-09-25T08:45:19Z</time>
      </trkpt>
      <trkpt lat="48.44227" lon="2.68065">
        <ele>137.54</ele>
        <time>2011-09-25T08:45:23Z</time>
      </trkpt>
      <trkpt lat="48.44236" lon="2.681">
        <ele>134.299</ele>
        <time>2011-09-25T08:45:32Z</time>
      </trkpt>
      <trkpt lat="48.44232" lon="2.68114">
        <ele>133.361</ele>
        <time>2011-09-25T08:45:36Z</time>
      </trkpt>
      <trkpt lat="48.44227" lon="2.68118">
        <ele>133.967</ele>
        <time>2011-09-25T08:45:39Z</time>
      </trkpt>
      <trkpt lat="48.44222" lon="2.68135">
        <ele>133.312</ele>
        <time>2011-09-25T08:45:44Z</time>
      </trkpt>
      <trkpt lat="48.44212" lon="2.68145">
        <ele>135.157</ele>
        <time>2011-09-25T08:45:49Z</time>
      </trkpt>
      <trkpt lat="48.44208" lon="2.68161">
        <ele>135.258</ele>
        <time>2011-09-25T08:46:02Z</time>
      </trkpt>
      <trkpt lat="48.44205" lon="2.68172">
        <ele>134.178</ele>
        <time>2011-09-25T08:46:20Z</time>
      </trkpt>
      <trkpt lat="48.44185" lon="2.68177">
        <ele>131.807</ele>
        <time>2011-09-25T08:46:32Z</time>
      </trkpt>
      <trkpt lat="48.44183" lon="2.68176">
        <ele>130.89</ele>
        <time>2011-09-25T08:46:34Z</time>
      </trkpt>
      <trkpt lat="48.44178" lon="2.68177">
        <ele>130.239</ele>
        <time>2011-09-25T08:46:41Z</time>
      </trkpt>
      <trkpt lat="48.44173" lon="2.68181">
        <ele>130.343</ele>
        <time>2011-09-25T08:46:47Z</time>
      </trkpt>
      <trkpt lat="48.44175" lon="2.68196">
        <ele>130.182</ele>
        <time>2011-09-25T08:46:57Z</time>
      </trkpt>
      <trkpt lat="48.44178" lon="2.68204">
        <ele>130.105</ele>
        <time>2011-09-25T08:47:08Z</time>
      </trkpt>
      <trkpt lat="48.44179" lon="2.68206">
        <ele>129.732</ele>
        <time>2011-09-25T08:47:12Z</time>
      </trkpt>
      <trkpt lat="48.44173" lon="2.68217">
        <ele>129.335</ele>
        <time>2011-09-25T08:47:18Z</time>
      </trkpt>
      <trkpt lat="48.44169" lon="2.68217">
        <ele>128.494</ele>
        <time>2011-09-25T08:47:22Z</time>
      </trkpt>
      <trkpt lat="48.44166" lon="2.68226">
        <ele>126.963</ele>
        <time>2011-09-25T08:47:26Z</time>
      </trkpt>
      <trkpt lat="48.44158" lon="2.68233">
        <ele>127.977</ele>
        <time>2011-09-25T08:47:30Z</time>
      </trkpt>
      <trkpt lat="48.44143" lon="2.68236">
        <ele>127.296</ele>
        <time>2011-09-25T08:47:37Z</time>
      </trkpt>
      <trkpt lat="48.44139" lon="2.68245">
        <ele>125.577</ele>
        <time>2011-09-25T08:47:41Z</time>
      </trkpt>
      <trkpt lat="48.44136" lon="2.68251">
        <ele>124.403</ele>
        <time>2011-09-25T08:47:44Z</time>
      </trkpt>
      <trkpt lat="48.44128" lon="2.68258">
        <ele>121.11</ele>
        <time>2011-09-25T08:47:55Z</time>
      </trkpt>
      <trkpt lat="48.44126" lon="2.68257">
        <ele>121.844</ele>
        <time>2011-09-25T08:48:24Z</time>
      </trkpt>
      <trkpt lat="48.44124" lon="2.68267">
        <ele>120.155</ele>
        <time>2011-09-25T08:48:29Z</time>
      </trkpt>
      <trkpt lat="48.44122" lon="2.68272">
        <ele>118.485</ele>
        <time>2011-09-25T08:48:31Z</time>
      </trkpt>
      <trkpt lat="48.44122" lon="2.68281">
        <ele>116.071</ele>
        <time>2011-09-25T08:48:34Z</time>
      </trkpt>
      <trkpt lat="48.44113" lon="2.68294">
        <ele>111.756</ele>
        <time>2011-09-25T08:48:41Z</time>
      </trkpt>
      <trkpt lat="48.4411" lon="2.68303">
        <ele>105.259</ele>
        <time>2011-09-25T08:48:49Z</time>
      </trkpt>
      <trkpt lat="48.44109" lon="2.68306">
        <ele>107.551</ele>
        <time>2011-09-25T08:49:38Z</time>
      </trkpt>
      <trkpt lat="48.44109" lon="2.68307">
        <ele>107.658</ele>
        <time>2011-09-25T08:50:30Z</time>
      </trkpt>
      <trkpt lat="48.44113" lon="2.68311">
        <ele>107.639</ele>
        <time>2011-09-25T08:50:34Z</time>
      </trkpt>
      <trkpt lat="48.44116" lon="2.68312">
        <ele>107.535</ele>
        <time>2011-09-25T08:50:36Z</time>
      </trkpt>
      <trkpt lat="48.44119" lon="2.68312">
        <ele>107.164</ele>
        <time>2011-09-25T08:50:38Z</time>
      </trkpt>
      <trkpt lat="48.44146" lon="2.68346">
        <ele>104.93</ele>
        <time>2011-09-25T08:50:47Z</time>
      </trkpt>
      <trkpt lat="48.44161" lon="2.68348">
        <ele>105.514</ele>
        <time>2011-09-25T08:50:50Z</time>
      </trkpt>
      <trkpt lat="48.44191" lon="2.68354">
        <ele>105.098</ele>
        <time>2011-09-25T08:50:56Z</time>
      </trkpt>
      <trkpt lat="48.44209" lon="2.68394">
        <ele>103.748</ele>
        <time>2011-09-25T08:51:03Z</time>
      </trkpt>
      <trkpt lat="48.4423" lon="2.68423">
        <ele>102.844</ele>
        <time>2011-09-25T08:51:08Z</time>
      </trkpt>
      <trkpt lat="48.44241" lon="2.68435">
        <ele>103.853</ele>
        <time>2011-09-25T08:51:11Z</time>
      </trkpt>
      <trkpt lat="48.44247" lon="2.68431">
        <ele>103.533</ele>
        <time>2011-09-25T08:51:21Z</time>
      </trkpt>
      <trkpt lat="48.44247" lon="2.68431">
        <ele>103.738</ele>
        <time>2011-09-25T08:51:31Z</time>
      </trkpt>
      <trkpt lat="48.44243" lon="2.68422">
        <ele>105.011</ele>
        <time>2011-09-25T08:51:35Z</time>
      </trkpt>
      <trkpt lat="48.44244" lon="2.68409">
        <ele>104.166</ele>
        <time>2011-09-25T08:51:38Z</time>
      </trkpt>
      <trkpt lat="48.44252" lon="2.68366">
        <ele>104.24</ele>
        <time>2011-09-25T08:51:48Z</time>
      </trkpt>
      <trkpt lat="48.44254" lon="2.68358">
        <ele>104.687</ele>
        <time>2011-09-25T08:51:50Z</time>
      </trkpt>
      <trkpt lat="48.44254" lon="2.68344">
        <ele>105.78</ele>
        <time>2011-09-25T08:51:53Z</time>
      </trkpt>
      <trkpt lat="48.4426" lon="2.68286">
        <ele>106.393</ele>
        <time>2011-09-25T08:52:06Z</time>
      </trkpt>
      <trkpt lat="48.44264" lon="2.68236">
        <ele>108.232</ele>
        <time>2011-09-25T08:52:17Z</time>
      </trkpt>
      <trkpt lat="48.44263" lon="2.68213">
        <ele>109.366</ele>
        <time>2011-09-25T08:52:24Z</time>
      </trkpt>
      <trkpt lat="48.44264" lon="2.68194">
        <ele>111.685</ele>
        <time>2011-09-25T08:52:29Z</time>
      </trkpt>
      <trkpt lat="48.44262" lon="2.68179">
        <ele>113.477</ele>
        <time>2011-09-25T08:52:33Z</time>
      </trkpt>
      <trkpt lat="48.44268" lon="2.68145">
        <ele>113.675</ele>
        <time>2011-09-25T08:52:41Z</time>
      </trkpt>
      <trkpt lat="48.44266" lon="2.68122">
        <ele>117.365</ele>
        <time>2011-09-25T08:52:47Z</time>
      </trkpt>
      <trkpt lat="48.4427" lon="2.68068">
        <ele>126.74</ele>
        <time>2011-09-25T08:53:00Z</time>
      </trkpt>
      <trkpt lat="48.44274" lon="2.68012">
        <ele>131.012</ele>
        <time>2011-09-25T08:53:15Z</time>
      </trkpt>
      <trkpt lat="48.44275" lon="2.68009">
        <ele>131.333</ele>
        <time>2011-09-25T08:53:16Z</time>
      </trkpt>
      <trkpt lat="48.44284" lon="2.68019">
        <ele>133.957</ele>
        <time>2011-09-25T08:53:23Z</time>
      </trkpt>
      <trkpt lat="48.44288" lon="2.68063">
        <ele>137.484</ele>
        <time>2011-09-25T08:53:32Z</time>
      </trkpt>
      <trkpt lat="48.44288" lon="2.68068">
        <ele>137.43</ele>
        <time>2011-09-25T08:53:33Z</time>
      </trkpt>
      <trkpt lat="48.44298" lon="2.68103">
        <ele>137.689</ele>
        <time>2011-09-25T08:53:41Z</time>
      </trkpt>
      <trkpt lat="48.44294" lon="2.68142">
        <ele>139.227</ele>
        <time>2011-09-25T08:53:48Z</time>
      </trkpt>
      <trkpt lat="48.44305" lon="2.68157">
        <ele>140.698</ele>
        <time>2011-09-25T08:53:55Z</time>
      </trkpt>
      <trkpt lat="48.44309" lon="2.68168">
        <ele>138.317</ele>
        <time>2011-09-25T08:53:59Z</time>
      </trkpt>
      <trkpt lat="48.44325" lon="2.68194">
        <ele>138.594</ele>
        <time>2011-09-25T08:54:06Z</time>
      </trkpt>
      <trkpt lat="48.44329" lon="2.68207">
        <ele>137.45</ele>
        <time>2011-09-25T08:54:09Z</time>
      </trkpt>
      <trkpt lat="48.4434" lon="2.68219">
        <ele>136.673</ele>
        <time>2011-09-25T08:54:14Z</time>
      </trkpt>
      <trkpt lat="48.44342" lon="2.68236">
        <ele>136.112</ele>
        <time>2011-09-25T08:54:18Z</time>
      </trkpt>
      <trkpt lat="48.44345" lon="2.68243">
        <ele>136.522</ele>
        <time>2011-09-25T08:54:20Z</time>
      </trkpt>
      <trkpt lat="48.44351" lon="2.68258">
        <ele>135.103</ele>
        <time>2011-09-25T08:54:32Z</time>
      </trkpt>
      <trkpt lat="48.44352" lon="2.68256">
        <ele>133.281</ele>
        <time>2011-09-25T08:54:58Z</time>
      </trkpt>
      <trkpt lat="48.44369" lon="2.68248">
        <ele>134.142</ele>
        <time>2011-09-25T08:55:06Z</time>
      </trkpt>
      <trkpt lat="48.44374" lon="2.68248">
        <ele>133.437</ele>
        <time>2011-09-25T08:55:08Z</time>
      </trkpt>
      <trkpt lat="48.44382" lon="2.68246">
        <ele>134.036</ele>
        <time>2011-09-25T08:55:11Z</time>
      </trkpt>
      <trkpt lat="48.44394" lon="2.68239">
        <ele>133.656</ele>
        <time>2011-09-25T08:55:16Z</time>
      </trkpt>
      <trkpt lat="48.44407" lon="2.68233">
        <ele>135.95</ele>
        <time>2011-09-25T08:55:21Z</time>
      </trkpt>
      <trkpt lat="48.4441" lon="2.68198">
        <ele>136.919</ele>
        <time>2011-09-25T08:55:30Z</time>
      </trkpt>
      <trkpt lat="48.44414" lon="2.68184">
        <ele>135.148</ele>
        <time>2011-09-25T08:55:33Z</time>
      </trkpt>
      <trkpt lat="48.44417" lon="2.68163">
        <ele>133.291</ele>
        <time>2011-09-25T08:55:37Z</time>
      </trkpt>
      <trkpt lat="48.44423" lon="2.68131">
        <ele>132.028</ele>
        <time>2011-09-25T08:55:43Z</time>
      </trkpt>
      <trkpt lat="48.44434" lon="2.68104">
        <ele>131.67</ele>
        <time>2011-09-25T08:55:47Z</time>
      </trkpt>
      <trkpt lat="48.44445" lon="2.6809">
        <ele>132.321</ele>
        <time>2011-09-25T08:55:50Z</time>
      </trkpt>
      <trkpt lat="48.44456" lon="2.68068">
        <ele>133.039</ele>
        <time>2011-09-25T08:55:54Z</time>
      </trkpt>
      <trkpt lat="48.44461" lon="2.68049">
        <ele>132.242</ele>
        <time>2011-09-25T08:55:57Z</time>
      </trkpt>
      <trkpt lat="48.44469" lon="2.68036">
        <ele>132.464</ele>
        <time>2011-09-25T08:55:59Z</time>
      </trkpt>
      <trkpt lat="48.44496" lon="2.68018">
        <ele>134.184</ele>
        <time>2011-09-25T08:56:05Z</time>
      </trkpt>
      <trkpt lat="48.44532" lon="2.6803">
        <ele>138.903</ele>
        <time>2011-09-25T08:56:14Z</time>
      </trkpt>
      <trkpt lat="48.44542" lon="2.68033">
        <ele>139.673</ele>
        <time>2011-09-25T08:56:16Z</time>
      </trkpt>
      <trkpt lat="48.4457" lon="2.68028">
        <ele>139.327</ele>
        <time>2011-09-25T08:56:22Z</time>
      </trkpt>
      <trkpt lat="48.44576" lon="2.68025">
        <ele>138.672</ele>
        <time>2011-09-25T08:56:24Z</time>
      </trkpt>
      <trkpt lat="48.44578" lon="2.67996">
        <ele>136.689</ele>
        <time>2011-09-25T08:56:31Z</time>
      </trkpt>
      <trkpt lat="48.44577" lon="2.67992">
        <ele>136.206</ele>
        <time>2011-09-25T08:56:32Z</time>
      </trkpt>
      <trkpt lat="48.44575" lon="2.6798">
        <ele>135.925</ele>
        <time>2011-09-25T08:56:34Z</time>
      </trkpt>
      <trkpt lat="48.44574" lon="2.67958">
        <ele>135.285</ele>
        <time>2011-09-25T08:56:37Z</time>
      </trkpt>
      <trkpt lat="48.44567" lon="2.67919">
        <ele>136.32</ele>
        <time>2011-09-25T08:56:44Z</time>
      </trkpt>
      <trkpt lat="48.44568" lon="2.67905">
        <ele>135.849</ele>
        <time>2011-09-25T08:56:55Z</time>
      </trkpt>
      <trkpt lat="48.44553" lon="2.67874">
        <ele>134.418</ele>
        <time>2011-09-25T08:57:03Z</time>
      </trkpt>
      <trkpt lat="48.4455" lon="2.67857">
        <ele>133.539</ele>
        <time>2011-09-25T08:57:07Z</time>
      </trkpt>
      <trkpt lat="48.44551" lon="2.67826">
        <ele>132.389</ele>
        <time>2011-09-25T08:57:11Z</time>
      </trkpt>
      <trkpt lat="48.44555" lon="2.6778">
        <ele>131.833</ele>
        <time>2011-09-25T08:57:19Z</time>
      </trkpt>
      <trkpt lat="48.44539" lon="2.67773">
        <ele>133.853</ele>
        <time>2011-09-25T08:57:22Z</time>
      </trkpt>
      <trkpt lat="48.445" lon="2.67769">
        <ele>134.195</ele>
        <time>2011-09-25T08:57:34Z</time>
      </trkpt>
      <trkpt lat="48.44482" lon="2.6777">
        <ele>134.601</ele>
        <time>2011-09-25T08:57:38Z</time>
      </trkpt>
      <trkpt lat="48.44466" lon="2.6776">
        <ele>134.962</ele>
        <time>2011-09-25T08:57:43Z</time>
      </trkpt>
      <trkpt lat="48.44462" lon="2.67734">
        <ele>134.071</ele>
        <time>2011-09-25T08:57:48Z</time>
      </trkpt>
      <trkpt lat="48.44468" lon="2.67697">
        <ele>133.724</ele>
        <time>2011-09-25T08:57:55Z</time>
      </trkpt>
      <trkpt lat="48.44472" lon="2.67684">
        <ele>133.482</ele>
        <time>2011-09-25T08:57:59Z</time>
      </trkpt>
      <trkpt lat="48.44471" lon="2.67652">
        <ele>132.575</ele>
        <time>2011-09-25T08:58:07Z</time>
      </trkpt>
      <trkpt lat="48.44473" lon="2.67645">
        <ele>132.722</ele>
        <time>2011-09-25T08:58:10Z</time>
      </trkpt>
      <trkpt lat="48.44479" lon="2.67636">
        <ele>137.46</ele>
        <time>2011-09-25T08:58:19Z</time>
      </trkpt>
      <trkpt lat="48.44478" lon="2.67621">
        <ele>137.27</ele>
        <time>2011-09-25T08:58:24Z</time>
      </trkpt>
      <trkpt lat="48.44477" lon="2.67615">
        <ele>138.408</ele>
        <time>2011-09-25T08:58:26Z</time>
      </trkpt>
      <trkpt lat="48.44484" lon="2.67575">
        <ele>140.833</ele>
        <time>2011-09-25T08:58:35Z</time>
      </trkpt>
      <trkpt lat="48.44498" lon="2.67571">
        <ele>142.405</ele>
        <time>2011-09-25T08:58:41Z</time>
      </trkpt>
      <trkpt lat="48.44531" lon="2.67585">
        <ele>141.604</ele>
        <time>2011-09-25T08:58:52Z</time>
      </trkpt>
      <trkpt lat="48.44557" lon="2.67567">
        <ele>138.187</ele>
        <time>2011-09-25T08:58:58Z</time>
      </trkpt>
      <trkpt lat="48.44562" lon="2.67557">
        <ele>136.846</ele>
        <time>2011-09-25T08:59:00Z</time>
      </trkpt>
      <trkpt lat="48.44593" lon="2.67551">
        <ele>132.546</ele>
        <time>2011-09-25T08:59:05Z</time>
      </trkpt>
      <trkpt lat="48.4461" lon="2.67553">
        <ele>129.735</ele>
        <time>2011-09-25T08:59:08Z</time>
      </trkpt>
      <trkpt lat="48.4462" lon="2.67553">
        <ele>128.264</ele>
        <time>2011-09-25T08:59:10Z</time>
      </trkpt>
      <trkpt lat="48.44638" lon="2.67567">
        <ele>126.772</ele>
        <time>2011-09-25T08:59:15Z</time>
      </trkpt>
      <trkpt lat="48.44638" lon="2.67575">
        <ele>125.22</ele>
        <time>2011-09-25T08:59:19Z</time>
      </trkpt>
      <trkpt lat="48.44638" lon="2.67583">
        <ele>123.964</ele>
        <time>2011-09-25T08:59:22Z</time>
      </trkpt>
      <trkpt lat="48.44638" lon="2.67586">
        <ele>123.694</ele>
        <time>2011-09-25T08:59:24Z</time>
      </trkpt>
      <trkpt lat="48.44657" lon="2.67611">
        <ele>123.078</ele>
        <time>2011-09-25T08:59:34Z</time>
      </trkpt>
      <trkpt lat="48.44659" lon="2.67617">
        <ele>122.89</ele>
        <time>2011-09-25T08:59:35Z</time>
      </trkpt>
      <trkpt lat="48.44679" lon="2.67643">
        <ele>121.002</ele>
        <time>2011-09-25T08:59:40Z</time>
      </trkpt>
      <trkpt lat="48.44693" lon="2.67659">
        <ele>119.847</ele>
        <time>2011-09-25T08:59:43Z</time>
      </trkpt>
      <trkpt lat="48.44712" lon="2.6768">
        <ele>117.389</ele>
        <time>2011-09-25T08:59:47Z</time>
      </trkpt>
      <trkpt lat="48.44724" lon="2.67666">
        <ele>118.39</ele>
        <time>2011-09-25T08:59:54Z</time>
      </trkpt>
      <trkpt lat="48.4473" lon="2.67668">
        <ele>120.483</ele>
        <time>2011-09-25T08:59:57Z</time>
      </trkpt>
      <trkpt lat="48.44752" lon="2.6768">
        <ele>124.629</ele>
        <time>2011-09-25T09:00:08Z</time>
      </trkpt>
      <trkpt lat="48.44768" lon="2.67698">
        <ele>126.844</ele>
        <time>2011-09-25T09:00:20Z</time>
      </trkpt>
      <trkpt lat="48.44783" lon="2.67726">
        <ele>127.444</ele>
        <time>2011-09-25T09:00:29Z</time>
      </trkpt>
      <trkpt lat="48.44794" lon="2.67743">
        <ele>126.946</ele>
        <time>2011-09-25T09:00:33Z</time>
      </trkpt>
      <trkpt lat="48.44807" lon="2.67753">
        <ele>131.731</ele>
        <time>2011-09-25T09:00:38Z</time>
      </trkpt>
      <trkpt lat="48.44817" lon="2.67753">
        <ele>133.834</ele>
        <time>2011-09-25T09:00:42Z</time>
      </trkpt>
      <trkpt lat="48.44827" lon="2.67752">
        <ele>134.319</ele>
        <time>2011-09-25T09:00:46Z</time>
      </trkpt>
      <trkpt lat="48.44839" lon="2.67718">
        <ele>133.216</ele>
        <time>2011-09-25T09:00:54Z</time>
      </trkpt>
      <trkpt lat="48.44846" lon="2.67695">
        <ele>132.54</ele>
        <time>2011-09-25T09:00:58Z</time>
      </trkpt>
      <trkpt lat="48.4485" lon="2.67679">
        <ele>131.948</ele>
        <time>2011-09-25T09:01:01Z</time>
      </trkpt>
      <trkpt lat="48.4487" lon="2.67649">
        <ele>134.73</ele>
        <time>2011-09-25T09:01:09Z</time>
      </trkpt>
      <trkpt lat="48.44882" lon="2.67637">
        <ele>135.103</ele>
        <time>2011-09-25T09:01:13Z</time>
      </trkpt>
      <trkpt lat="48.44892" lon="2.67631">
        <ele>133.476</ele>
        <time>2011-09-25T09:01:15Z</time>
      </trkpt>
      <trkpt lat="48.44912" lon="2.67618">
        <ele>131.803</ele>
        <time>2011-09-25T09:01:20Z</time>
      </trkpt>
      <trkpt lat="48.44947" lon="2.67622">
        <ele>132.402</ele>
        <time>2011-09-25T09:01:28Z</time>
      </trkpt>
      <trkpt lat="48.44962" lon="2.67614">
        <ele>133.561</ele>
        <time>2011-09-25T09:01:32Z</time>
      </trkpt>
      <trkpt lat="48.44976" lon="2.67605">
        <ele>134.753</ele>
        <time>2011-09-25T09:01:36Z</time>
      </trkpt>
      <trkpt lat="48.44983" lon="2.67616">
        <ele>135.734</ele>
        <time>2011-09-25T09:01:46Z</time>
      </trkpt>
      <trkpt lat="48.44997" lon="2.67635">
        <ele>136.312</ele>
        <time>2011-09-25T09:02:21Z</time>
      </trkpt>
      <trkpt lat="48.4501" lon="2.67652">
        <ele>136.025</ele>
        <time>2011-09-25T09:02:25Z</time>
      </trkpt>
      <trkpt lat="48.45019" lon="2.67667">
        <ele>134.02</ele>
        <time>2011-09-25T09:02:28Z</time>
      </trkpt>
      <trkpt lat="48.45033" lon="2.67689">
        <ele>131.691</ele>
        <time>2011-09-25T09:02:33Z</time>
      </trkpt>
      <trkpt lat="48.45053" lon="2.67709">
        <ele>127.684</ele>
        <time>2011-09-25T09:02:38Z</time>
      </trkpt>
      <trkpt lat="48.4508" lon="2.67732">
        <ele>128.426</ele>
        <time>2011-09-25T09:02:44Z</time>
      </trkpt>
      <trkpt lat="48.451" lon="2.67735">
        <ele>130.106</ele>
        <time>2011-09-25T09:02:51Z</time>
      </trkpt>
      <trkpt lat="48.4512" lon="2.67715">
        <ele>128.057</ele>
        <time>2011-09-25T09:02:58Z</time>
      </trkpt>
      <trkpt lat="48.45123" lon="2.6769">
        <ele>127.269</ele>
        <time>2011-09-25T09:03:03Z</time>
      </trkpt>
      <trkpt lat="48.45111" lon="2.67655">
        <ele>124.83</ele>
        <time>2011-09-25T09:03:09Z</time>
      </trkpt>
      <trkpt lat="48.45103" lon="2.6763">
        <ele>122.978</ele>
        <time>2011-09-25T09:03:13Z</time>
      </trkpt>
      <trkpt lat="48.45102" lon="2.67605">
        <ele>122.969</ele>
        <time>2011-09-25T09:03:17Z</time>
      </trkpt>
      <trkpt lat="48.45105" lon="2.67572">
        <ele>125.925</ele>
        <time>2011-09-25T09:03:23Z</time>
      </trkpt>
      <trkpt lat="48.45097" lon="2.67553">
        <ele>127.097</ele>
        <time>2011-09-25T09:03:27Z</time>
      </trkpt>
      <trkpt lat="48.45094" lon="2.67534">
        <ele>126.81</ele>
        <time>2011-09-25T09:03:30Z</time>
      </trkpt>
      <trkpt lat="48.45086" lon="2.67511">
        <ele>125.668</ele>
        <time>2011-09-25T09:03:34Z</time>
      </trkpt>
      <trkpt lat="48.45072" lon="2.67496">
        <ele>128.028</ele>
        <time>2011-09-25T09:03:38Z</time>
      </trkpt>
      <trkpt lat="48.45063" lon="2.67445">
        <ele>131.952</ele>
        <time>2011-09-25T09:03:48Z</time>
      </trkpt>
      <trkpt lat="48.45063" lon="2.67424">
        <ele>129.859</ele>
        <time>2011-09-25T09:03:53Z</time>
      </trkpt>
      <trkpt lat="48.45068" lon="2.67402">
        <ele>128.804</ele>
        <time>2011-09-25T09:03:57Z</time>
      </trkpt>
      <trkpt lat="48.4507" lon="2.67381">
        <ele>128.096</ele>
        <time>2011-09-25T09:04:01Z</time>
      </trkpt>
      <trkpt lat="48.45072" lon="2.67364">
        <ele>128.045</ele>
        <time>2011-09-25T09:04:06Z</time>
      </trkpt>
      <trkpt lat="48.45084" lon="2.67342">
        <ele>129.622</ele>
        <time>2011-09-25T09:04:11Z</time>
      </trkpt>
      <trkpt lat="48.45112" lon="2.67316">
        <ele>129.486</ele>
        <time>2011-09-25T09:04:21Z</time>
      </trkpt>
      <trkpt lat="48.45115" lon="2.67315">
        <ele>130.041</ele>
        <time>2011-09-25T09:04:22Z</time>
      </trkpt>
      <trkpt lat="48.45125" lon="2.67297">
        <ele>129.311</ele>
        <time>2011-09-25T09:04:26Z</time>
      </trkpt>
      <trkpt lat="48.45139" lon="2.67272">
        <ele>129.601</ele>
        <time>2011-09-25T09:04:31Z</time>
      </trkpt>
      <trkpt lat="48.45166" lon="2.67257">
        <ele>130.027</ele>
        <time>2011-09-25T09:04:40Z</time>
      </trkpt>
      <trkpt lat="48.45192" lon="2.67241">
        <ele>131.128</ele>
        <time>2011-09-25T09:04:48Z</time>
      </trkpt>
      <trkpt lat="48.45198" lon="2.67233">
        <ele>131.502</ele>
        <time>2011-09-25T09:04:51Z</time>
      </trkpt>
      <trkpt lat="48.45218" lon="2.67219">
        <ele>135.126</ele>
        <time>2011-09-25T09:04:59Z</time>
      </trkpt>
      <trkpt lat="48.45234" lon="2.67207">
        <ele>133.945</ele>
        <time>2011-09-25T09:05:05Z</time>
      </trkpt>
      <trkpt lat="48.45248" lon="2.67194">
        <ele>134.458</ele>
        <time>2011-09-25T09:05:10Z</time>
      </trkpt>
      <trkpt lat="48.45252" lon="2.67187">
        <ele>134.301</ele>
        <time>2011-09-25T09:05:12Z</time>
      </trkpt>
      <trkpt lat="48.45269" lon="2.67162">
        <ele>133.843</ele>
        <time>2011-09-25T09:05:20Z</time>
      </trkpt>
      <trkpt lat="48.45275" lon="2.67164">
        <ele>133.204</ele>
        <time>2011-09-25T09:05:22Z</time>
      </trkpt>
      <trkpt lat="48.45298" lon="2.67171">
        <ele>133.271</ele>
        <time>2011-09-25T09:05:29Z</time>
      </trkpt>
      <trkpt lat="48.45302" lon="2.67174">
        <ele>133.14</ele>
        <time>2011-09-25T09:05:48Z</time>
      </trkpt>
      <trkpt lat="48.45303" lon="2.67173">
        <ele>132.573</ele>
        <time>2011-09-25T09:09:05Z</time>
      </trkpt>
      <trkpt lat="48.45304" lon="2.67164">
        <ele>133.611</ele>
        <time>2011-09-25T09:09:09Z</time>
      </trkpt>
      <trkpt lat="48.45305" lon="2.67159">
        <ele>134.11</ele>
        <time>2011-09-25T09:09:11Z</time>
      </trkpt>
      <trkpt lat="48.45306" lon="2.67153">
        <ele>133.492</ele>
        <time>2011-09-25T09:09:13Z</time>
      </trkpt>
      <trkpt lat="48.45304" lon="2.67123">
        <ele>131.133</ele>
        <time>2011-09-25T09:09:22Z</time>
      </trkpt>
      <trkpt lat="48.45304" lon="2.6712">
        <ele>129.904</ele>
        <time>2011-09-25T09:09:24Z</time>
      </trkpt>
      <trkpt lat="48.45311" lon="2.67098">
        <ele>126.649</ele>
        <time>2011-09-25T09:09:31Z</time>
      </trkpt>
      <trkpt lat="48.45309" lon="2.67071">
        <ele>123.447</ele>
        <time>2011-09-25T09:09:39Z</time>
      </trkpt>
      <trkpt lat="48.4531" lon="2.67061">
        <ele>122.225</ele>
        <time>2011-09-25T09:09:42Z</time>
      </trkpt>
      <trkpt lat="48.45313" lon="2.67044">
        <ele>120.935</ele>
        <time>2011-09-25T09:09:45Z</time>
      </trkpt>
      <trkpt lat="48.45322" lon="2.67038">
        <ele>119.736</ele>
        <time>2011-09-25T09:09:49Z</time>
      </trkpt>
      <trkpt lat="48.45327" lon="2.67026">
        <ele>120.096</ele>
        <time>2011-09-25T09:09:53Z</time>
      </trkpt>
      <trkpt lat="48.45334" lon="2.67016">
        <ele>120.259</ele>
        <time>2011-09-25T09:09:56Z</time>
      </trkpt>
      <trkpt lat="48.45347" lon="2.66989">
        <ele>114.121</ele>
        <time>2011-09-25T09:10:00Z</time>
      </trkpt>
      <trkpt lat="48.45373" lon="2.66965">
        <ele>107.847</ele>
        <time>2011-09-25T09:10:06Z</time>
      </trkpt>
      <trkpt lat="48.45385" lon="2.66959">
        <ele>106.251</ele>
        <time>2011-09-25T09:10:08Z</time>
      </trkpt>
      <trkpt lat="48.45426" lon="2.66971">
        <ele>107.202</ele>
        <time>2011-09-25T09:10:16Z</time>
      </trkpt>
      <trkpt lat="48.45444" lon="2.66977">
        <ele>106.632</ele>
        <time>2011-09-25T09:10:21Z</time>
      </trkpt>
      <trkpt lat="48.45477" lon="2.66983">
        <ele>105.353</ele>
        <time>2011-09-25T09:10:28Z</time>
      </trkpt>
      <trkpt lat="48.45495" lon="2.66971">
        <ele>105.724</ele>
        <time>2011-09-25T09:10:33Z</time>
      </trkpt>
      <trkpt lat="48.45506" lon="2.66968">
        <ele>105.412</ele>
        <time>2011-09-25T09:10:35Z</time>
      </trkpt>
      <trkpt lat="48.45513" lon="2.66958">
        <ele>105.778</ele>
        <time>2011-09-25T09:10:37Z</time>
      </trkpt>
      <trkpt lat="48.45534" lon="2.66907">
        <ele>102.819</ele>
        <time>2011-09-25T09:10:43Z</time>
      </trkpt>
      <trkpt lat="48.45537" lon="2.66881">
        <ele>101.507</ele>
        <time>2011-09-25T09:10:46Z</time>
      </trkpt>
      <trkpt lat="48.45545" lon="2.66843">
        <ele>100.277</ele>
        <time>2011-09-25T09:10:50Z</time>
      </trkpt>
      <trkpt lat="48.45562" lon="2.66816">
        <ele>98.161</ele>
        <time>2011-09-25T09:10:54Z</time>
      </trkpt>
      <trkpt lat="48.45573" lon="2.66808">
        <ele>97.554</ele>
        <time>2011-09-25T09:10:56Z</time>
      </trkpt>
      <trkpt lat="48.45591" lon="2.66811">
        <ele>94.936</ele>
        <time>2011-09-25T09:10:59Z</time>
      </trkpt>
      <trkpt lat="48.45624" lon="2.66793">
        <ele>96.101</ele>
        <time>2011-09-25T09:11:06Z</time>
      </trkpt>
      <trkpt lat="48.45652" lon="2.66791">
        <ele>100.459</ele>
        <time>2011-09-25T09:11:19Z</time>
      </trkpt>
      <trkpt lat="48.45655" lon="2.66792">
        <ele>101.314</ele>
        <time>2011-09-25T09:11:21Z</time>
      </trkpt>
      <trkpt lat="48.45673" lon="2.66802">
        <ele>110.309</ele>
        <time>2011-09-25T09:11:33Z</time>
      </trkpt>
      <trkpt lat="48.45678" lon="2.66801">
        <ele>110.341</ele>
        <time>2011-09-25T09:11:47Z</time>
      </trkpt>
      <trkpt lat="48.45683" lon="2.66799">
        <ele>112.275</ele>
        <time>2011-09-25T09:12:00Z</time>
      </trkpt>
      <trkpt lat="48.45691" lon="2.66795">
        <ele>112.53</ele>
        <time>2011-09-25T09:12:17Z</time>
      </trkpt>
      <trkpt lat="48.45691" lon="2.66795">
        <ele>112.518</ele>
        <time>2011-09-25T09:12:18Z</time>
      </trkpt>
      <trkpt lat="48.45696" lon="2.66788">
        <ele>112.259</ele>
        <time>2011-09-25T09:12:23Z</time>
      </trkpt>
      <trkpt lat="48.45719" lon="2.66759">
        <ele>112.669</ele>
        <time>2011-09-25T09:12:36Z</time>
      </trkpt>
      <trkpt lat="48.45736" lon="2.66715">
        <ele>111.152</ele>
        <time>2011-09-25T09:12:47Z</time>
      </trkpt>
      <trkpt lat="48.45742" lon="2.66659">
        <ele>108.666</ele>
        <time>2011-09-25T09:12:57Z</time>
      </trkpt>
      <trkpt lat="48.45745" lon="2.66604">
        <ele>108.113</ele>
        <time>2011-09-25T09:13:06Z</time>
      </trkpt>
      <trkpt lat="48.45745" lon="2.6658">
        <ele>106.682</ele>
        <time>2011-09-25T09:13:10Z</time>
      </trkpt>
      <trkpt lat="48.45732" lon="2.66547">
        <ele>107.561</ele>
        <time>2011-09-25T09:13:16Z</time>
      </trkpt>
      <trkpt lat="48.45725" lon="2.66527">
        <ele>106.781</ele>
        <time>2011-09-25T09:13:19Z</time>
      </trkpt>
      <trkpt lat="48.45716" lon="2.66489">
        <ele>106.634</ele>
        <time>2011-09-25T09:13:24Z</time>
      </trkpt>
      <trkpt lat="48.45707" lon="2.66378">
        <ele>103.813</ele>
        <time>2011-09-25T09:13:38Z</time>
      </trkpt>
      <trkpt lat="48.45703" lon="2.6637">
        <ele>104.387</ele>
        <time>2011-09-25T09:13:40Z</time>
      </trkpt>
      <trkpt lat="48.45705" lon="2.66359">
        <ele>104.02</ele>
        <time>2011-09-25T09:13:42Z</time>
      </trkpt>
      <trkpt lat="48.45697" lon="2.66309">
        <ele>106.246</ele>
        <time>2011-09-25T09:13:53Z</time>
      </trkpt>
      <trkpt lat="48.45696" lon="2.66298">
        <ele>105.353</ele>
        <time>2011-09-25T09:13:55Z</time>
      </trkpt>
      <trkpt lat="48.45691" lon="2.6627">
        <ele>103.955</ele>
        <time>2011-09-25T09:13:59Z</time>
      </trkpt>
      <trkpt lat="48.45678" lon="2.66236">
        <ele>105.654</ele>
        <time>2011-09-25T09:14:04Z</time>
      </trkpt>
      <trkpt lat="48.45668" lon="2.66194">
        <ele>107.903</ele>
        <time>2011-09-25T09:14:10Z</time>
      </trkpt>
      <trkpt lat="48.45667" lon="2.66178">
        <ele>107.543</ele>
        <time>2011-09-25T09:14:12Z</time>
      </trkpt>
      <trkpt lat="48.45658" lon="2.66149">
        <ele>106.333</ele>
        <time>2011-09-25T09:14:16Z</time>
      </trkpt>
      <trkpt lat="48.45645" lon="2.661">
        <ele>111.248</ele>
        <time>2011-09-25T09:14:23Z</time>
      </trkpt>
      <trkpt lat="48.45642" lon="2.6608">
        <ele>111.84</ele>
        <time>2011-09-25T09:14:26Z</time>
      </trkpt>
      <trkpt lat="48.45645" lon="2.66048">
        <ele>109.231</ele>
        <time>2011-09-25T09:14:31Z</time>
      </trkpt>
      <trkpt lat="48.45659" lon="2.66017">
        <ele>111.289</ele>
        <time>2011-09-25T09:14:38Z</time>
      </trkpt>
      <trkpt lat="48.45683" lon="2.65979">
        <ele>113.685</ele>
        <time>2011-09-25T09:14:46Z</time>
      </trkpt>
      <trkpt lat="48.45688" lon="2.65949">
        <ele>111.235</ele>
        <time>2011-09-25T09:14:50Z</time>
      </trkpt>
      <trkpt lat="48.45679" lon="2.65886">
        <ele>111.96</ele>
        <time>2011-09-25T09:14:59Z</time>
      </trkpt>
      <trkpt lat="48.45681" lon="2.65873">
        <ele>111.334</ele>
        <time>2011-09-25T09:15:01Z</time>
      </trkpt>
      <trkpt lat="48.45681" lon="2.65858">
        <ele>112.89</ele>
        <time>2011-09-25T09:15:03Z</time>
      </trkpt>
      <trkpt lat="48.45686" lon="2.6584">
        <ele>113.62</ele>
        <time>2011-09-25T09:15:06Z</time>
      </trkpt>
      <trkpt lat="48.45703" lon="2.65819">
        <ele>115.358</ele>
        <time>2011-09-25T09:15:11Z</time>
      </trkpt>
      <trkpt lat="48.45735" lon="2.65797">
        <ele>117.085</ele>
        <time>2011-09-25T09:15:19Z</time>
      </trkpt>
      <trkpt lat="48.45756" lon="2.65796">
        <ele>115.017</ele>
        <time>2011-09-25T09:15:23Z</time>
      </trkpt>
      <trkpt lat="48.45766" lon="2.65799">
        <ele>113.684</ele>
        <time>2011-09-25T09:15:25Z</time>
      </trkpt>
      <trkpt lat="48.45789" lon="2.65789">
        <ele>114.109</ele>
        <time>2011-09-25T09:15:32Z</time>
      </trkpt>
      <trkpt lat="48.45797" lon="2.65794">
        <ele>113.544</ele>
        <time>2011-09-25T09:15:35Z</time>
      </trkpt>
      <trkpt lat="48.45825" lon="2.65822">
        <ele>111.382</ele>
        <time>2011-09-25T09:15:44Z</time>
      </trkpt>
      <trkpt lat="48.45837" lon="2.65811">
        <ele>113.348</ele>
        <time>2011-09-25T09:15:49Z</time>
      </trkpt>
      <trkpt lat="48.45858" lon="2.65772">
        <ele>115.317</ele>
        <time>2011-09-25T09:15:59Z</time>
      </trkpt>
      <trkpt lat="48.45871" lon="2.65728">
        <ele>119.249</ele>
        <time>2011-09-25T09:16:09Z</time>
      </trkpt>
      <trkpt lat="48.45887" lon="2.65689">
        <ele>116.973</ele>
        <time>2011-09-25T09:16:17Z</time>
      </trkpt>
      <trkpt lat="48.45895" lon="2.65679">
        <ele>116.437</ele>
        <time>2011-09-25T09:16:20Z</time>
      </trkpt>
      <trkpt lat="48.45913" lon="2.65633">
        <ele>115.313</ele>
        <time>2011-09-25T09:16:30Z</time>
      </trkpt>
      <trkpt lat="48.45918" lon="2.65615">
        <ele>115.833</ele>
        <time>2011-09-25T09:16:39Z</time>
      </trkpt>
      <trkpt lat="48.45924" lon="2.65594">
        <ele>115.617</ele>
        <time>2011-09-25T09:16:48Z</time>
      </trkpt>
      <trkpt lat="48.45924" lon="2.6559">
        <ele>115.451</ele>
        <time>2011-09-25T09:16:49Z</time>
      </trkpt>
      <trkpt lat="48.45929" lon="2.65566">
        <ele>115.587</ele>
        <time>2011-09-25T09:16:56Z</time>
      </trkpt>
      <trkpt lat="48.45947" lon="2.6551">
        <ele>117.221</ele>
        <time>2011-09-25T09:17:08Z</time>
      </trkpt>
      <trkpt lat="48.45952" lon="2.65497">
        <ele>117.004</ele>
        <time>2011-09-25T09:17:11Z</time>
      </trkpt>
      <trkpt lat="48.45958" lon="2.65464">
        <ele>115.286</ele>
        <time>2011-09-25T09:17:17Z</time>
      </trkpt>
      <trkpt lat="48.45962" lon="2.6541">
        <ele>119.252</ele>
        <time>2011-09-25T09:17:27Z</time>
      </trkpt>
      <trkpt lat="48.45962" lon="2.65408">
        <ele>119.45</ele>
        <time>2011-09-25T09:17:28Z</time>
      </trkpt>
      <trkpt lat="48.45962" lon="2.65402">
        <ele>119.55</ele>
        <time>2011-09-25T09:17:32Z</time>
      </trkpt>
      <trkpt lat="48.45965" lon="2.65393">
        <ele>118.069</ele>
        <time>2011-09-25T09:17:38Z</time>
      </trkpt>
      <trkpt lat="48.45972" lon="2.65381">
        <ele>114.8</ele>
        <time>2011-09-25T09:17:42Z</time>
      </trkpt>
      <trkpt lat="48.45975" lon="2.65353">
        <ele>110.533</ele>
        <time>2011-09-25T09:17:47Z</time>
      </trkpt>
      <trkpt lat="48.4597" lon="2.65312">
        <ele>103.905</ele>
        <time>2011-09-25T09:17:53Z</time>
      </trkpt>
      <trkpt lat="48.45979" lon="2.65307">
        <ele>99.984</ele>
        <time>2011-09-25T09:17:57Z</time>
      </trkpt>
      <trkpt lat="48.45997" lon="2.65299">
        <ele>92.162</ele>
        <time>2011-09-25T09:18:02Z</time>
      </trkpt>
      <trkpt lat="48.46" lon="2.65275">
        <ele>87.389</ele>
        <time>2011-09-25T09:18:08Z</time>
      </trkpt>
      <trkpt lat="48.46003" lon="2.65259">
        <ele>85.581</ele>
        <time>2011-09-25T09:18:12Z</time>
      </trkpt>
      <trkpt lat="48.46023" lon="2.65215">
        <ele>83.607</ele>
        <time>2011-09-25T09:18:21Z</time>
      </trkpt>
      <trkpt lat="48.46035" lon="2.65194">
        <ele>82.994</ele>
        <time>2011-09-25T09:18:25Z</time>
      </trkpt>
      <trkpt lat="48.46053" lon="2.65181">
        <ele>81.395</ele>
        <time>2011-09-25T09:18:29Z</time>
      </trkpt>
      <trkpt lat="48.46062" lon="2.65177">
        <ele>82.067</ele>
        <time>2011-09-25T09:18:31Z</time>
      </trkpt>
      <trkpt lat="48.46072" lon="2.65173">
        <ele>82.254</ele>
        <time>2011-09-25T09:18:33Z</time>
      </trkpt>
      <trkpt lat="48.461" lon="2.65145">
        <ele>82.008</ele>
        <time>2011-09-25T09:18:40Z</time>
      </trkpt>
      <trkpt lat="48.46114" lon="2.65132">
        <ele>81.135</ele>
        <time>2011-09-25T09:18:44Z</time>
      </trkpt>
      <trkpt lat="48.46133" lon="2.65114">
        <ele>80.376</ele>
        <time>2011-09-25T09:18:53Z</time>
      </trkpt>
      <trkpt lat="48.46133" lon="2.65114">
        <ele>80.404</ele>
        <time>2011-09-25T09:19:05Z</time>
      </trkpt>
      <trkpt lat="48.46139" lon="2.65078">
        <ele>80.536</ele>
        <time>2011-09-25T09:19:17Z</time>
      </trkpt>
      <trkpt lat="48.46155" lon="2.65074">
        <ele>81.512</ele>
        <time>2011-09-25T09:19:23Z</time>
      </trkpt>
      <trkpt lat="48.46171" lon="2.65073">
        <ele>84.637</ele>
        <time>2011-09-25T09:19:28Z</time>
      </trkpt>
      <trkpt lat="48.46201" lon="2.65075">
        <ele>85.123</ele>
        <time>2011-09-25T09:19:38Z</time>
      </trkpt>
      <trkpt lat="48.46224" lon="2.65079">
        <ele>86.74</ele>
        <time>2011-09-25T09:19:47Z</time>
      </trkpt>
      <trkpt lat="48.46268" lon="2.65083">
        <ele>87.231</ele>
        <time>2011-09-25T09:19:57Z</time>
      </trkpt>
      <trkpt lat="48.4628" lon="2.6509">
        <ele>87.807</ele>
        <time>2011-09-25T09:20:05Z</time>
      </trkpt>
      <trkpt lat="48.46283" lon="2.65089">
        <ele>88.704</ele>
        <time>2011-09-25T09:20:08Z</time>
      </trkpt>
      <trkpt lat="48.46298" lon="2.65092">
        <ele>89.107</ele>
        <time>2011-09-25T09:20:16Z</time>
      </trkpt>
      <trkpt lat="48.46305" lon="2.65097">
        <ele>89.05</ele>
        <time>2011-09-25T09:20:21Z</time>
      </trkpt>
      <trkpt lat="48.46306" lon="2.65117">
        <ele>87.983</ele>
        <time>2011-09-25T09:20:27Z</time>
      </trkpt>
      <trkpt lat="48.4629" lon="2.65134">
        <ele>88.724</ele>
        <time>2011-09-25T09:20:38Z</time>
      </trkpt>
      <trkpt lat="48.46287" lon="2.65132">
        <ele>89.315</ele>
        <time>2011-09-25T09:20:44Z</time>
      </trkpt>
      <trkpt lat="48.46266" lon="2.65115">
        <ele>87.179</ele>
        <time>2011-09-25T09:20:56Z</time>
      </trkpt>
      <trkpt lat="48.46252" lon="2.65132">
        <ele>92.827</ele>
        <time>2011-09-25T09:21:04Z</time>
      </trkpt>
      <trkpt lat="48.46254" lon="2.65144">
        <ele>93.837</ele>
        <time>2011-09-25T09:21:08Z</time>
      </trkpt>
      <trkpt lat="48.46267" lon="2.65152">
        <ele>96.454</ele>
        <time>2011-09-25T09:21:17Z</time>
      </trkpt>
      <trkpt lat="48.46276" lon="2.65159">
        <ele>95.695</ele>
        <time>2011-09-25T09:21:24Z</time>
      </trkpt>
      <trkpt lat="48.46277" lon="2.65189">
        <ele>96.856</ele>
        <time>2011-09-25T09:21:35Z</time>
      </trkpt>
      <trkpt lat="48.4628" lon="2.65197">
        <ele>96.574</ele>
        <time>2011-09-25T09:21:39Z</time>
      </trkpt>
      <trkpt lat="48.46278" lon="2.65203">
        <ele>97.046</ele>
        <time>2011-09-25T09:21:42Z</time>
      </trkpt>
      <trkpt lat="48.46267" lon="2.65224">
        <ele>98.523</ele>
        <time>2011-09-25T09:21:53Z</time>
      </trkpt>
      <trkpt lat="48.46266" lon="2.65228">
        <ele>99.587</ele>
        <time>2011-09-25T09:21:56Z</time>
      </trkpt>
      <trkpt lat="48.46261" lon="2.6523">
        <ele>99.427</ele>
        <time>2011-09-25T09:22:00Z</time>
      </trkpt>
      <trkpt lat="48.46252" lon="2.65225">
        <ele>100.222</ele>
        <time>2011-09-25T09:22:04Z</time>
      </trkpt>
      <trkpt lat="48.46231" lon="2.65234">
        <ele>101.74</ele>
        <time>2011-09-25T09:22:13Z</time>
      </trkpt>
      <trkpt lat="48.46221" lon="2.65237">
        <ele>106.628</ele>
        <time>2011-09-25T09:22:19Z</time>
      </trkpt>
      <trkpt lat="48.46207" lon="2.65262">
        <ele>111.572</ele>
        <time>2011-09-25T09:22:30Z</time>
      </trkpt>
      <trkpt lat="48.46204" lon="2.65265">
        <ele>112.986</ele>
        <time>2011-09-25T09:22:33Z</time>
      </trkpt>
      <trkpt lat="48.46201" lon="2.65267">
        <ele>112.452</ele>
        <time>2011-09-25T09:22:36Z</time>
      </trkpt>
      <trkpt lat="48.46184" lon="2.65296">
        <ele>112.8</ele>
        <time>2011-09-25T09:22:45Z</time>
      </trkpt>
      <trkpt lat="48.46173" lon="2.65319">
        <ele>110.253</ele>
        <time>2011-09-25T09:22:52Z</time>
      </trkpt>
      <trkpt lat="48.46175" lon="2.6533">
        <ele>109.916</ele>
        <time>2011-09-25T09:22:56Z</time>
      </trkpt>
      <trkpt lat="48.46178" lon="2.6534">
        <ele>107.569</ele>
        <time>2011-09-25T09:23:01Z</time>
      </trkpt>
      <trkpt lat="48.46175" lon="2.65355">
        <ele>107.499</ele>
        <time>2011-09-25T09:23:06Z</time>
      </trkpt>
      <trkpt lat="48.46169" lon="2.65368">
        <ele>103.155</ele>
        <time>2011-09-25T09:23:11Z</time>
      </trkpt>
      <trkpt lat="48.4617" lon="2.65392">
        <ele>101.889</ele>
        <time>2011-09-25T09:23:16Z</time>
      </trkpt>
      <trkpt lat="48.46173" lon="2.6543">
        <ele>100.057</ele>
        <time>2011-09-25T09:23:22Z</time>
      </trkpt>
      <trkpt lat="48.46193" lon="2.65472">
        <ele>100.15</ele>
        <time>2011-09-25T09:23:31Z</time>
      </trkpt>
      <trkpt lat="48.46195" lon="2.65476">
        <ele>100.065</ele>
        <time>2011-09-25T09:23:33Z</time>
      </trkpt>
      <trkpt lat="48.46191" lon="2.65483">
        <ele>100.971</ele>
        <time>2011-09-25T09:23:37Z</time>
      </trkpt>
      <trkpt lat="48.46178" lon="2.65495">
        <ele>102.257</ele>
        <time>2011-09-25T09:23:42Z</time>
      </trkpt>
      <trkpt lat="48.46171" lon="2.65503">
        <ele>102.759</ele>
        <time>2011-09-25T09:23:45Z</time>
      </trkpt>
      <trkpt lat="48.46167" lon="2.65517">
        <ele>103.117</ele>
        <time>2011-09-25T09:23:49Z</time>
      </trkpt>
      <trkpt lat="48.46162" lon="2.65535">
        <ele>101.82</ele>
        <time>2011-09-25T09:23:55Z</time>
      </trkpt>
      <trkpt lat="48.46163" lon="2.65543">
        <ele>104.378</ele>
        <time>2011-09-25T09:23:58Z</time>
      </trkpt>
      <trkpt lat="48.46162" lon="2.6555">
        <ele>105.901</ele>
        <time>2011-09-25T09:24:01Z</time>
      </trkpt>
      <trkpt lat="48.46163" lon="2.65567">
        <ele>107.432</ele>
        <time>2011-09-25T09:24:06Z</time>
      </trkpt>
      <trkpt lat="48.46161" lon="2.65607">
        <ele>98.747</ele>
        <time>2011-09-25T09:24:17Z</time>
      </trkpt>
      <trkpt lat="48.46162" lon="2.65608">
        <ele>95.653</ele>
        <time>2011-09-25T09:24:18Z</time>
      </trkpt>
      <trkpt lat="48.4616" lon="2.65616">
        <ele>93.196</ele>
        <time>2011-09-25T09:24:22Z</time>
      </trkpt>
      <trkpt lat="48.46158" lon="2.65623">
        <ele>92.227</ele>
        <time>2011-09-25T09:24:32Z</time>
      </trkpt>
      <trkpt lat="48.46155" lon="2.65633">
        <ele>96.867</ele>
        <time>2011-09-25T09:24:43Z</time>
      </trkpt>
      <trkpt lat="48.46157" lon="2.6565">
        <ele>98.408</ele>
        <time>2011-09-25T09:24:55Z</time>
      </trkpt>
      <trkpt lat="48.46161" lon="2.65659">
        <ele>96.046</ele>
        <time>2011-09-25T09:25:04Z</time>
      </trkpt>
      <trkpt lat="48.46162" lon="2.65661">
        <ele>95.901</ele>
        <time>2011-09-25T09:25:06Z</time>
      </trkpt>
      <trkpt lat="48.46165" lon="2.65674">
        <ele>95.227</ele>
        <time>2011-09-25T09:25:18Z</time>
      </trkpt>
      <trkpt lat="48.46164" lon="2.65681">
        <ele>94.809</ele>
        <time>2011-09-25T09:25:26Z</time>
      </trkpt>
      <trkpt lat="48.46163" lon="2.65684">
        <ele>94.846</ele>
        <time>2011-09-25T09:25:28Z</time>
      </trkpt>
      <trkpt lat="48.46162" lon="2.65693">
        <ele>95.23</ele>
        <time>2011-09-25T09:25:32Z</time>
      </trkpt>
      <trkpt lat="48.46165" lon="2.65694">
        <ele>94.874</ele>
        <time>2011-09-25T09:25:37Z</time>
      </trkpt>
      <trkpt lat="48.46168" lon="2.65711">
        <ele>92.218</ele>
        <time>2011-09-25T09:25:46Z</time>
      </trkpt>
      <trkpt lat="48.46166" lon="2.65713">
        <ele>91.753</ele>
        <time>2011-09-25T09:25:48Z</time>
      </trkpt>
      <trkpt lat="48.46159" lon="2.65719">
        <ele>93.183</ele>
        <time>2011-09-25T09:25:51Z</time>
      </trkpt>
      <trkpt lat="48.46142" lon="2.6572">
        <ele>93.311</ele>
        <time>2011-09-25T09:25:55Z</time>
      </trkpt>
      <trkpt lat="48.46132" lon="2.65717">
        <ele>93.515</ele>
        <time>2011-09-25T09:25:58Z</time>
      </trkpt>
      <trkpt lat="48.46132" lon="2.6573">
        <ele>93.203</ele>
        <time>2011-09-25T09:26:02Z</time>
      </trkpt>
      <trkpt lat="48.46134" lon="2.65743">
        <ele>93.359</ele>
        <time>2011-09-25T09:26:04Z</time>
      </trkpt>
      <trkpt lat="48.4614" lon="2.6578">
        <ele>91.914</ele>
        <time>2011-09-25T09:26:09Z</time>
      </trkpt>
      <trkpt lat="48.46146" lon="2.65801">
        <ele>91.18</ele>
        <time>2011-09-25T09:26:12Z</time>
      </trkpt>
      <trkpt lat="48.46159" lon="2.65817">
        <ele>90.996</ele>
        <time>2011-09-25T09:26:16Z</time>
      </trkpt>
      <trkpt lat="48.46175" lon="2.65828">
        <ele>90.535</ele>
        <time>2011-09-25T09:26:24Z</time>
      </trkpt>
      <trkpt lat="48.46173" lon="2.65836">
        <ele>90.614</ele>
        <time>2011-09-25T09:26:43Z</time>
      </trkpt>
      <trkpt lat="48.46171" lon="2.6584">
        <ele>90.578</ele>
        <time>2011-09-25T09:26:53Z</time>
      </trkpt>
      <trkpt lat="48.46169" lon="2.65842">
        <ele>90.294</ele>
        <time>2011-09-25T09:26:55Z</time>
      </trkpt>
      <trkpt lat="48.4615" lon="2.65866">
        <ele>93.778</ele>
        <time>2011-09-25T09:27:06Z</time>
      </trkpt>
      <trkpt lat="48.46141" lon="2.65883">
        <ele>94.29</ele>
        <time>2011-09-25T09:27:13Z</time>
      </trkpt>
      <trkpt lat="48.46138" lon="2.65889">
        <ele>95.117</ele>
        <time>2011-09-25T09:27:15Z</time>
      </trkpt>
      <trkpt lat="48.46141" lon="2.65909">
        <ele>92.396</ele>
        <time>2011-09-25T09:27:24Z</time>
      </trkpt>
      <trkpt lat="48.46141" lon="2.65914">
        <ele>90.774</ele>
        <time>2011-09-25T09:27:30Z</time>
      </trkpt>
      <trkpt lat="48.46136" lon="2.65923">
        <ele>89.293</ele>
        <time>2011-09-25T09:27:39Z</time>
      </trkpt>
      <trkpt lat="48.46142" lon="2.65931">
        <ele>87.085</ele>
        <time>2011-09-25T09:27:46Z</time>
      </trkpt>
      <trkpt lat="48.46148" lon="2.65934">
        <ele>87.37</ele>
        <time>2011-09-25T09:27:51Z</time>
      </trkpt>
      <trkpt lat="48.4615" lon="2.65941">
        <ele>88.181</ele>
        <time>2011-09-25T09:28:04Z</time>
      </trkpt>
      <trkpt lat="48.46151" lon="2.65944">
        <ele>86.943</ele>
        <time>2011-09-25T09:28:11Z</time>
      </trkpt>
      <trkpt lat="48.46149" lon="2.65954">
        <ele>85.308</ele>
        <time>2011-09-25T09:28:17Z</time>
      </trkpt>
      <trkpt lat="48.46156" lon="2.65961">
        <ele>81.788</ele>
        <time>2011-09-25T09:28:22Z</time>
      </trkpt>
      <trkpt lat="48.46161" lon="2.65969">
        <ele>79.912</ele>
        <time>2011-09-25T09:28:25Z</time>
      </trkpt>
      <trkpt lat="48.46164" lon="2.65987">
        <ele>76.485</ele>
        <time>2011-09-25T09:28:33Z</time>
      </trkpt>
      <trkpt lat="48.46169" lon="2.66012">
        <ele>73.736</ele>
        <time>2011-09-25T09:28:39Z</time>
      </trkpt>
      <trkpt lat="48.46186" lon="2.66044">
        <ele>72.154</ele>
        <time>2011-09-25T09:28:48Z</time>
      </trkpt>
      <trkpt lat="48.46188" lon="2.66049">
        <ele>71.731</ele>
        <time>2011-09-25T09:29:01Z</time>
      </trkpt>
      <trkpt lat="48.46198" lon="2.66078">
        <ele>71.656</ele>
        <time>2011-09-25T09:29:35Z</time>
      </trkpt>
      <trkpt lat="48.46205" lon="2.66093">
        <ele>72.189</ele>
        <time>2011-09-25T09:29:38Z</time>
      </trkpt>
      <trkpt lat="48.46225" lon="2.66122">
        <ele>73.428</ele>
        <time>2011-09-25T09:29:44Z</time>
      </trkpt>
      <trkpt lat="48.46242" lon="2.66133">
        <ele>73.384</ele>
        <time>2011-09-25T09:29:50Z</time>
      </trkpt>
      <trkpt lat="48.46248" lon="2.66136">
        <ele>75.353</ele>
        <time>2011-09-25T09:29:53Z</time>
      </trkpt>
      <trkpt lat="48.46252" lon="2.66136">
        <ele>77.163</ele>
        <time>2011-09-25T09:29:57Z</time>
      </trkpt>
      <trkpt lat="48.4626" lon="2.66131">
        <ele>80.757</ele>
        <time>2011-09-25T09:30:02Z</time>
      </trkpt>
      <trkpt lat="48.46266" lon="2.66123">
        <ele>83.26</ele>
        <time>2011-09-25T09:30:06Z</time>
      </trkpt>
      <trkpt lat="48.46269" lon="2.66114">
        <ele>80.948</ele>
        <time>2011-09-25T09:30:16Z</time>
      </trkpt>
      <trkpt lat="48.46269" lon="2.66112">
        <ele>80.411</ele>
        <time>2011-09-25T09:30:36Z</time>
      </trkpt>
      <trkpt lat="48.46271" lon="2.66113">
        <ele>80.059</ele>
        <time>2011-09-25T09:31:01Z</time>
      </trkpt>
      <trkpt lat="48.4628" lon="2.66118">
        <ele>81.059</ele>
        <time>2011-09-25T09:31:13Z</time>
      </trkpt>
      <trkpt lat="48.46287" lon="2.66119">
        <ele>80.321</ele>
        <time>2011-09-25T09:31:20Z</time>
      </trkpt>
      <trkpt lat="48.46291" lon="2.66132">
        <ele>78.864</ele>
        <time>2011-09-25T09:31:24Z</time>
      </trkpt>
      <trkpt lat="48.4629" lon="2.66154">
        <ele>80.204</ele>
        <time>2011-09-25T09:31:32Z</time>
      </trkpt>
      <trkpt lat="48.46291" lon="2.66164">
        <ele>80.879</ele>
        <time>2011-09-25T09:31:39Z</time>
      </trkpt>
      <trkpt lat="48.46285" lon="2.66169">
        <ele>80.686</ele>
        <time>2011-09-25T09:31:44Z</time>
      </trkpt>
      <trkpt lat="48.46278" lon="2.66172">
        <ele>81.135</ele>
        <time>2011-09-25T09:31:46Z</time>
      </trkpt>
      <trkpt lat="48.46269" lon="2.66187">
        <ele>81.216</ele>
        <time>2011-09-25T09:31:51Z</time>
      </trkpt>
      <trkpt lat="48.46269" lon="2.66193">
        <ele>81.416</ele>
        <time>2011-09-25T09:31:53Z</time>
      </trkpt>
      <trkpt lat="48.46266" lon="2.66198">
        <ele>80.84</ele>
        <time>2011-09-25T09:31:57Z</time>
      </trkpt>
      <trkpt lat="48.46262" lon="2.66205">
        <ele>78.425</ele>
        <time>2011-09-25T09:32:02Z</time>
      </trkpt>
      <trkpt lat="48.46265" lon="2.66211">
        <ele>77.302</ele>
        <time>2011-09-25T09:32:04Z</time>
      </trkpt>
      <trkpt lat="48.46272" lon="2.66224">
        <ele>76.073</ele>
        <time>2011-09-25T09:32:09Z</time>
      </trkpt>
      <trkpt lat="48.46277" lon="2.66223">
        <ele>76.297</ele>
        <time>2011-09-25T09:32:13Z</time>
      </trkpt>
      <trkpt lat="48.46284" lon="2.66229">
        <ele>76.917</ele>
        <time>2011-09-25T09:32:18Z</time>
      </trkpt>
      <trkpt lat="48.46292" lon="2.66225">
        <ele>77.395</ele>
        <time>2011-09-25T09:32:23Z</time>
      </trkpt>
      <trkpt lat="48.46301" lon="2.66238">
        <ele>78.904</ele>
        <time>2011-09-25T09:32:29Z</time>
      </trkpt>
      <trkpt lat="48.46304" lon="2.66244">
        <ele>79.121</ele>
        <time>2011-09-25T09:32:31Z</time>
      </trkpt>
      <trkpt lat="48.46312" lon="2.66244">
        <ele>79.038</ele>
        <time>2011-09-25T09:32:37Z</time>
      </trkpt>
      <trkpt lat="48.46324" lon="2.66226">
        <ele>78.036</ele>
        <time>2011-09-25T09:32:43Z</time>
      </trkpt>
      <trkpt lat="48.46332" lon="2.66231">
        <ele>76.681</ele>
        <time>2011-09-25T09:32:47Z</time>
      </trkpt>
      <trkpt lat="48.46338" lon="2.6624">
        <ele>76.462</ele>
        <time>2011-09-25T09:32:50Z</time>
      </trkpt>
      <trkpt lat="48.46338" lon="2.66246">
        <ele>76.189</ele>
        <time>2011-09-25T09:32:52Z</time>
      </trkpt>
      <trkpt lat="48.46343" lon="2.66254">
        <ele>75.714</ele>
        <time>2011-09-25T09:32:56Z</time>
      </trkpt>
      <trkpt lat="48.46359" lon="2.66275">
        <ele>73.783</ele>
        <time>2011-09-25T09:33:04Z</time>
      </trkpt>
      <trkpt lat="48.46365" lon="2.6629">
        <ele>73.234</ele>
        <time>2011-09-25T09:33:09Z</time>
      </trkpt>
      <trkpt lat="48.46357" lon="2.66331">
        <ele>74.146</ele>
        <time>2011-09-25T09:33:19Z</time>
      </trkpt>
      <trkpt lat="48.46352" lon="2.6638">
        <ele>72.881</ele>
        <time>2011-09-25T09:33:28Z</time>
      </trkpt>
      <trkpt lat="48.46341" lon="2.66392">
        <ele>73.322</ele>
        <time>2011-09-25T09:33:32Z</time>
      </trkpt>
      <trkpt lat="48.46315" lon="2.66436">
        <ele>68.015</ele>
        <time>2011-09-25T09:33:43Z</time>
      </trkpt>
      <trkpt lat="48.4631" lon="2.66444">
        <ele>67.813</ele>
        <time>2011-09-25T09:33:45Z</time>
      </trkpt>
      <trkpt lat="48.46296" lon="2.66494">
        <ele>67.649</ele>
        <time>2011-09-25T09:33:56Z</time>
      </trkpt>
      <trkpt lat="48.46291" lon="2.665">
        <ele>67.934</ele>
        <time>2011-09-25T09:33:58Z</time>
      </trkpt>
      <trkpt lat="48.46285" lon="2.6651">
        <ele>68.691</ele>
        <time>2011-09-25T09:34:01Z</time>
      </trkpt>
      <trkpt lat="48.46267" lon="2.66523">
        <ele>69.105</ele>
        <time>2011-09-25T09:34:10Z</time>
      </trkpt>
      <trkpt lat="48.46249" lon="2.66521">
        <ele>66.61</ele>
        <time>2011-09-25T09:34:17Z</time>
      </trkpt>
      <trkpt lat="48.4624" lon="2.66519">
        <ele>66.42</ele>
        <time>2011-09-25T09:34:21Z</time>
      </trkpt>
      <trkpt lat="48.46234" lon="2.66512">
        <ele>66.968</ele>
        <time>2011-09-25T09:34:25Z</time>
      </trkpt>
      <trkpt lat="48.46235" lon="2.66506">
        <ele>66.905</ele>
        <time>2011-09-25T09:34:27Z</time>
      </trkpt>
      <trkpt lat="48.4623" lon="2.66493">
        <ele>67.958</ele>
        <time>2011-09-25T09:34:38Z</time>
      </trkpt>
      <trkpt lat="48.4623" lon="2.66491">
        <ele>67.857</ele>
        <time>2011-09-25T09:35:30Z</time>
      </trkpt>
      <trkpt lat="48.4623" lon="2.66488">
        <ele>68.367</ele>
        <time>2011-09-25T09:37:39Z</time>
      </trkpt>
      <trkpt lat="48.46215" lon="2.66469">
        <ele>67.201</ele>
        <time>2011-09-25T09:37:48Z</time>
      </trkpt>
      <trkpt lat="48.46206" lon="2.6647">
        <ele>66.988</ele>
        <time>2011-09-25T09:37:51Z</time>
      </trkpt>
      <trkpt lat="48.462" lon="2.66477">
        <ele>67.191</ele>
        <time>2011-09-25T09:37:54Z</time>
      </trkpt>
      <trkpt lat="48.46189" lon="2.66505">
        <ele>68.004</ele>
        <time>2011-09-25T09:38:01Z</time>
      </trkpt>
      <trkpt lat="48.46173" lon="2.66496">
        <ele>70.58</ele>
        <time>2011-09-25T09:38:06Z</time>
      </trkpt>
      <trkpt lat="48.46148" lon="2.66469">
        <ele>71.014</ele>
        <time>2011-09-25T09:38:14Z</time>
      </trkpt>
      <trkpt lat="48.46141" lon="2.66449">
        <ele>71.898</ele>
        <time>2011-09-25T09:38:20Z</time>
      </trkpt>
      <trkpt lat="48.46143" lon="2.66439">
        <ele>71.271</ele>
        <time>2011-09-25T09:38:23Z</time>
      </trkpt>
      <trkpt lat="48.4614" lon="2.6642">
        <ele>70.259</ele>
        <time>2011-09-25T09:38:28Z</time>
      </trkpt>
      <trkpt lat="48.46129" lon="2.66406">
        <ele>71.507</ele>
        <time>2011-09-25T09:38:33Z</time>
      </trkpt>
      <trkpt lat="48.46125" lon="2.66406">
        <ele>72.47</ele>
        <time>2011-09-25T09:38:36Z</time>
      </trkpt>
      <trkpt lat="48.46111" lon="2.66409">
        <ele>77.514</ele>
        <time>2011-09-25T09:38:45Z</time>
      </trkpt>
      <trkpt lat="48.4611" lon="2.66408">
        <ele>77.143</ele>
        <time>2011-09-25T09:38:50Z</time>
      </trkpt>
      <trkpt lat="48.46102" lon="2.66402">
        <ele>80.914</ele>
        <time>2011-09-25T09:39:07Z</time>
      </trkpt>
      <trkpt lat="48.461" lon="2.66406">
        <ele>83.026</ele>
        <time>2011-09-25T09:39:24Z</time>
      </trkpt>
      <trkpt lat="48.46097" lon="2.66411">
        <ele>85.558</ele>
        <time>2011-09-25T09:39:34Z</time>
      </trkpt>
      <trkpt lat="48.46095" lon="2.66418">
        <ele>86.977</ele>
        <time>2011-09-25T09:39:52Z</time>
      </trkpt>
      <trkpt lat="48.46095" lon="2.6642">
        <ele>86.739</ele>
        <time>2011-09-25T09:39:55Z</time>
      </trkpt>
      <trkpt lat="48.46098" lon="2.66428">
        <ele>83.463</ele>
        <time>2011-09-25T09:39:59Z</time>
      </trkpt>
      <trkpt lat="48.461" lon="2.66435">
        <ele>82.126</ele>
        <time>2011-09-25T09:40:01Z</time>
      </trkpt>
      <trkpt lat="48.46106" lon="2.66442">
        <ele>81.233</ele>
        <time>2011-09-25T09:40:09Z</time>
      </trkpt>
      <trkpt lat="48.46108" lon="2.66445">
        <ele>81.12</ele>
        <time>2011-09-25T09:40:13Z</time>
      </trkpt>
      <trkpt lat="48.46117" lon="2.66439">
        <ele>78.943</ele>
        <time>2011-09-25T09:40:21Z</time>
      </trkpt>
      <trkpt lat="48.46121" lon="2.66431">
        <ele>78.911</ele>
        <time>2011-09-25T09:40:25Z</time>
      </trkpt>
      <trkpt lat="48.46129" lon="2.66432">
        <ele>77.172</ele>
        <time>2011-09-25T09:40:29Z</time>
      </trkpt>
      <trkpt lat="48.46135" lon="2.66442">
        <ele>76.129</ele>
        <time>2011-09-25T09:40:32Z</time>
      </trkpt>
      <trkpt lat="48.4614" lon="2.66454">
        <ele>77.1</ele>
        <time>2011-09-25T09:40:44Z</time>
      </trkpt>
      <trkpt lat="48.4614" lon="2.66454">
        <ele>77.09</ele>
        <time>2011-09-25T09:40:45Z</time>
      </trkpt>
      <trkpt lat="48.46141" lon="2.66461">
        <ele>75.663</ele>
        <time>2011-09-25T09:40:48Z</time>
      </trkpt>
      <trkpt lat="48.46141" lon="2.66471">
        <ele>75.417</ele>
        <time>2011-09-25T09:40:53Z</time>
      </trkpt>
      <trkpt lat="48.46134" lon="2.66475">
        <ele>75.404</ele>
        <time>2011-09-25T09:40:57Z</time>
      </trkpt>
      <trkpt lat="48.46116" lon="2.66501">
        <ele>76.508</ele>
        <time>2011-09-25T09:41:07Z</time>
      </trkpt>
      <trkpt lat="48.46097" lon="2.66516">
        <ele>72.085</ele>
        <time>2011-09-25T09:41:16Z</time>
      </trkpt>
      <trkpt lat="48.46094" lon="2.66516">
        <ele>71.244</ele>
        <time>2011-09-25T09:41:17Z</time>
      </trkpt>
      <trkpt lat="48.46076" lon="2.66505">
        <ele>71.504</ele>
        <time>2011-09-25T09:41:24Z</time>
      </trkpt>
      <trkpt lat="48.46068" lon="2.66495">
        <ele>71.094</ele>
        <time>2011-09-25T09:41:28Z</time>
      </trkpt>
      <trkpt lat="48.46057" lon="2.66484">
        <ele>70.263</ele>
        <time>2011-09-25T09:41:33Z</time>
      </trkpt>
      <trkpt lat="48.46039" lon="2.6646">
        <ele>70.887</ele>
        <time>2011-09-25T09:41:40Z</time>
      </trkpt>
      <trkpt lat="48.4601" lon="2.66449">
        <ele>69.968</ele>
        <time>2011-09-25T09:41:49Z</time>
      </trkpt>
      <trkpt lat="48.4599" lon="2.66443">
        <ele>74.351</ele>
        <time>2011-09-25T09:41:57Z</time>
      </trkpt>
      <trkpt lat="48.45987" lon="2.66444">
        <ele>75.291</ele>
        <time>2011-09-25T09:41:58Z</time>
      </trkpt>
      <trkpt lat="48.45979" lon="2.66448">
        <ele>76.182</ele>
        <time>2011-09-25T09:42:01Z</time>
      </trkpt>
      <trkpt lat="48.45946" lon="2.66483">
        <ele>80.899</ele>
        <time>2011-09-25T09:42:13Z</time>
      </trkpt>
      <trkpt lat="48.45935" lon="2.66519">
        <ele>81.753</ele>
        <time>2011-09-25T09:42:23Z</time>
      </trkpt>
      <trkpt lat="48.45935" lon="2.66526">
        <ele>81.074</ele>
        <time>2011-09-25T09:42:25Z</time>
      </trkpt>
      <trkpt lat="48.45936" lon="2.66548">
        <ele>80.885</ele>
        <time>2011-09-25T09:42:31Z</time>
      </trkpt>
      <trkpt lat="48.45932" lon="2.66558">
        <ele>84.665</ele>
        <time>2011-09-25T09:42:34Z</time>
      </trkpt>
      <trkpt lat="48.45933" lon="2.66571">
        <ele>84.544</ele>
        <time>2011-09-25T09:42:38Z</time>
      </trkpt>
      <trkpt lat="48.45938" lon="2.6661">
        <ele>86.121</ele>
        <time>2011-09-25T09:42:47Z</time>
      </trkpt>
      <trkpt lat="48.45934" lon="2.66621">
        <ele>85.332</ele>
        <time>2011-09-25T09:42:50Z</time>
      </trkpt>
      <trkpt lat="48.45931" lon="2.66636">
        <ele>84.573</ele>
        <time>2011-09-25T09:42:54Z</time>
      </trkpt>
      <trkpt lat="48.4593" lon="2.66658">
        <ele>82.498</ele>
        <time>2011-09-25T09:42:59Z</time>
      </trkpt>
      <trkpt lat="48.45927" lon="2.66668">
        <ele>81.944</ele>
        <time>2011-09-25T09:43:02Z</time>
      </trkpt>
      <trkpt lat="48.45925" lon="2.6668">
        <ele>81.483</ele>
        <time>2011-09-25T09:43:06Z</time>
      </trkpt>
      <trkpt lat="48.45924" lon="2.66701">
        <ele>79.936</ele>
        <time>2011-09-25T09:43:09Z</time>
      </trkpt>
      <trkpt lat="48.45922" lon="2.66731">
        <ele>80.822</ele>
        <time>2011-09-25T09:43:13Z</time>
      </trkpt>
      <trkpt lat="48.45919" lon="2.66786">
        <ele>83.291</ele>
        <time>2011-09-25T09:43:24Z</time>
      </trkpt>
      <trkpt lat="48.45909" lon="2.66796">
        <ele>84.472</ele>
        <time>2011-09-25T09:43:30Z</time>
      </trkpt>
      <trkpt lat="48.45906" lon="2.66802">
        <ele>84.372</ele>
        <time>2011-09-25T09:43:32Z</time>
      </trkpt>
      <trkpt lat="48.45896" lon="2.66819">
        <ele>85.954</ele>
        <time>2011-09-25T09:43:37Z</time>
      </trkpt>
      <trkpt lat="48.45894" lon="2.66829">
        <ele>87.107</ele>
        <time>2011-09-25T09:43:39Z</time>
      </trkpt>
      <trkpt lat="48.45895" lon="2.66844">
        <ele>87.95</ele>
        <time>2011-09-25T09:43:42Z</time>
      </trkpt>
      <trkpt lat="48.45886" lon="2.66869">
        <ele>86.314</ele>
        <time>2011-09-25T09:43:47Z</time>
      </trkpt>
      <trkpt lat="48.45876" lon="2.6691">
        <ele>85.479</ele>
        <time>2011-09-25T09:43:52Z</time>
      </trkpt>
      <trkpt lat="48.45872" lon="2.66928">
        <ele>84.778</ele>
        <time>2011-09-25T09:44:00Z</time>
      </trkpt>
      <trkpt lat="48.45872" lon="2.66928">
        <ele>84.741</ele>
        <time>2011-09-25T09:44:10Z</time>
      </trkpt>
      <trkpt lat="48.45873" lon="2.66969">
        <ele>84.936</ele>
        <time>2011-09-25T09:44:21Z</time>
      </trkpt>
      <trkpt lat="48.45873" lon="2.66985">
        <ele>84.378</ele>
        <time>2011-09-25T09:44:24Z</time>
      </trkpt>
      <trkpt lat="48.45882" lon="2.67022">
        <ele>85.5</ele>
        <time>2011-09-25T09:44:32Z</time>
      </trkpt>
      <trkpt lat="48.45899" lon="2.67073">
        <ele>87.406</ele>
        <time>2011-09-25T09:44:42Z</time>
      </trkpt>
      <trkpt lat="48.45902" lon="2.67076">
        <ele>86.867</ele>
        <time>2011-09-25T09:44:43Z</time>
      </trkpt>
      <trkpt lat="48.45909" lon="2.67078">
        <ele>87.464</ele>
        <time>2011-09-25T09:44:45Z</time>
      </trkpt>
      <trkpt lat="48.45941" lon="2.67104">
        <ele>81.379</ele>
        <time>2011-09-25T09:44:55Z</time>
      </trkpt>
      <trkpt lat="48.45956" lon="2.67111">
        <ele>83.776</ele>
        <time>2011-09-25T09:45:02Z</time>
      </trkpt>
      <trkpt lat="48.45957" lon="2.67123">
        <ele>84.395</ele>
        <time>2011-09-25T09:45:06Z</time>
      </trkpt>
      <trkpt lat="48.45969" lon="2.67143">
        <ele>85.008</ele>
        <time>2011-09-25T09:45:13Z</time>
      </trkpt>
      <trkpt lat="48.45969" lon="2.67169">
        <ele>85.839</ele>
        <time>2011-09-25T09:45:18Z</time>
      </trkpt>
      <trkpt lat="48.45973" lon="2.67186">
        <ele>85.193</ele>
        <time>2011-09-25T09:45:23Z</time>
      </trkpt>
      <trkpt lat="48.45972" lon="2.67193">
        <ele>85.52</ele>
        <time>2011-09-25T09:45:25Z</time>
      </trkpt>
      <trkpt lat="48.45966" lon="2.67208">
        <ele>85.477</ele>
        <time>2011-09-25T09:45:29Z</time>
      </trkpt>
      <trkpt lat="48.45965" lon="2.6722">
        <ele>85.122</ele>
        <time>2011-09-25T09:45:35Z</time>
      </trkpt>
      <trkpt lat="48.45971" lon="2.67224">
        <ele>85.002</ele>
        <time>2011-09-25T09:45:40Z</time>
      </trkpt>
      <trkpt lat="48.45988" lon="2.67254">
        <ele>88.063</ele>
        <time>2011-09-25T09:45:50Z</time>
      </trkpt>
      <trkpt lat="48.45992" lon="2.67259">
        <ele>88.62</ele>
        <time>2011-09-25T09:45:54Z</time>
      </trkpt>
      <trkpt lat="48.45994" lon="2.67261">
        <ele>89.025</ele>
        <time>2011-09-25T09:45:56Z</time>
      </trkpt>
      <trkpt lat="48.45997" lon="2.67262">
        <ele>87.565</ele>
        <time>2011-09-25T09:45:58Z</time>
      </trkpt>
      <trkpt lat="48.46004" lon="2.67266">
        <ele>87.09</ele>
        <time>2011-09-25T09:46:07Z</time>
      </trkpt>
      <trkpt lat="48.46006" lon="2.67269">
        <ele>86.644</ele>
        <time>2011-09-25T09:46:09Z</time>
      </trkpt>
      <trkpt lat="48.46013" lon="2.67267">
        <ele>84.87</ele>
        <time>2011-09-25T09:46:13Z</time>
      </trkpt>
      <trkpt lat="48.46019" lon="2.67273">
        <ele>84.303</ele>
        <time>2011-09-25T09:46:16Z</time>
      </trkpt>
      <trkpt lat="48.46032" lon="2.67268">
        <ele>85.534</ele>
        <time>2011-09-25T09:46:26Z</time>
      </trkpt>
      <trkpt lat="48.46033" lon="2.67267">
        <ele>85.874</ele>
        <time>2011-09-25T09:46:30Z</time>
      </trkpt>
      <trkpt lat="48.46037" lon="2.67267">
        <ele>86.023</ele>
        <time>2011-09-25T09:46:33Z</time>
      </trkpt>
      <trkpt lat="48.46053" lon="2.67291">
        <ele>87.043</ele>
        <time>2011-09-25T09:46:43Z</time>
      </trkpt>
      <trkpt lat="48.46059" lon="2.67297">
        <ele>87.223</ele>
        <time>2011-09-25T09:46:48Z</time>
      </trkpt>
      <trkpt lat="48.46065" lon="2.67304">
        <ele>86.025</ele>
        <time>2011-09-25T09:46:52Z</time>
      </trkpt>
      <trkpt lat="48.46067" lon="2.67309">
        <ele>86.049</ele>
        <time>2011-09-25T09:46:54Z</time>
      </trkpt>
      <trkpt lat="48.46069" lon="2.67327">
        <ele>85.631</ele>
        <time>2011-09-25T09:46:58Z</time>
      </trkpt>
      <trkpt lat="48.46069" lon="2.67339">
        <ele>85.421</ele>
        <time>2011-09-25T09:47:00Z</time>
      </trkpt>
      <trkpt lat="48.46064" lon="2.67342">
        <ele>84.546</ele>
        <time>2011-09-25T09:47:03Z</time>
      </trkpt>
      <trkpt lat="48.46058" lon="2.67354">
        <ele>82.876</ele>
        <time>2011-09-25T09:47:07Z</time>
      </trkpt>
      <trkpt lat="48.4605" lon="2.67365">
        <ele>81.214</ele>
        <time>2011-09-25T09:47:12Z</time>
      </trkpt>
      <trkpt lat="48.46042" lon="2.67365">
        <ele>80.093</ele>
        <time>2011-09-25T09:47:14Z</time>
      </trkpt>
      <trkpt lat="48.46035" lon="2.67361">
        <ele>78.928</ele>
        <time>2011-09-25T09:47:17Z</time>
      </trkpt>
      <trkpt lat="48.4602" lon="2.6734">
        <ele>76.871</ele>
        <time>2011-09-25T09:47:25Z</time>
      </trkpt>
      <trkpt lat="48.46018" lon="2.67337">
        <ele>76.571</ele>
        <time>2011-09-25T09:47:26Z</time>
      </trkpt>
      <trkpt lat="48.46011" lon="2.67331">
        <ele>76.267</ele>
        <time>2011-09-25T09:47:29Z</time>
      </trkpt>
      <trkpt lat="48.46005" lon="2.67332">
        <ele>79.069</ele>
        <time>2011-09-25T09:47:32Z</time>
      </trkpt>
      <trkpt lat="48.46002" lon="2.67324">
        <ele>80.086</ele>
        <time>2011-09-25T09:47:36Z</time>
      </trkpt>
      <trkpt lat="48.46002" lon="2.67318">
        <ele>80.975</ele>
        <time>2011-09-25T09:47:38Z</time>
      </trkpt>
      <trkpt lat="48.45989" lon="2.67307">
        <ele>82.547</ele>
        <time>2011-09-25T09:47:45Z</time>
      </trkpt>
      <trkpt lat="48.45987" lon="2.67304">
        <ele>82.652</ele>
        <time>2011-09-25T09:47:47Z</time>
      </trkpt>
      <trkpt lat="48.45977" lon="2.67312">
        <ele>82.704</ele>
        <time>2011-09-25T09:47:53Z</time>
      </trkpt>
      <trkpt lat="48.4598" lon="2.67354">
        <ele>80.796</ele>
        <time>2011-09-25T09:48:02Z</time>
      </trkpt>
      <trkpt lat="48.45978" lon="2.67361">
        <ele>80.408</ele>
        <time>2011-09-25T09:48:04Z</time>
      </trkpt>
      <trkpt lat="48.45979" lon="2.67365">
        <ele>79.237</ele>
        <time>2011-09-25T09:48:06Z</time>
      </trkpt>
      <trkpt lat="48.45967" lon="2.6738">
        <ele>76.765</ele>
        <time>2011-09-25T09:48:13Z</time>
      </trkpt>
      <trkpt lat="48.45962" lon="2.674">
        <ele>75.797</ele>
        <time>2011-09-25T09:48:17Z</time>
      </trkpt>
      <trkpt lat="48.45939" lon="2.67436">
        <ele>71.708</ele>
        <time>2011-09-25T09:48:24Z</time>
      </trkpt>
      <trkpt lat="48.45906" lon="2.67479">
        <ele>71.73</ele>
        <time>2011-09-25T09:48:34Z</time>
      </trkpt>
      <trkpt lat="48.45901" lon="2.67486">
        <ele>72.476</ele>
        <time>2011-09-25T09:48:36Z</time>
      </trkpt>
      <trkpt lat="48.45884" lon="2.67519">
        <ele>73.551</ele>
        <time>2011-09-25T09:48:44Z</time>
      </trkpt>
      <trkpt lat="48.45879" lon="2.6754">
        <ele>76.075</ele>
        <time>2011-09-25T09:48:48Z</time>
      </trkpt>
      <trkpt lat="48.45866" lon="2.67576">
        <ele>78.65</ele>
        <time>2011-09-25T09:48:56Z</time>
      </trkpt>
      <trkpt lat="48.45858" lon="2.67615">
        <ele>80.59</ele>
        <time>2011-09-25T09:49:05Z</time>
      </trkpt>
      <trkpt lat="48.45857" lon="2.67646">
        <ele>82.467</ele>
        <time>2011-09-25T09:49:11Z</time>
      </trkpt>
      <trkpt lat="48.4586" lon="2.67659">
        <ele>82.36</ele>
        <time>2011-09-25T09:49:15Z</time>
      </trkpt>
      <trkpt lat="48.45876" lon="2.67692">
        <ele>87.827</ele>
        <time>2011-09-25T09:49:27Z</time>
      </trkpt>
      <trkpt lat="48.45878" lon="2.67696">
        <ele>88.242</ele>
        <time>2011-09-25T09:49:28Z</time>
      </trkpt>
      <trkpt lat="48.45877" lon="2.67713">
        <ele>89.115</ele>
        <time>2011-09-25T09:49:33Z</time>
      </trkpt>
      <trkpt lat="48.45874" lon="2.67719">
        <ele>88.731</ele>
        <time>2011-09-25T09:49:35Z</time>
      </trkpt>
      <trkpt lat="48.45858" lon="2.6774">
        <ele>89.005</ele>
        <time>2011-09-25T09:49:42Z</time>
      </trkpt>
      <trkpt lat="48.45856" lon="2.67753">
        <ele>88.285</ele>
        <time>2011-09-25T09:49:46Z</time>
      </trkpt>
      <trkpt lat="48.45857" lon="2.67761">
        <ele>88.397</ele>
        <time>2011-09-25T09:49:48Z</time>
      </trkpt>
      <trkpt lat="48.4586" lon="2.67772">
        <ele>89.57</ele>
        <time>2011-09-25T09:49:51Z</time>
      </trkpt>
      <trkpt lat="48.45867" lon="2.67806">
        <ele>90.488</ele>
        <time>2011-09-25T09:49:56Z</time>
      </trkpt>
      <trkpt lat="48.45871" lon="2.67831">
        <ele>91.236</ele>
        <time>2011-09-25T09:49:59Z</time>
      </trkpt>
      <trkpt lat="48.45893" lon="2.67892">
        <ele>90.151</ele>
        <time>2011-09-25T09:50:07Z</time>
      </trkpt>
      <trkpt lat="48.45904" lon="2.67936">
        <ele>89.91</ele>
        <time>2011-09-25T09:50:13Z</time>
      </trkpt>
      <trkpt lat="48.45914" lon="2.67963">
        <ele>91.899</ele>
        <time>2011-09-25T09:50:18Z</time>
      </trkpt>
      <trkpt lat="48.45921" lon="2.67965">
        <ele>92.921</ele>
        <time>2011-09-25T09:50:20Z</time>
      </trkpt>
      <trkpt lat="48.45929" lon="2.67987">
        <ele>95.925</ele>
        <time>2011-09-25T09:50:26Z</time>
      </trkpt>
      <trkpt lat="48.45929" lon="2.6802">
        <ele>93.304</ele>
        <time>2011-09-25T09:50:35Z</time>
      </trkpt>
      <trkpt lat="48.45929" lon="2.68033">
        <ele>92.181</ele>
        <time>2011-09-25T09:50:39Z</time>
      </trkpt>
      <trkpt lat="48.45924" lon="2.68057">
        <ele>94.734</ele>
        <time>2011-09-25T09:50:46Z</time>
      </trkpt>
      <trkpt lat="48.45922" lon="2.68095">
        <ele>95.61</ele>
        <time>2011-09-25T09:50:57Z</time>
      </trkpt>
      <trkpt lat="48.45929" lon="2.68149">
        <ele>98.589</ele>
        <time>2011-09-25T09:51:07Z</time>
      </trkpt>
      <trkpt lat="48.45929" lon="2.68153">
        <ele>99.039</ele>
        <time>2011-09-25T09:51:08Z</time>
      </trkpt>
      <trkpt lat="48.45932" lon="2.68161">
        <ele>99.453</ele>
        <time>2011-09-25T09:51:10Z</time>
      </trkpt>
      <trkpt lat="48.45932" lon="2.68173">
        <ele>100.341</ele>
        <time>2011-09-25T09:51:13Z</time>
      </trkpt>
      <trkpt lat="48.45946" lon="2.68185">
        <ele>97.982</ele>
        <time>2011-09-25T09:51:17Z</time>
      </trkpt>
      <trkpt lat="48.45957" lon="2.68202">
        <ele>93.003</ele>
        <time>2011-09-25T09:51:21Z</time>
      </trkpt>
      <trkpt lat="48.45976" lon="2.68211">
        <ele>89.922</ele>
        <time>2011-09-25T09:51:26Z</time>
      </trkpt>
      <trkpt lat="48.46008" lon="2.6824">
        <ele>86.268</ele>
        <time>2011-09-25T09:51:34Z</time>
      </trkpt>
      <trkpt lat="48.46045" lon="2.6828">
        <ele>79.29</ele>
        <time>2011-09-25T09:51:45Z</time>
      </trkpt>
      <trkpt lat="48.4605" lon="2.68289">
        <ele>77.796</ele>
        <time>2011-09-25T09:51:57Z</time>
      </trkpt>
      <trkpt lat="48.4605" lon="2.68289">
        <ele>77.7</ele>
        <time>2011-09-25T09:52:47Z</time>
      </trkpt>
      <trkpt lat="48.46052" lon="2.68295">
        <ele>77.704</ele>
        <time>2011-09-25T09:52:50Z</time>
      </trkpt>
      <trkpt lat="48.46059" lon="2.68308">
        <ele>77.534</ele>
        <time>2011-09-25T09:52:54Z</time>
      </trkpt>
      <trkpt lat="48.46066" lon="2.68326">
        <ele>76.804</ele>
        <time>2011-09-25T09:52:59Z</time>
      </trkpt>
      <trkpt lat="48.46057" lon="2.68376">
        <ele>75.746</ele>
        <time>2011-09-25T09:53:09Z</time>
      </trkpt>
      <trkpt lat="48.46042" lon="2.68474">
        <ele>75.466</ele>
        <time>2011-09-25T09:53:25Z</time>
      </trkpt>
      <trkpt lat="48.46027" lon="2.6858">
        <ele>76.673</ele>
        <time>2011-09-25T09:53:40Z</time>
      </trkpt>
      <trkpt lat="48.46014" lon="2.68668">
        <ele>77.648</ele>
        <time>2011-09-25T09:53:52Z</time>
      </trkpt>
      <trkpt lat="48.46001" lon="2.6876">
        <ele>75.506</ele>
        <time>2011-09-25T09:54:04Z</time>
      </trkpt>
      <trkpt lat="48.4599" lon="2.6883">
        <ele>77.323</ele>
        <time>2011-09-25T09:54:14Z</time>
      </trkpt>
      <trkpt lat="48.45977" lon="2.68913">
        <ele>76.63</ele>
        <time>2011-09-25T09:54:28Z</time>
      </trkpt>
      <trkpt lat="48.4596" lon="2.68921">
        <ele>76.409</ele>
        <time>2011-09-25T09:54:33Z</time>
      </trkpt>
      <trkpt lat="48.45947" lon="2.6892">
        <ele>75.061</ele>
        <time>2011-09-25T09:54:36Z</time>
      </trkpt>
      <trkpt lat="48.45933" lon="2.68921">
        <ele>74.12</ele>
        <time>2011-09-25T09:54:39Z</time>
      </trkpt>
      <trkpt lat="48.45902" lon="2.68923">
        <ele>74.847</ele>
        <time>2011-09-25T09:54:46Z</time>
      </trkpt>
      <trkpt lat="48.45888" lon="2.68923">
        <ele>74.575</ele>
        <time>2011-09-25T09:54:49Z</time>
      </trkpt>
      <trkpt lat="48.45844" lon="2.68928">
        <ele>79.044</ele>
        <time>2011-09-25T09:55:02Z</time>
      </trkpt>
      <trkpt lat="48.45843" lon="2.68929">
        <ele>79.817</ele>
        <time>2011-09-25T09:55:03Z</time>
      </trkpt>
      <trkpt lat="48.45842" lon="2.6893">
        <ele>80.44</ele>
        <time>2011-09-25T09:55:15Z</time>
      </trkpt>
      <trkpt lat="48.45842" lon="2.6893">
        <ele>80.436</ele>
        <time>2011-09-25T09:55:17Z</time>
      </trkpt>
      <trkpt lat="48.45841" lon="2.6893">
        <ele>80.571</ele>
        <time>2011-09-25T09:55:19Z</time>
      </trkpt>
      <trkpt lat="48.45835" lon="2.6893">
        <ele>82.039</ele>
        <time>2011-09-25T09:55:31Z</time>
      </trkpt>
      <trkpt lat="48.4583" lon="2.68935">
        <ele>82.783</ele>
        <time>2011-09-25T09:55:43Z</time>
      </trkpt>
      <trkpt lat="48.4582" lon="2.68938">
        <ele>83.346</ele>
        <time>2011-09-25T09:55:56Z</time>
      </trkpt>
      <trkpt lat="48.45818" lon="2.68937">
        <ele>83.732</ele>
        <time>2011-09-25T09:56:00Z</time>
      </trkpt>
      <trkpt lat="48.45804" lon="2.68933">
        <ele>83.634</ele>
        <time>2011-09-25T09:56:08Z</time>
      </trkpt>
      <trkpt lat="48.45791" lon="2.68955">
        <ele>85.559</ele>
        <time>2011-09-25T09:56:18Z</time>
      </trkpt>
      <trkpt lat="48.45768" lon="2.68991">
        <ele>81.278</ele>
        <time>2011-09-25T09:56:27Z</time>
      </trkpt>
      <trkpt lat="48.4576" lon="2.69006">
        <ele>80.934</ele>
        <time>2011-09-25T09:56:30Z</time>
      </trkpt>
      <trkpt lat="48.45738" lon="2.69004">
        <ele>79.71</ele>
        <time>2011-09-25T09:56:36Z</time>
      </trkpt>
      <trkpt lat="48.45729" lon="2.68996">
        <ele>78.557</ele>
        <time>2011-09-25T09:56:38Z</time>
      </trkpt>
      <trkpt lat="48.45702" lon="2.68983">
        <ele>75.641</ele>
        <time>2011-09-25T09:56:43Z</time>
      </trkpt>
      <trkpt lat="48.45685" lon="2.68974">
        <ele>73.767</ele>
        <time>2011-09-25T09:56:46Z</time>
      </trkpt>
      <trkpt lat="48.45672" lon="2.68974">
        <ele>73.203</ele>
        <time>2011-09-25T09:56:48Z</time>
      </trkpt>
      <trkpt lat="48.45648" lon="2.68986">
        <ele>73.255</ele>
        <time>2011-09-25T09:56:53Z</time>
      </trkpt>
      <trkpt lat="48.45602" lon="2.69019">
        <ele>70.212</ele>
        <time>2011-09-25T09:57:04Z</time>
      </trkpt>
      <trkpt lat="48.45584" lon="2.69059">
        <ele>69.518</ele>
        <time>2011-09-25T09:57:11Z</time>
      </trkpt>
      <trkpt lat="48.45565" lon="2.69103">
        <ele>70.176</ele>
        <time>2011-09-25T09:57:17Z</time>
      </trkpt>
      <trkpt lat="48.45552" lon="2.69112">
        <ele>69.122</ele>
        <time>2011-09-25T09:57:20Z</time>
      </trkpt>
      <trkpt lat="48.45543" lon="2.69121">
        <ele>67.833</ele>
        <time>2011-09-25T09:57:22Z</time>
      </trkpt>
      <trkpt lat="48.45506" lon="2.69106">
        <ele>70.367</ele>
        <time>2011-09-25T09:57:30Z</time>
      </trkpt>
      <trkpt lat="48.45487" lon="2.69098">
        <ele>71.004</ele>
        <time>2011-09-25T09:57:34Z</time>
      </trkpt>
      <trkpt lat="48.4546" lon="2.69085">
        <ele>71.075</ele>
        <time>2011-09-25T09:57:40Z</time>
      </trkpt>
      <trkpt lat="48.45424" lon="2.6907">
        <ele>73.151</ele>
        <time>2011-09-25T09:57:50Z</time>
      </trkpt>
      <trkpt lat="48.45412" lon="2.6906">
        <ele>73.375</ele>
        <time>2011-09-25T09:57:54Z</time>
      </trkpt>
      <trkpt lat="48.45402" lon="2.69056">
        <ele>73.91</ele>
        <time>2011-09-25T09:57:58Z</time>
      </trkpt>
      <trkpt lat="48.45382" lon="2.69046">
        <ele>77.491</ele>
        <time>2011-09-25T09:58:08Z</time>
      </trkpt>
      <trkpt lat="48.4537" lon="2.69038">
        <ele>75.489</ele>
        <time>2011-09-25T09:58:11Z</time>
      </trkpt>
      <trkpt lat="48.45355" lon="2.69028">
        <ele>74.955</ele>
        <time>2011-09-25T09:58:14Z</time>
      </trkpt>
      <trkpt lat="48.45328" lon="2.6902">
        <ele>73.725</ele>
        <time>2011-09-25T09:58:18Z</time>
      </trkpt>
      <trkpt lat="48.45314" lon="2.68998">
        <ele>74.106</ele>
        <time>2011-09-25T09:58:25Z</time>
      </trkpt>
      <trkpt lat="48.45295" lon="2.6898">
        <ele>78.574</ele>
        <time>2011-09-25T09:58:37Z</time>
      </trkpt>
      <trkpt lat="48.45285" lon="2.68964">
        <ele>80.062</ele>
        <time>2011-09-25T09:58:43Z</time>
      </trkpt>
      <trkpt lat="48.45252" lon="2.68934">
        <ele>81.483</ele>
        <time>2011-09-25T09:58:53Z</time>
      </trkpt>
      <trkpt lat="48.45244" lon="2.68927">
        <ele>80.936</ele>
        <time>2011-09-25T09:58:57Z</time>
      </trkpt>
      <trkpt lat="48.45233" lon="2.68925">
        <ele>82.162</ele>
        <time>2011-09-25T09:59:02Z</time>
      </trkpt>
      <trkpt lat="48.45229" lon="2.68922">
        <ele>82.161</ele>
        <time>2011-09-25T09:59:05Z</time>
      </trkpt>
      <trkpt lat="48.4522" lon="2.68922">
        <ele>82.049</ele>
        <time>2011-09-25T09:59:09Z</time>
      </trkpt>
      <trkpt lat="48.45217" lon="2.6892">
        <ele>81.942</ele>
        <time>2011-09-25T09:59:11Z</time>
      </trkpt>
      <trkpt lat="48.45207" lon="2.68916">
        <ele>82.116</ele>
        <time>2011-09-25T09:59:16Z</time>
      </trkpt>
      <trkpt lat="48.452" lon="2.68919">
        <ele>82.393</ele>
        <time>2011-09-25T09:59:40Z</time>
      </trkpt>
      <trkpt lat="48.452" lon="2.68918">
        <ele>85.078</ele>
        <time>2011-09-25T10:03:00Z</time>
      </trkpt>
      <trkpt lat="48.45199" lon="2.6892">
        <ele>86.206</ele>
        <time>2011-09-25T10:04:47Z</time>
      </trkpt>
      <trkpt lat="48.45197" lon="2.68925">
        <ele>86.329</ele>
        <time>2011-09-25T10:04:49Z</time>
      </trkpt>
      <trkpt lat="48.45194" lon="2.6893">
        <ele>86.273</ele>
        <time>2011-09-25T10:04:51Z</time>
      </trkpt>
      <trkpt lat="48.45157" lon="2.68992">
        <ele>84.13</ele>
        <time>2011-09-25T10:05:00Z</time>
      </trkpt>
      <trkpt lat="48.45132" lon="2.69038">
        <ele>82.125</ele>
        <time>2011-09-25T10:05:05Z</time>
      </trkpt>
      <trkpt lat="48.45111" lon="2.69071">
        <ele>78.935</ele>
        <time>2011-09-25T10:05:10Z</time>
      </trkpt>
      <trkpt lat="48.45108" lon="2.69096">
        <ele>77.798</ele>
        <time>2011-09-25T10:05:14Z</time>
      </trkpt>
      <trkpt lat="48.45107" lon="2.69109">
        <ele>77.484</ele>
        <time>2011-09-25T10:05:16Z</time>
      </trkpt>
      <trkpt lat="48.45108" lon="2.69122">
        <ele>77.077</ele>
        <time>2011-09-25T10:05:18Z</time>
      </trkpt>
      <trkpt lat="48.45077" lon="2.69168">
        <ele>74.359</ele>
        <time>2011-09-25T10:05:29Z</time>
      </trkpt>
      <trkpt lat="48.45066" lon="2.69173">
        <ele>73.682</ele>
        <time>2011-09-25T10:05:32Z</time>
      </trkpt>
      <trkpt lat="48.45028" lon="2.69191">
        <ele>70.955</ele>
        <time>2011-09-25T10:05:41Z</time>
      </trkpt>
      <trkpt lat="48.45017" lon="2.69201">
        <ele>70.056</ele>
        <time>2011-09-25T10:05:44Z</time>
      </trkpt>
      <trkpt lat="48.45002" lon="2.69206">
        <ele>69.735</ele>
        <time>2011-09-25T10:05:47Z</time>
      </trkpt>
      <trkpt lat="48.44987" lon="2.69224">
        <ele>67.803</ele>
        <time>2011-09-25T10:05:51Z</time>
      </trkpt>
      <trkpt lat="48.44975" lon="2.69246">
        <ele>67.307</ele>
        <time>2011-09-25T10:05:55Z</time>
      </trkpt>
      <trkpt lat="48.44967" lon="2.69263">
        <ele>66.617</ele>
        <time>2011-09-25T10:05:58Z</time>
      </trkpt>
      <trkpt lat="48.44955" lon="2.69286">
        <ele>68.294</ele>
        <time>2011-09-25T10:06:02Z</time>
      </trkpt>
      <trkpt lat="48.44931" lon="2.69321">
        <ele>69.546</ele>
        <time>2011-09-25T10:06:12Z</time>
      </trkpt>
      <trkpt lat="48.44927" lon="2.69325">
        <ele>69.293</ele>
        <time>2011-09-25T10:06:13Z</time>
      </trkpt>
      <trkpt lat="48.44906" lon="2.69346">
        <ele>67.893</ele>
        <time>2011-09-25T10:06:18Z</time>
      </trkpt>
      <trkpt lat="48.44886" lon="2.69357">
        <ele>67.818</ele>
        <time>2011-09-25T10:06:22Z</time>
      </trkpt>
      <trkpt lat="48.44861" lon="2.69359">
        <ele>67.979</ele>
        <time>2011-09-25T10:06:27Z</time>
      </trkpt>
      <trkpt lat="48.44842" lon="2.6937">
        <ele>67.453</ele>
        <time>2011-09-25T10:06:31Z</time>
      </trkpt>
      <trkpt lat="48.44814" lon="2.69379">
        <ele>67.277</ele>
        <time>2011-09-25T10:06:37Z</time>
      </trkpt>
      <trkpt lat="48.44799" lon="2.6938">
        <ele>66.454</ele>
        <time>2011-09-25T10:06:40Z</time>
      </trkpt>
      <trkpt lat="48.44785" lon="2.69384">
        <ele>66.18</ele>
        <time>2011-09-25T10:06:43Z</time>
      </trkpt>
      <trkpt lat="48.44773" lon="2.69376">
        <ele>65.593</ele>
        <time>2011-09-25T10:06:46Z</time>
      </trkpt>
      <trkpt lat="48.44764" lon="2.69369">
        <ele>64.901</ele>
        <time>2011-09-25T10:06:48Z</time>
      </trkpt>
      <trkpt lat="48.4474" lon="2.69377">
        <ele>63.651</ele>
        <time>2011-09-25T10:06:53Z</time>
      </trkpt>
      <trkpt lat="48.44726" lon="2.69387">
        <ele>63.634</ele>
        <time>2011-09-25T10:06:56Z</time>
      </trkpt>
      <trkpt lat="48.44713" lon="2.69399">
        <ele>64.734</ele>
        <time>2011-09-25T10:06:59Z</time>
      </trkpt>
      <trkpt lat="48.44689" lon="2.69397">
        <ele>64.58</ele>
        <time>2011-09-25T10:07:04Z</time>
      </trkpt>
      <trkpt lat="48.44668" lon="2.69382">
        <ele>63.563</ele>
        <time>2011-09-25T10:07:09Z</time>
      </trkpt>
      <trkpt lat="48.44663" lon="2.69379">
        <ele>64.579</ele>
        <time>2011-09-25T10:07:11Z</time>
      </trkpt>
      <trkpt lat="48.44651" lon="2.69362">
        <ele>64.423</ele>
        <time>2011-09-25T10:07:15Z</time>
      </trkpt>
      <trkpt lat="48.44624" lon="2.69333">
        <ele>63.097</ele>
        <time>2011-09-25T10:07:21Z</time>
      </trkpt>
      <trkpt lat="48.44607" lon="2.69335">
        <ele>63.312</ele>
        <time>2011-09-25T10:07:25Z</time>
      </trkpt>
      <trkpt lat="48.44594" lon="2.69342">
        <ele>63.123</ele>
        <time>2011-09-25T10:07:27Z</time>
      </trkpt>
      <trkpt lat="48.44577" lon="2.69351">
        <ele>63.781</ele>
        <time>2011-09-25T10:07:31Z</time>
      </trkpt>
      <trkpt lat="48.44566" lon="2.69361">
        <ele>63.844</ele>
        <time>2011-09-25T10:07:34Z</time>
      </trkpt>
      <trkpt lat="48.44551" lon="2.69401">
        <ele>66.77</ele>
        <time>2011-09-25T10:07:41Z</time>
      </trkpt>
      <trkpt lat="48.44533" lon="2.69421">
        <ele>64.921</ele>
        <time>2011-09-25T10:07:45Z</time>
      </trkpt>
      <trkpt lat="48.44515" lon="2.69444">
        <ele>64.015</ele>
        <time>2011-09-25T10:07:49Z</time>
      </trkpt>
      <trkpt lat="48.44508" lon="2.69458">
        <ele>64.114</ele>
        <time>2011-09-25T10:07:51Z</time>
      </trkpt>
      <trkpt lat="48.44496" lon="2.69467">
        <ele>64.278</ele>
        <time>2011-09-25T10:07:54Z</time>
      </trkpt>
      <trkpt lat="48.44484" lon="2.69479">
        <ele>61.233</ele>
        <time>2011-09-25T10:07:59Z</time>
      </trkpt>
      <trkpt lat="48.44465" lon="2.69484">
        <ele>61.901</ele>
        <time>2011-09-25T10:08:03Z</time>
      </trkpt>
      <trkpt lat="48.44433" lon="2.6947">
        <ele>63.791</ele>
        <time>2011-09-25T10:08:09Z</time>
      </trkpt>
      <trkpt lat="48.44397" lon="2.6944">
        <ele>61.408</ele>
        <time>2011-09-25T10:08:16Z</time>
      </trkpt>
      <trkpt lat="48.44377" lon="2.69442">
        <ele>64.165</ele>
        <time>2011-09-25T10:08:20Z</time>
      </trkpt>
      <trkpt lat="48.44372" lon="2.6945">
        <ele>63.737</ele>
        <time>2011-09-25T10:08:28Z</time>
      </trkpt>
      <trkpt lat="48.44373" lon="2.69449">
        <ele>63.597</ele>
        <time>2011-09-25T10:08:31Z</time>
      </trkpt>
      <trkpt lat="48.44372" lon="2.69454">
        <ele>66.714</ele>
        <time>2011-09-25T10:08:42Z</time>
      </trkpt>
      <trkpt lat="48.44372" lon="2.69453">
        <ele>68.152</ele>
        <time>2011-09-25T10:11:47Z</time>
      </trkpt>
      <trkpt lat="48.44372" lon="2.6945">
        <ele>68.545</ele>
        <time>2011-09-25T10:12:07Z</time>
      </trkpt>
      <trkpt lat="48.44371" lon="2.69449">
        <ele>69.73</ele>
        <time>2011-09-25T10:13:36Z</time>
      </trkpt>
      <trkpt lat="48.44371" lon="2.69449">
        <ele>69.714</ele>
        <time>2011-09-25T10:13:37Z</time>
      </trkpt>
      <trkpt lat="48.44372" lon="2.69446">
        <ele>69.781</ele>
        <time>2011-09-25T10:13:40Z</time>
      </trkpt>
      <trkpt lat="48.44353" lon="2.69391">
        <ele>70.062</ele>
        <time>2011-09-25T10:13:52Z</time>
      </trkpt>
      <trkpt lat="48.44334" lon="2.69321">
        <ele>70.7</ele>
        <time>2011-09-25T10:14:05Z</time>
      </trkpt>
      <trkpt lat="48.44334" lon="2.69316">
        <ele>71.993</ele>
        <time>2011-09-25T10:14:10Z</time>
      </trkpt>
      <trkpt lat="48.44333" lon="2.69317">
        <ele>71.784</ele>
        <time>2011-09-25T10:14:13Z</time>
      </trkpt>
      <trkpt lat="48.44343" lon="2.69355">
        <ele>70.747</ele>
        <time>2011-09-25T10:14:23Z</time>
      </trkpt>
      <trkpt lat="48.44345" lon="2.69368">
        <ele>69.686</ele>
        <time>2011-09-25T10:14:26Z</time>
      </trkpt>
      <trkpt lat="48.44336" lon="2.69382">
        <ele>68.661</ele>
        <time>2011-09-25T10:14:31Z</time>
      </trkpt>
      <trkpt lat="48.44282" lon="2.69398">
        <ele>67.426</ele>
        <time>2011-09-25T10:14:46Z</time>
      </trkpt>
      <trkpt lat="48.44207" lon="2.69423">
        <ele>67.344</ele>
        <time>2011-09-25T10:15:00Z</time>
      </trkpt>
      <trkpt lat="48.44148" lon="2.69443">
        <ele>67.345</ele>
        <time>2011-09-25T10:15:12Z</time>
      </trkpt>
      <trkpt lat="48.4409" lon="2.69462">
        <ele>67.338</ele>
        <time>2011-09-25T10:15:25Z</time>
      </trkpt>
      <trkpt lat="48.44082" lon="2.69483">
        <ele>67.72</ele>
        <time>2011-09-25T10:15:29Z</time>
      </trkpt>
      <trkpt lat="48.44062" lon="2.69639">
        <ele>68.868</ele>
        <time>2011-09-25T10:15:52Z</time>
      </trkpt>
      <trkpt lat="48.44046" lon="2.69757">
        <ele>70.095</ele>
        <time>2011-09-25T10:16:10Z</time>
      </trkpt>
      <trkpt lat="48.44042" lon="2.6978">
        <ele>72.157</ele>
        <time>2011-09-25T10:16:14Z</time>
      </trkpt>
      <trkpt lat="48.44022" lon="2.69789">
        <ele>75.416</ele>
        <time>2011-09-25T10:16:20Z</time>
      </trkpt>
      <trkpt lat="48.43955" lon="2.69777">
        <ele>78.391</ele>
        <time>2011-09-25T10:16:36Z</time>
      </trkpt>
      <trkpt lat="48.43951" lon="2.69777">
        <ele>78.446</ele>
        <time>2011-09-25T10:16:37Z</time>
      </trkpt>
      <trkpt lat="48.43884" lon="2.69765">
        <ele>82.115</ele>
        <time>2011-09-25T10:16:56Z</time>
      </trkpt>
      <trkpt lat="48.43882" lon="2.69765">
        <ele>82.689</ele>
        <time>2011-09-25T10:16:57Z</time>
      </trkpt>
      <trkpt lat="48.43862" lon="2.69776">
        <ele>88.811</ele>
        <time>2011-09-25T10:17:08Z</time>
      </trkpt>
      <trkpt lat="48.43834" lon="2.69808">
        <ele>92.47</ele>
        <time>2011-09-25T10:17:23Z</time>
      </trkpt>
      <trkpt lat="48.43832" lon="2.69811">
        <ele>91.331</ele>
        <time>2011-09-25T10:17:25Z</time>
      </trkpt>
      <trkpt lat="48.43833" lon="2.6982">
        <ele>89.905</ele>
        <time>2011-09-25T10:17:30Z</time>
      </trkpt>
      <trkpt lat="48.43838" lon="2.69839">
        <ele>89.498</ele>
        <time>2011-09-25T10:17:40Z</time>
      </trkpt>
      <trkpt lat="48.43841" lon="2.69841">
        <ele>90.212</ele>
        <time>2011-09-25T10:17:41Z</time>
      </trkpt>
      <trkpt lat="48.43844" lon="2.69848">
        <ele>91.304</ele>
        <time>2011-09-25T10:17:45Z</time>
      </trkpt>
      <trkpt lat="48.43851" lon="2.69853">
        <ele>91.501</ele>
        <time>2011-09-25T10:17:48Z</time>
      </trkpt>
      <trkpt lat="48.43857" lon="2.69874">
        <ele>91.776</ele>
        <time>2011-09-25T10:17:57Z</time>
      </trkpt>
      <trkpt lat="48.43858" lon="2.69876">
        <ele>91.97</ele>
        <time>2011-09-25T10:18:01Z</time>
      </trkpt>
      <trkpt lat="48.4386" lon="2.6988">
        <ele>92.615</ele>
        <time>2011-09-25T10:18:03Z</time>
      </trkpt>
      <trkpt lat="48.4386" lon="2.69892">
        <ele>95.908</ele>
        <time>2011-09-25T10:18:08Z</time>
      </trkpt>
      <trkpt lat="48.43856" lon="2.69904">
        <ele>95.404</ele>
        <time>2011-09-25T10:18:20Z</time>
      </trkpt>
      <trkpt lat="48.43854" lon="2.69909">
        <ele>95.511</ele>
        <time>2011-09-25T10:18:27Z</time>
      </trkpt>
      <trkpt lat="48.43849" lon="2.69911">
        <ele>94.501</ele>
        <time>2011-09-25T10:18:36Z</time>
      </trkpt>
      <trkpt lat="48.43839" lon="2.69924">
        <ele>94.054</ele>
        <time>2011-09-25T10:18:44Z</time>
      </trkpt>
      <trkpt lat="48.43828" lon="2.69925">
        <ele>93.027</ele>
        <time>2011-09-25T10:18:52Z</time>
      </trkpt>
      <trkpt lat="48.43821" lon="2.69945">
        <ele>90.694</ele>
        <time>2011-09-25T10:19:01Z</time>
      </trkpt>
      <trkpt lat="48.43821" lon="2.69946">
        <ele>91.962</ele>
        <time>2011-09-25T10:19:05Z</time>
      </trkpt>
      <trkpt lat="48.43816" lon="2.69953">
        <ele>93.78</ele>
        <time>2011-09-25T10:19:11Z</time>
      </trkpt>
      <trkpt lat="48.43815" lon="2.69963">
        <ele>93.972</ele>
        <time>2011-09-25T10:19:19Z</time>
      </trkpt>
      <trkpt lat="48.43814" lon="2.6997">
        <ele>96.184</ele>
        <time>2011-09-25T10:19:28Z</time>
      </trkpt>
      <trkpt lat="48.43807" lon="2.69981">
        <ele>97.614</ele>
        <time>2011-09-25T10:19:41Z</time>
      </trkpt>
      <trkpt lat="48.43807" lon="2.69981">
        <ele>98.233</ele>
        <time>2011-09-25T10:19:45Z</time>
      </trkpt>
      <trkpt lat="48.43802" lon="2.69986">
        <ele>98.416</ele>
        <time>2011-09-25T10:19:48Z</time>
      </trkpt>
      <trkpt lat="48.43801" lon="2.69988">
        <ele>98.248</ele>
        <time>2011-09-25T10:20:07Z</time>
      </trkpt>
      <trkpt lat="48.43798" lon="2.69997">
        <ele>101.172</ele>
        <time>2011-09-25T10:20:22Z</time>
      </trkpt>
      <trkpt lat="48.43798" lon="2.69998">
        <ele>101.128</ele>
        <time>2011-09-25T10:20:23Z</time>
      </trkpt>
      <trkpt lat="48.43791" lon="2.70007">
        <ele>105.212</ele>
        <time>2011-09-25T10:20:37Z</time>
      </trkpt>
      <trkpt lat="48.43785" lon="2.70018">
        <ele>108.934</ele>
        <time>2011-09-25T10:20:51Z</time>
      </trkpt>
      <trkpt lat="48.43781" lon="2.7003">
        <ele>111.493</ele>
        <time>2011-09-25T10:21:08Z</time>
      </trkpt>
      <trkpt lat="48.43777" lon="2.70034">
        <ele>111.1</ele>
        <time>2011-09-25T10:21:24Z</time>
      </trkpt>
      <trkpt lat="48.43775" lon="2.70041">
        <ele>109.275</ele>
        <time>2011-09-25T10:21:41Z</time>
      </trkpt>
      <trkpt lat="48.43774" lon="2.70045">
        <ele>108.917</ele>
        <time>2011-09-25T10:21:43Z</time>
      </trkpt>
      <trkpt lat="48.43767" lon="2.70059">
        <ele>109.301</ele>
        <time>2011-09-25T10:21:49Z</time>
      </trkpt>
      <trkpt lat="48.43766" lon="2.7007">
        <ele>109.099</ele>
        <time>2011-09-25T10:21:52Z</time>
      </trkpt>
      <trkpt lat="48.43763" lon="2.70075">
        <ele>109.603</ele>
        <time>2011-09-25T10:21:54Z</time>
      </trkpt>
      <trkpt lat="48.4376" lon="2.70083">
        <ele>111.081</ele>
        <time>2011-09-25T10:21:58Z</time>
      </trkpt>
      <trkpt lat="48.43759" lon="2.70087">
        <ele>111.94</ele>
        <time>2011-09-25T10:22:00Z</time>
      </trkpt>
      <trkpt lat="48.43754" lon="2.70122">
        <ele>111.949</ele>
        <time>2011-09-25T10:22:09Z</time>
      </trkpt>
      <trkpt lat="48.43747" lon="2.70157">
        <ele>112.864</ele>
        <time>2011-09-25T10:22:18Z</time>
      </trkpt>
      <trkpt lat="48.43741" lon="2.70166">
        <ele>112.66</ele>
        <time>2011-09-25T10:22:22Z</time>
      </trkpt>
      <trkpt lat="48.43736" lon="2.70169">
        <ele>109.912</ele>
        <time>2011-09-25T10:22:26Z</time>
      </trkpt>
      <trkpt lat="48.43734" lon="2.70184">
        <ele>106.287</ele>
        <time>2011-09-25T10:22:33Z</time>
      </trkpt>
      <trkpt lat="48.43736" lon="2.70192">
        <ele>105.359</ele>
        <time>2011-09-25T10:22:35Z</time>
      </trkpt>
      <trkpt lat="48.43746" lon="2.702">
        <ele>105.651</ele>
        <time>2011-09-25T10:22:42Z</time>
      </trkpt>
      <trkpt lat="48.43752" lon="2.70204">
        <ele>105.134</ele>
        <time>2011-09-25T10:22:45Z</time>
      </trkpt>
      <trkpt lat="48.43757" lon="2.7021">
        <ele>103.757</ele>
        <time>2011-09-25T10:22:59Z</time>
      </trkpt>
      <trkpt lat="48.43757" lon="2.7021">
        <ele>103.68</ele>
        <time>2011-09-25T10:23:03Z</time>
      </trkpt>
      <trkpt lat="48.43767" lon="2.70209">
        <ele>101.234</ele>
        <time>2011-09-25T10:23:11Z</time>
      </trkpt>
      <trkpt lat="48.4377" lon="2.70212">
        <ele>100.514</ele>
        <time>2011-09-25T10:23:13Z</time>
      </trkpt>
      <trkpt lat="48.4378" lon="2.7021">
        <ele>101.511</ele>
        <time>2011-09-25T10:23:17Z</time>
      </trkpt>
      <trkpt lat="48.43792" lon="2.70198">
        <ele>99.734</ele>
        <time>2011-09-25T10:23:23Z</time>
      </trkpt>
      <trkpt lat="48.43805" lon="2.70203">
        <ele>100.761</ele>
        <time>2011-09-25T10:23:28Z</time>
      </trkpt>
      <trkpt lat="48.43812" lon="2.70227">
        <ele>101.582</ele>
        <time>2011-09-25T10:23:35Z</time>
      </trkpt>
      <trkpt lat="48.43822" lon="2.70234">
        <ele>105.339</ele>
        <time>2011-09-25T10:23:45Z</time>
      </trkpt>
      <trkpt lat="48.43823" lon="2.70243">
        <ele>109.258</ele>
        <time>2011-09-25T10:23:54Z</time>
      </trkpt>
      <trkpt lat="48.43821" lon="2.70257">
        <ele>108.993</ele>
        <time>2011-09-25T10:24:03Z</time>
      </trkpt>
      <trkpt lat="48.43824" lon="2.70268">
        <ele>107.365</ele>
        <time>2011-09-25T10:24:08Z</time>
      </trkpt>
      <trkpt lat="48.43819" lon="2.70273">
        <ele>106.12</ele>
        <time>2011-09-25T10:24:12Z</time>
      </trkpt>
      <trkpt lat="48.43814" lon="2.70271">
        <ele>106.074</ele>
        <time>2011-09-25T10:24:14Z</time>
      </trkpt>
      <trkpt lat="48.43796" lon="2.7028">
        <ele>104.944</ele>
        <time>2011-09-25T10:24:21Z</time>
      </trkpt>
      <trkpt lat="48.43792" lon="2.70293">
        <ele>103.975</ele>
        <time>2011-09-25T10:24:25Z</time>
      </trkpt>
      <trkpt lat="48.43791" lon="2.70302">
        <ele>103.916</ele>
        <time>2011-09-25T10:24:27Z</time>
      </trkpt>
      <trkpt lat="48.43783" lon="2.70316">
        <ele>102.465</ele>
        <time>2011-09-25T10:24:31Z</time>
      </trkpt>
      <trkpt lat="48.43773" lon="2.70333">
        <ele>101.916</ele>
        <time>2011-09-25T10:24:36Z</time>
      </trkpt>
      <trkpt lat="48.43772" lon="2.70335">
        <ele>100.484</ele>
        <time>2011-09-25T10:24:42Z</time>
      </trkpt>
      <trkpt lat="48.43768" lon="2.70341">
        <ele>101.245</ele>
        <time>2011-09-25T10:24:46Z</time>
      </trkpt>
      <trkpt lat="48.43752" lon="2.70345">
        <ele>100.171</ele>
        <time>2011-09-25T10:24:52Z</time>
      </trkpt>
      <trkpt lat="48.43736" lon="2.70362">
        <ele>96.81</ele>
        <time>2011-09-25T10:24:59Z</time>
      </trkpt>
      <trkpt lat="48.43739" lon="2.7037">
        <ele>93.574</ele>
        <time>2011-09-25T10:25:03Z</time>
      </trkpt>
      <trkpt lat="48.43738" lon="2.70383">
        <ele>91.775</ele>
        <time>2011-09-25T10:25:06Z</time>
      </trkpt>
      <trkpt lat="48.43742" lon="2.70426">
        <ele>84.146</ele>
        <time>2011-09-25T10:25:16Z</time>
      </trkpt>
      <trkpt lat="48.43756" lon="2.7043">
        <ele>84.09</ele>
        <time>2011-09-25T10:25:21Z</time>
      </trkpt>
      <trkpt lat="48.4378" lon="2.70465">
        <ele>88.186</ele>
        <time>2011-09-25T10:25:32Z</time>
      </trkpt>
      <trkpt lat="48.43789" lon="2.70475">
        <ele>88.93</ele>
        <time>2011-09-25T10:25:35Z</time>
      </trkpt>
      <trkpt lat="48.43794" lon="2.70485">
        <ele>91.964</ele>
        <time>2011-09-25T10:25:44Z</time>
      </trkpt>
      <trkpt lat="48.43793" lon="2.70492">
        <ele>93.723</ele>
        <time>2011-09-25T10:25:57Z</time>
      </trkpt>
      <trkpt lat="48.43803" lon="2.70508">
        <ele>97.731</ele>
        <time>2011-09-25T10:26:13Z</time>
      </trkpt>
      <trkpt lat="48.43802" lon="2.70509">
        <ele>98.201</ele>
        <time>2011-09-25T10:26:40Z</time>
      </trkpt>
      <trkpt lat="48.43804" lon="2.70517">
        <ele>101.131</ele>
        <time>2011-09-25T10:26:53Z</time>
      </trkpt>
      <trkpt lat="48.43801" lon="2.70529">
        <ele>104.361</ele>
        <time>2011-09-25T10:27:06Z</time>
      </trkpt>
      <trkpt lat="48.43802" lon="2.70538">
        <ele>107.715</ele>
        <time>2011-09-25T10:27:19Z</time>
      </trkpt>
      <trkpt lat="48.43801" lon="2.70546">
        <ele>110.449</ele>
        <time>2011-09-25T10:27:36Z</time>
      </trkpt>
      <trkpt lat="48.438" lon="2.70547">
        <ele>110.307</ele>
        <time>2011-09-25T10:27:37Z</time>
      </trkpt>
      <trkpt lat="48.43788" lon="2.70562">
        <ele>110.873</ele>
        <time>2011-09-25T10:27:53Z</time>
      </trkpt>
      <trkpt lat="48.43783" lon="2.70573">
        <ele>108.582</ele>
        <time>2011-09-25T10:28:03Z</time>
      </trkpt>
      <trkpt lat="48.43766" lon="2.70583">
        <ele>108.868</ele>
        <time>2011-09-25T10:28:13Z</time>
      </trkpt>
      <trkpt lat="48.4376" lon="2.70579">
        <ele>107.719</ele>
        <time>2011-09-25T10:28:17Z</time>
      </trkpt>
      <trkpt lat="48.43738" lon="2.70573">
        <ele>105.94</ele>
        <time>2011-09-25T10:28:26Z</time>
      </trkpt>
      <trkpt lat="48.4373" lon="2.70575">
        <ele>105.576</ele>
        <time>2011-09-25T10:28:30Z</time>
      </trkpt>
      <trkpt lat="48.43727" lon="2.70576">
        <ele>105.241</ele>
        <time>2011-09-25T10:28:32Z</time>
      </trkpt>
      <trkpt lat="48.43706" lon="2.7056">
        <ele>104.472</ele>
        <time>2011-09-25T10:28:43Z</time>
      </trkpt>
      <trkpt lat="48.43705" lon="2.70558">
        <ele>104.428</ele>
        <time>2011-09-25T10:28:44Z</time>
      </trkpt>
      <trkpt lat="48.43704" lon="2.7055">
        <ele>104.882</ele>
        <time>2011-09-25T10:28:47Z</time>
      </trkpt>
      <trkpt lat="48.43701" lon="2.70541">
        <ele>106.296</ele>
        <time>2011-09-25T10:28:51Z</time>
      </trkpt>
      <trkpt lat="48.43692" lon="2.70541">
        <ele>106.387</ele>
        <time>2011-09-25T10:28:55Z</time>
      </trkpt>
      <trkpt lat="48.4368" lon="2.70541">
        <ele>104.586</ele>
        <time>2011-09-25T10:28:59Z</time>
      </trkpt>
      <trkpt lat="48.43669" lon="2.70549">
        <ele>106.112</ele>
        <time>2011-09-25T10:29:05Z</time>
      </trkpt>
      <trkpt lat="48.43667" lon="2.70554">
        <ele>106.296</ele>
        <time>2011-09-25T10:29:07Z</time>
      </trkpt>
      <trkpt lat="48.43661" lon="2.70563">
        <ele>106.339</ele>
        <time>2011-09-25T10:29:11Z</time>
      </trkpt>
      <trkpt lat="48.43642" lon="2.70574">
        <ele>107.26</ele>
        <time>2011-09-25T10:29:20Z</time>
      </trkpt>
      <trkpt lat="48.4364" lon="2.70587">
        <ele>106.464</ele>
        <time>2011-09-25T10:29:24Z</time>
      </trkpt>
      <trkpt lat="48.43632" lon="2.7061">
        <ele>105.945</ele>
        <time>2011-09-25T10:29:33Z</time>
      </trkpt>
      <trkpt lat="48.43631" lon="2.70618">
        <ele>105.261</ele>
        <time>2011-09-25T10:29:35Z</time>
      </trkpt>
      <trkpt lat="48.43632" lon="2.70631">
        <ele>103.484</ele>
        <time>2011-09-25T10:29:42Z</time>
      </trkpt>
      <trkpt lat="48.43623" lon="2.70642">
        <ele>103.153</ele>
        <time>2011-09-25T10:29:49Z</time>
      </trkpt>
      <trkpt lat="48.4362" lon="2.70645">
        <ele>102.943</ele>
        <time>2011-09-25T10:29:51Z</time>
      </trkpt>
      <trkpt lat="48.43615" lon="2.70669">
        <ele>104.727</ele>
        <time>2011-09-25T10:29:57Z</time>
      </trkpt>
      <trkpt lat="48.43627" lon="2.70687">
        <ele>106.305</ele>
        <time>2011-09-25T10:30:05Z</time>
      </trkpt>
      <trkpt lat="48.43633" lon="2.70693">
        <ele>106.23</ele>
        <time>2011-09-25T10:30:08Z</time>
      </trkpt>
      <trkpt lat="48.43635" lon="2.70709">
        <ele>106.859</ele>
        <time>2011-09-25T10:30:13Z</time>
      </trkpt>
      <trkpt lat="48.43642" lon="2.7072">
        <ele>107.303</ele>
        <time>2011-09-25T10:30:17Z</time>
      </trkpt>
      <trkpt lat="48.43649" lon="2.70723">
        <ele>105.974</ele>
        <time>2011-09-25T10:30:20Z</time>
      </trkpt>
      <trkpt lat="48.43648" lon="2.70741">
        <ele>101.693</ele>
        <time>2011-09-25T10:30:26Z</time>
      </trkpt>
      <trkpt lat="48.43633" lon="2.70753">
        <ele>103.08</ele>
        <time>2011-09-25T10:30:32Z</time>
      </trkpt>
      <trkpt lat="48.4362" lon="2.70775">
        <ele>103.132</ele>
        <time>2011-09-25T10:30:39Z</time>
      </trkpt>
      <trkpt lat="48.43608" lon="2.70793">
        <ele>102.324</ele>
        <time>2011-09-25T10:30:46Z</time>
      </trkpt>
      <trkpt lat="48.43606" lon="2.70801">
        <ele>103.674</ele>
        <time>2011-09-25T10:30:48Z</time>
      </trkpt>
      <trkpt lat="48.43606" lon="2.70813">
        <ele>105.774</ele>
        <time>2011-09-25T10:30:51Z</time>
      </trkpt>
      <trkpt lat="48.43607" lon="2.7083">
        <ele>106.824</ele>
        <time>2011-09-25T10:30:58Z</time>
      </trkpt>
      <trkpt lat="48.43607" lon="2.70834">
        <ele>106.58</ele>
        <time>2011-09-25T10:30:59Z</time>
      </trkpt>
      <trkpt lat="48.43603" lon="2.70873">
        <ele>107.977</ele>
        <time>2011-09-25T10:31:09Z</time>
      </trkpt>
      <trkpt lat="48.43603" lon="2.7088">
        <ele>108.59</ele>
        <time>2011-09-25T10:31:11Z</time>
      </trkpt>
      <trkpt lat="48.43601" lon="2.70893">
        <ele>109.14</ele>
        <time>2011-09-25T10:31:15Z</time>
      </trkpt>
      <trkpt lat="48.43599" lon="2.70903">
        <ele>110.037</ele>
        <time>2011-09-25T10:31:18Z</time>
      </trkpt>
      <trkpt lat="48.43595" lon="2.70907">
        <ele>108.956</ele>
        <time>2011-09-25T10:31:21Z</time>
      </trkpt>
      <trkpt lat="48.43593" lon="2.70931">
        <ele>107.279</ele>
        <time>2011-09-25T10:31:30Z</time>
      </trkpt>
      <trkpt lat="48.43578" lon="2.70967">
        <ele>110.858</ele>
        <time>2011-09-25T10:31:43Z</time>
      </trkpt>
      <trkpt lat="48.43569" lon="2.70992">
        <ele>108.973</ele>
        <time>2011-09-25T10:31:53Z</time>
      </trkpt>
      <trkpt lat="48.43566" lon="2.71">
        <ele>111.589</ele>
        <time>2011-09-25T10:32:07Z</time>
      </trkpt>
      <trkpt lat="48.43564" lon="2.71006">
        <ele>110.275</ele>
        <time>2011-09-25T10:32:27Z</time>
      </trkpt>
      <trkpt lat="48.43563" lon="2.71008">
        <ele>109.083</ele>
        <time>2011-09-25T10:32:29Z</time>
      </trkpt>
      <trkpt lat="48.43561" lon="2.71024">
        <ele>104.037</ele>
        <time>2011-09-25T10:32:39Z</time>
      </trkpt>
      <trkpt lat="48.43551" lon="2.71029">
        <ele>99.887</ele>
        <time>2011-09-25T10:32:45Z</time>
      </trkpt>
      <trkpt lat="48.43534" lon="2.7101">
        <ele>96.086</ele>
        <time>2011-09-25T10:32:54Z</time>
      </trkpt>
      <trkpt lat="48.43528" lon="2.71007">
        <ele>94.248</ele>
        <time>2011-09-25T10:32:56Z</time>
      </trkpt>
      <trkpt lat="48.43506" lon="2.71031">
        <ele>90.336</ele>
        <time>2011-09-25T10:33:02Z</time>
      </trkpt>
      <trkpt lat="48.43481" lon="2.71043">
        <ele>90.83</ele>
        <time>2011-09-25T10:33:10Z</time>
      </trkpt>
      <trkpt lat="48.4348" lon="2.71044">
        <ele>90</ele>
        <time>2011-09-25T10:34:51Z</time>
      </trkpt>
      <trkpt lat="48.4349" lon="2.71058">
        <ele>91.34</ele>
        <time>2011-09-25T10:34:58Z</time>
      </trkpt>
      <trkpt lat="48.43506" lon="2.71073">
        <ele>91.067</ele>
        <time>2011-09-25T10:35:02Z</time>
      </trkpt>
      <trkpt lat="48.43528" lon="2.71082">
        <ele>91.284</ele>
        <time>2011-09-25T10:35:07Z</time>
      </trkpt>
      <trkpt lat="48.4354" lon="2.71077">
        <ele>91.411</ele>
        <time>2011-09-25T10:35:10Z</time>
      </trkpt>
      <trkpt lat="48.43578" lon="2.71052">
        <ele>93.811</ele>
        <time>2011-09-25T10:35:20Z</time>
      </trkpt>
      <trkpt lat="48.4361" lon="2.70995">
        <ele>96.988</ele>
        <time>2011-09-25T10:35:32Z</time>
      </trkpt>
      <trkpt lat="48.43643" lon="2.70935">
        <ele>99.52</ele>
        <time>2011-09-25T10:35:46Z</time>
      </trkpt>
      <trkpt lat="48.43668" lon="2.70895">
        <ele>103.96</ele>
        <time>2011-09-25T10:35:58Z</time>
      </trkpt>
      <trkpt lat="48.43683" lon="2.7086">
        <ele>103.61</ele>
        <time>2011-09-25T10:36:09Z</time>
      </trkpt>
      <trkpt lat="48.43687" lon="2.70858">
        <ele>102.787</ele>
        <time>2011-09-25T10:36:21Z</time>
      </trkpt>
      <trkpt lat="48.43698" lon="2.70855">
        <ele>99.615</ele>
        <time>2011-09-25T10:36:59Z</time>
      </trkpt>
      <trkpt lat="48.4371" lon="2.70851">
        <ele>97.093</ele>
        <time>2011-09-25T10:37:03Z</time>
      </trkpt>
      <trkpt lat="48.43712" lon="2.70871">
        <ele>93.363</ele>
        <time>2011-09-25T10:37:10Z</time>
      </trkpt>
      <trkpt lat="48.43712" lon="2.70892">
        <ele>89.706</ele>
        <time>2011-09-25T10:37:17Z</time>
      </trkpt>
      <trkpt lat="48.43717" lon="2.70894">
        <ele>88.738</ele>
        <time>2011-09-25T10:37:40Z</time>
      </trkpt>
      <trkpt lat="48.43718" lon="2.70894">
        <ele>90.832</ele>
        <time>2011-09-25T10:38:24Z</time>
      </trkpt>
      <trkpt lat="48.43718" lon="2.70894">
        <ele>92.346</ele>
        <time>2011-09-25T10:47:49Z</time>
      </trkpt>
      <trkpt lat="48.4372" lon="2.70899">
        <ele>92.342</ele>
        <time>2011-09-25T10:47:52Z</time>
      </trkpt>
      <trkpt lat="48.43721" lon="2.70921">
        <ele>90.814</ele>
        <time>2011-09-25T10:47:56Z</time>
      </trkpt>
      <trkpt lat="48.43718" lon="2.70943">
        <ele>89.275</ele>
        <time>2011-09-25T10:47:59Z</time>
      </trkpt>
      <trkpt lat="48.4372" lon="2.70959">
        <ele>88.23</ele>
        <time>2011-09-25T10:48:01Z</time>
      </trkpt>
      <trkpt lat="48.4374" lon="2.70983">
        <ele>86.511</ele>
        <time>2011-09-25T10:48:06Z</time>
      </trkpt>
      <trkpt lat="48.43771" lon="2.71002">
        <ele>85.415</ele>
        <time>2011-09-25T10:48:14Z</time>
      </trkpt>
      <trkpt lat="48.43784" lon="2.71002">
        <ele>80.736</ele>
        <time>2011-09-25T10:48:18Z</time>
      </trkpt>
      <trkpt lat="48.43791" lon="2.71007">
        <ele>79.551</ele>
        <time>2011-09-25T10:48:21Z</time>
      </trkpt>
      <trkpt lat="48.43819" lon="2.71024">
        <ele>76.848</ele>
        <time>2011-09-25T10:48:28Z</time>
      </trkpt>
      <trkpt lat="48.43825" lon="2.71035">
        <ele>78.114</ele>
        <time>2011-09-25T10:48:31Z</time>
      </trkpt>
      <trkpt lat="48.43831" lon="2.7105">
        <ele>78.53</ele>
        <time>2011-09-25T10:48:34Z</time>
      </trkpt>
      <trkpt lat="48.43856" lon="2.71073">
        <ele>80.915</ele>
        <time>2011-09-25T10:48:40Z</time>
      </trkpt>
      <trkpt lat="48.43879" lon="2.71112">
        <ele>86.368</ele>
        <time>2011-09-25T10:48:47Z</time>
      </trkpt>
      <trkpt lat="48.43892" lon="2.71116">
        <ele>87.832</ele>
        <time>2011-09-25T10:48:51Z</time>
      </trkpt>
      <trkpt lat="48.43896" lon="2.71118">
        <ele>88.782</ele>
        <time>2011-09-25T10:48:53Z</time>
      </trkpt>
      <trkpt lat="48.43904" lon="2.71123">
        <ele>91.022</ele>
        <time>2011-09-25T10:48:56Z</time>
      </trkpt>
      <trkpt lat="48.43917" lon="2.71133">
        <ele>90.495</ele>
        <time>2011-09-25T10:49:00Z</time>
      </trkpt>
      <trkpt lat="48.43939" lon="2.71138">
        <ele>86.342</ele>
        <time>2011-09-25T10:49:07Z</time>
      </trkpt>
      <trkpt lat="48.43947" lon="2.71139">
        <ele>85.069</ele>
        <time>2011-09-25T10:49:10Z</time>
      </trkpt>
      <trkpt lat="48.4397" lon="2.71135">
        <ele>81.821</ele>
        <time>2011-09-25T10:49:17Z</time>
      </trkpt>
      <trkpt lat="48.43992" lon="2.71152">
        <ele>79.861</ele>
        <time>2011-09-25T10:49:23Z</time>
      </trkpt>
      <trkpt lat="48.44016" lon="2.71159">
        <ele>75.825</ele>
        <time>2011-09-25T10:49:31Z</time>
      </trkpt>
      <trkpt lat="48.44039" lon="2.71182">
        <ele>73.763</ele>
        <time>2011-09-25T10:49:37Z</time>
      </trkpt>
      <trkpt lat="48.4405" lon="2.71196">
        <ele>72.228</ele>
        <time>2011-09-25T10:49:41Z</time>
      </trkpt>
      <trkpt lat="48.44069" lon="2.71207">
        <ele>70.98</ele>
        <time>2011-09-25T10:49:45Z</time>
      </trkpt>
      <trkpt lat="48.44077" lon="2.71233">
        <ele>69.607</ele>
        <time>2011-09-25T10:49:50Z</time>
      </trkpt>
      <trkpt lat="48.44142" lon="2.713">
        <ele>67.125</ele>
        <time>2011-09-25T10:50:06Z</time>
      </trkpt>
      <trkpt lat="48.44189" lon="2.71346">
        <ele>67.444</ele>
        <time>2011-09-25T10:50:19Z</time>
      </trkpt>
      <trkpt lat="48.44242" lon="2.71402">
        <ele>67.112</ele>
        <time>2011-09-25T10:50:35Z</time>
      </trkpt>
      <trkpt lat="48.44256" lon="2.71421">
        <ele>66.66</ele>
        <time>2011-09-25T10:50:40Z</time>
      </trkpt>
      <trkpt lat="48.44294" lon="2.71538">
        <ele>66.335</ele>
        <time>2011-09-25T10:51:01Z</time>
      </trkpt>
      <trkpt lat="48.44331" lon="2.71652">
        <ele>65.187</ele>
        <time>2011-09-25T10:51:22Z</time>
      </trkpt>
      <trkpt lat="48.4436" lon="2.71737">
        <ele>64.47</ele>
        <time>2011-09-25T10:51:39Z</time>
      </trkpt>
      <trkpt lat="48.44371" lon="2.71787">
        <ele>65.6</ele>
        <time>2011-09-25T10:51:50Z</time>
      </trkpt>
      <trkpt lat="48.44347" lon="2.71818">
        <ele>65.666</ele>
        <time>2011-09-25T10:52:05Z</time>
      </trkpt>
      <trkpt lat="48.4435" lon="2.71836">
        <ele>66.121</ele>
        <time>2011-09-25T10:52:10Z</time>
      </trkpt>
      <trkpt lat="48.44349" lon="2.71859">
        <ele>65.499</ele>
        <time>2011-09-25T10:52:22Z</time>
      </trkpt>
    </trkseg>
  </trk>
</gpx>